<?xml version="1.0" encoding="UTF-8" standalone="no" ?>
<gpx xmlns="http://www.topografix.com/GPX/1/1" creator="www.cicloide.com" version="1.1" xmlns:xsi="http://www.w3.org/2001/XMLSchema-instance" xsi:schemaLocation="http://www.topografix.com/GPX/1/1 http://www.topografix.com/GPX/1/1/gpx.xsd">
  <trk>
    <name>www.cicloide.com 14704</name>
    <desc>www.cicloide.com 14704</desc>
    <trkseg>
      <trkpt lat="41.544051000" lon="1.887124000">
        <ele>103.30</ele>
        <time>2013-07-24T08:20:33Z</time>
      </trkpt>
      <trkpt lat="41.544235000" lon="1.887244000">
        <ele>103.50</ele>
        <time>2013-07-24T08:20:40Z</time>
      </trkpt>
      <trkpt lat="41.544423000" lon="1.887368000">
        <ele>104.70</ele>
        <time>2013-07-24T08:20:46Z</time>
      </trkpt>
      <trkpt lat="41.544617000" lon="1.887419000">
        <ele>106.10</ele>
        <time>2013-07-24T08:20:52Z</time>
      </trkpt>
      <trkpt lat="41.544791000" lon="1.887485000">
        <ele>107.60</ele>
        <time>2013-07-24T08:20:58Z</time>
      </trkpt>
      <trkpt lat="41.544971000" lon="1.887546000">
        <ele>109.60</ele>
        <time>2013-07-24T08:21:05Z</time>
      </trkpt>
      <trkpt lat="41.545191000" lon="1.887617000">
        <ele>110.90</ele>
        <time>2013-07-24T08:21:14Z</time>
      </trkpt>
      <trkpt lat="41.545412000" lon="1.887700000">
        <ele>113.10</ele>
        <time>2013-07-24T08:21:24Z</time>
      </trkpt>
      <trkpt lat="41.545608000" lon="1.887749000">
        <ele>115.00</ele>
        <time>2013-07-24T08:21:33Z</time>
      </trkpt>
      <trkpt lat="41.545800000" lon="1.887826000">
        <ele>116.00</ele>
        <time>2013-07-24T08:21:41Z</time>
      </trkpt>
      <trkpt lat="41.545983000" lon="1.887848000">
        <ele>116.70</ele>
        <time>2013-07-24T08:21:49Z</time>
      </trkpt>
      <trkpt lat="41.546171000" lon="1.887931000">
        <ele>117.50</ele>
        <time>2013-07-24T08:21:56Z</time>
      </trkpt>
      <trkpt lat="41.546325000" lon="1.888042000">
        <ele>118.00</ele>
        <time>2013-07-24T08:22:03Z</time>
      </trkpt>
      <trkpt lat="41.546515000" lon="1.888081000">
        <ele>119.00</ele>
        <time>2013-07-24T08:22:10Z</time>
      </trkpt>
      <trkpt lat="41.546699000" lon="1.888104000">
        <ele>120.90</ele>
        <time>2013-07-24T08:22:17Z</time>
      </trkpt>
      <trkpt lat="41.546882000" lon="1.888117000">
        <ele>122.40</ele>
        <time>2013-07-24T08:22:25Z</time>
      </trkpt>
      <trkpt lat="41.547067000" lon="1.888137000">
        <ele>124.90</ele>
        <time>2013-07-24T08:22:33Z</time>
      </trkpt>
      <trkpt lat="41.547253000" lon="1.888165000">
        <ele>127.30</ele>
        <time>2013-07-24T08:22:41Z</time>
      </trkpt>
      <trkpt lat="41.547448000" lon="1.888166000">
        <ele>129.40</ele>
        <time>2013-07-24T08:22:49Z</time>
      </trkpt>
      <trkpt lat="41.547652000" lon="1.888188000">
        <ele>131.90</ele>
        <time>2013-07-24T08:22:58Z</time>
      </trkpt>
      <trkpt lat="41.547855000" lon="1.888143000">
        <ele>133.90</ele>
        <time>2013-07-24T08:23:06Z</time>
      </trkpt>
      <trkpt lat="41.548035000" lon="1.888091000">
        <ele>135.40</ele>
        <time>2013-07-24T08:23:14Z</time>
      </trkpt>
      <trkpt lat="41.548223000" lon="1.888031000">
        <ele>137.10</ele>
        <time>2013-07-24T08:23:22Z</time>
      </trkpt>
      <trkpt lat="41.548425000" lon="1.887965000">
        <ele>139.30</ele>
        <time>2013-07-24T08:23:30Z</time>
      </trkpt>
      <trkpt lat="41.548630000" lon="1.887949000">
        <ele>139.60</ele>
        <time>2013-07-24T08:23:38Z</time>
      </trkpt>
      <trkpt lat="41.548816000" lon="1.887919000">
        <ele>140.90</ele>
        <time>2013-07-24T08:23:45Z</time>
      </trkpt>
      <trkpt lat="41.549003000" lon="1.887900000">
        <ele>141.80</ele>
        <time>2013-07-24T08:23:52Z</time>
      </trkpt>
      <trkpt lat="41.549198000" lon="1.887895000">
        <ele>142.70</ele>
        <time>2013-07-24T08:23:59Z</time>
      </trkpt>
      <trkpt lat="41.549386000" lon="1.887870000">
        <ele>144.10</ele>
        <time>2013-07-24T08:24:06Z</time>
      </trkpt>
      <trkpt lat="41.549572000" lon="1.887843000">
        <ele>144.90</ele>
        <time>2013-07-24T08:24:13Z</time>
      </trkpt>
      <trkpt lat="41.549773000" lon="1.887861000">
        <ele>145.90</ele>
        <time>2013-07-24T08:24:20Z</time>
      </trkpt>
      <trkpt lat="41.549961000" lon="1.887869000">
        <ele>146.90</ele>
        <time>2013-07-24T08:24:27Z</time>
      </trkpt>
      <trkpt lat="41.550163000" lon="1.887892000">
        <ele>147.70</ele>
        <time>2013-07-24T08:24:34Z</time>
      </trkpt>
      <trkpt lat="41.550365000" lon="1.887955000">
        <ele>148.70</ele>
        <time>2013-07-24T08:24:41Z</time>
      </trkpt>
      <trkpt lat="41.550561000" lon="1.888033000">
        <ele>149.80</ele>
        <time>2013-07-24T08:24:48Z</time>
      </trkpt>
      <trkpt lat="41.550752000" lon="1.888120000">
        <ele>149.90</ele>
        <time>2013-07-24T08:24:55Z</time>
      </trkpt>
      <trkpt lat="41.550938000" lon="1.888203000">
        <ele>151.40</ele>
        <time>2013-07-24T08:25:02Z</time>
      </trkpt>
      <trkpt lat="41.551124000" lon="1.888287000">
        <ele>152.70</ele>
        <time>2013-07-24T08:25:09Z</time>
      </trkpt>
      <trkpt lat="41.551321000" lon="1.888369000">
        <ele>153.70</ele>
        <time>2013-07-24T08:25:16Z</time>
      </trkpt>
      <trkpt lat="41.551516000" lon="1.888460000">
        <ele>154.50</ele>
        <time>2013-07-24T08:25:23Z</time>
      </trkpt>
      <trkpt lat="41.551609000" lon="1.888677000">
        <ele>155.70</ele>
        <time>2013-07-24T08:25:30Z</time>
      </trkpt>
      <trkpt lat="41.551674000" lon="1.888881000">
        <ele>156.60</ele>
        <time>2013-07-24T08:25:36Z</time>
      </trkpt>
      <trkpt lat="41.551865000" lon="1.889003000">
        <ele>157.30</ele>
        <time>2013-07-24T08:25:43Z</time>
      </trkpt>
      <trkpt lat="41.552066000" lon="1.889107000">
        <ele>158.80</ele>
        <time>2013-07-24T08:25:50Z</time>
      </trkpt>
      <trkpt lat="41.552260000" lon="1.889206000">
        <ele>159.40</ele>
        <time>2013-07-24T08:25:57Z</time>
      </trkpt>
      <trkpt lat="41.552459000" lon="1.889312000">
        <ele>161.00</ele>
        <time>2013-07-24T08:26:04Z</time>
      </trkpt>
      <trkpt lat="41.552650000" lon="1.889418000">
        <ele>162.40</ele>
        <time>2013-07-24T08:26:11Z</time>
      </trkpt>
      <trkpt lat="41.552826000" lon="1.889517000">
        <ele>163.20</ele>
        <time>2013-07-24T08:26:18Z</time>
      </trkpt>
      <trkpt lat="41.552892000" lon="1.889718000">
        <ele>164.60</ele>
        <time>2013-07-24T08:26:25Z</time>
      </trkpt>
      <trkpt lat="41.552828000" lon="1.889949000">
        <ele>164.60</ele>
        <time>2013-07-24T08:26:31Z</time>
      </trkpt>
      <trkpt lat="41.552781000" lon="1.890226000">
        <ele>163.40</ele>
        <time>2013-07-24T08:26:37Z</time>
      </trkpt>
      <trkpt lat="41.552923000" lon="1.890386000">
        <ele>164.00</ele>
        <time>2013-07-24T08:26:42Z</time>
      </trkpt>
      <trkpt lat="41.553120000" lon="1.890459000">
        <ele>165.60</ele>
        <time>2013-07-24T08:26:48Z</time>
      </trkpt>
      <trkpt lat="41.553316000" lon="1.890539000">
        <ele>166.00</ele>
        <time>2013-07-24T08:26:54Z</time>
      </trkpt>
      <trkpt lat="41.553496000" lon="1.890614000">
        <ele>166.90</ele>
        <time>2013-07-24T08:27:00Z</time>
      </trkpt>
      <trkpt lat="41.553683000" lon="1.890681000">
        <ele>167.80</ele>
        <time>2013-07-24T08:27:06Z</time>
      </trkpt>
      <trkpt lat="41.553853000" lon="1.890753000">
        <ele>168.80</ele>
        <time>2013-07-24T08:27:12Z</time>
      </trkpt>
      <trkpt lat="41.554038000" lon="1.890817000">
        <ele>169.20</ele>
        <time>2013-07-24T08:27:18Z</time>
      </trkpt>
      <trkpt lat="41.554224000" lon="1.890809000">
        <ele>170.50</ele>
        <time>2013-07-24T08:27:24Z</time>
      </trkpt>
      <trkpt lat="41.554398000" lon="1.890801000">
        <ele>171.30</ele>
        <time>2013-07-24T08:27:30Z</time>
      </trkpt>
      <trkpt lat="41.554599000" lon="1.890796000">
        <ele>172.90</ele>
        <time>2013-07-24T08:27:37Z</time>
      </trkpt>
      <trkpt lat="41.554805000" lon="1.890799000">
        <ele>174.20</ele>
        <time>2013-07-24T08:27:44Z</time>
      </trkpt>
      <trkpt lat="41.555011000" lon="1.890821000">
        <ele>175.80</ele>
        <time>2013-07-24T08:27:51Z</time>
      </trkpt>
      <trkpt lat="41.555211000" lon="1.890863000">
        <ele>177.30</ele>
        <time>2013-07-24T08:27:58Z</time>
      </trkpt>
      <trkpt lat="41.555420000" lon="1.890895000">
        <ele>178.30</ele>
        <time>2013-07-24T08:28:05Z</time>
      </trkpt>
      <trkpt lat="41.555625000" lon="1.890898000">
        <ele>179.60</ele>
        <time>2013-07-24T08:28:12Z</time>
      </trkpt>
      <trkpt lat="41.555812000" lon="1.890857000">
        <ele>180.20</ele>
        <time>2013-07-24T08:28:18Z</time>
      </trkpt>
      <trkpt lat="41.555988000" lon="1.890838000">
        <ele>181.60</ele>
        <time>2013-07-24T08:28:24Z</time>
      </trkpt>
      <trkpt lat="41.556185000" lon="1.890812000">
        <ele>182.70</ele>
        <time>2013-07-24T08:28:31Z</time>
      </trkpt>
      <trkpt lat="41.556391000" lon="1.890791000">
        <ele>183.70</ele>
        <time>2013-07-24T08:28:38Z</time>
      </trkpt>
      <trkpt lat="41.556586000" lon="1.890754000">
        <ele>185.50</ele>
        <time>2013-07-24T08:28:45Z</time>
      </trkpt>
      <trkpt lat="41.556686000" lon="1.890931000">
        <ele>187.20</ele>
        <time>2013-07-24T08:28:52Z</time>
      </trkpt>
      <trkpt lat="41.556675000" lon="1.891168000">
        <ele>186.70</ele>
        <time>2013-07-24T08:28:58Z</time>
      </trkpt>
      <trkpt lat="41.556660000" lon="1.891428000">
        <ele>187.20</ele>
        <time>2013-07-24T08:29:04Z</time>
      </trkpt>
      <trkpt lat="41.556763000" lon="1.891625000">
        <ele>187.60</ele>
        <time>2013-07-24T08:29:10Z</time>
      </trkpt>
      <trkpt lat="41.556963000" lon="1.891650000">
        <ele>189.50</ele>
        <time>2013-07-24T08:29:17Z</time>
      </trkpt>
      <trkpt lat="41.557153000" lon="1.891689000">
        <ele>191.30</ele>
        <time>2013-07-24T08:29:24Z</time>
      </trkpt>
      <trkpt lat="41.557329000" lon="1.891710000">
        <ele>192.50</ele>
        <time>2013-07-24T08:29:31Z</time>
      </trkpt>
      <trkpt lat="41.557532000" lon="1.891740000">
        <ele>194.10</ele>
        <time>2013-07-24T08:29:39Z</time>
      </trkpt>
      <trkpt lat="41.557719000" lon="1.891762000">
        <ele>196.60</ele>
        <time>2013-07-24T08:29:48Z</time>
      </trkpt>
      <trkpt lat="41.557880000" lon="1.891895000">
        <ele>198.70</ele>
        <time>2013-07-24T08:29:57Z</time>
      </trkpt>
      <trkpt lat="41.557951000" lon="1.892110000">
        <ele>200.20</ele>
        <time>2013-07-24T08:30:05Z</time>
      </trkpt>
      <trkpt lat="41.558047000" lon="1.892325000">
        <ele>201.60</ele>
        <time>2013-07-24T08:30:13Z</time>
      </trkpt>
      <trkpt lat="41.558139000" lon="1.892538000">
        <ele>204.00</ele>
        <time>2013-07-24T08:30:22Z</time>
      </trkpt>
      <trkpt lat="41.558259000" lon="1.892733000">
        <ele>206.40</ele>
        <time>2013-07-24T08:30:31Z</time>
      </trkpt>
      <trkpt lat="41.558417000" lon="1.892908000">
        <ele>208.90</ele>
        <time>2013-07-24T08:30:40Z</time>
      </trkpt>
      <trkpt lat="41.558616000" lon="1.892917000">
        <ele>212.10</ele>
        <time>2013-07-24T08:30:49Z</time>
      </trkpt>
      <trkpt lat="41.558810000" lon="1.892940000">
        <ele>213.70</ele>
        <time>2013-07-24T08:30:58Z</time>
      </trkpt>
      <trkpt lat="41.558997000" lon="1.892935000">
        <ele>215.30</ele>
        <time>2013-07-24T08:31:07Z</time>
      </trkpt>
      <trkpt lat="41.559180000" lon="1.893042000">
        <ele>216.40</ele>
        <time>2013-07-24T08:31:16Z</time>
      </trkpt>
      <trkpt lat="41.559370000" lon="1.893149000">
        <ele>218.00</ele>
        <time>2013-07-24T08:31:25Z</time>
      </trkpt>
      <trkpt lat="41.559538000" lon="1.893272000">
        <ele>220.90</ele>
        <time>2013-07-24T08:31:34Z</time>
      </trkpt>
      <trkpt lat="41.559715000" lon="1.893277000">
        <ele>224.20</ele>
        <time>2013-07-24T08:31:44Z</time>
      </trkpt>
      <trkpt lat="41.559909000" lon="1.893327000">
        <ele>228.00</ele>
        <time>2013-07-24T08:31:55Z</time>
      </trkpt>
      <trkpt lat="41.560006000" lon="1.893524000">
        <ele>230.70</ele>
        <time>2013-07-24T08:32:05Z</time>
      </trkpt>
      <trkpt lat="41.560071000" lon="1.893764000">
        <ele>232.20</ele>
        <time>2013-07-24T08:32:15Z</time>
      </trkpt>
      <trkpt lat="41.560155000" lon="1.893994000">
        <ele>232.80</ele>
        <time>2013-07-24T08:32:24Z</time>
      </trkpt>
      <trkpt lat="41.560357000" lon="1.894034000">
        <ele>232.70</ele>
        <time>2013-07-24T08:32:32Z</time>
      </trkpt>
      <trkpt lat="41.560506000" lon="1.893978000">
        <ele>232.70</ele>
        <time>2013-07-24T08:32:38Z</time>
      </trkpt>
      <trkpt lat="41.560523000" lon="1.893732000">
        <ele>234.50</ele>
        <time>2013-07-24T08:32:46Z</time>
      </trkpt>
      <trkpt lat="41.560629000" lon="1.893559000">
        <ele>236.10</ele>
        <time>2013-07-24T08:32:54Z</time>
      </trkpt>
      <trkpt lat="41.560770000" lon="1.893421000">
        <ele>239.10</ele>
        <time>2013-07-24T08:33:03Z</time>
      </trkpt>
      <trkpt lat="41.560955000" lon="1.893384000">
        <ele>241.40</ele>
        <time>2013-07-24T08:33:12Z</time>
      </trkpt>
      <trkpt lat="41.561103000" lon="1.893488000">
        <ele>244.10</ele>
        <time>2013-07-24T08:33:22Z</time>
      </trkpt>
      <trkpt lat="41.561190000" lon="1.893700000">
        <ele>247.70</ele>
        <time>2013-07-24T08:33:33Z</time>
      </trkpt>
      <trkpt lat="41.561313000" lon="1.893893000">
        <ele>251.40</ele>
        <time>2013-07-24T08:33:44Z</time>
      </trkpt>
      <trkpt lat="41.561459000" lon="1.893800000">
        <ele>253.80</ele>
        <time>2013-07-24T08:33:55Z</time>
      </trkpt>
      <trkpt lat="41.561571000" lon="1.893635000">
        <ele>257.90</ele>
        <time>2013-07-24T08:34:07Z</time>
      </trkpt>
      <trkpt lat="41.561744000" lon="1.893544000">
        <ele>261.70</ele>
        <time>2013-07-24T08:34:20Z</time>
      </trkpt>
      <trkpt lat="41.561928000" lon="1.893536000">
        <ele>264.40</ele>
        <time>2013-07-24T08:34:31Z</time>
      </trkpt>
      <trkpt lat="41.562133000" lon="1.893561000">
        <ele>266.20</ele>
        <time>2013-07-24T08:34:43Z</time>
      </trkpt>
      <trkpt lat="41.562332000" lon="1.893616000">
        <ele>268.10</ele>
        <time>2013-07-24T08:34:54Z</time>
      </trkpt>
      <trkpt lat="41.562509000" lon="1.893680000">
        <ele>268.80</ele>
        <time>2013-07-24T08:35:04Z</time>
      </trkpt>
      <trkpt lat="41.562651000" lon="1.893818000">
        <ele>270.10</ele>
        <time>2013-07-24T08:35:14Z</time>
      </trkpt>
      <trkpt lat="41.562799000" lon="1.893971000">
        <ele>271.30</ele>
        <time>2013-07-24T08:35:24Z</time>
      </trkpt>
      <trkpt lat="41.562962000" lon="1.894109000">
        <ele>272.90</ele>
        <time>2013-07-24T08:35:34Z</time>
      </trkpt>
      <trkpt lat="41.563124000" lon="1.894048000">
        <ele>274.00</ele>
        <time>2013-07-24T08:35:44Z</time>
      </trkpt>
      <trkpt lat="41.563192000" lon="1.893815000">
        <ele>275.40</ele>
        <time>2013-07-24T08:35:53Z</time>
      </trkpt>
      <trkpt lat="41.563324000" lon="1.893633000">
        <ele>276.40</ele>
        <time>2013-07-24T08:36:03Z</time>
      </trkpt>
      <trkpt lat="41.563488000" lon="1.893779000">
        <ele>276.50</ele>
        <time>2013-07-24T08:36:12Z</time>
      </trkpt>
      <trkpt lat="41.563580000" lon="1.893987000">
        <ele>276.80</ele>
        <time>2013-07-24T08:36:19Z</time>
      </trkpt>
      <trkpt lat="41.563664000" lon="1.894211000">
        <ele>277.50</ele>
        <time>2013-07-24T08:36:26Z</time>
      </trkpt>
      <trkpt lat="41.563739000" lon="1.894434000">
        <ele>277.70</ele>
        <time>2013-07-24T08:36:33Z</time>
      </trkpt>
      <trkpt lat="41.563902000" lon="1.894384000">
        <ele>278.20</ele>
        <time>2013-07-24T08:36:40Z</time>
      </trkpt>
      <trkpt lat="41.564012000" lon="1.894222000">
        <ele>280.10</ele>
        <time>2013-07-24T08:36:48Z</time>
      </trkpt>
      <trkpt lat="41.564132000" lon="1.894049000">
        <ele>282.40</ele>
        <time>2013-07-24T08:36:57Z</time>
      </trkpt>
      <trkpt lat="41.564311000" lon="1.893970000">
        <ele>285.20</ele>
        <time>2013-07-24T08:37:08Z</time>
      </trkpt>
      <trkpt lat="41.564496000" lon="1.894050000">
        <ele>289.20</ele>
        <time>2013-07-24T08:37:19Z</time>
      </trkpt>
      <trkpt lat="41.564653000" lon="1.893932000">
        <ele>291.80</ele>
        <time>2013-07-24T08:37:30Z</time>
      </trkpt>
      <trkpt lat="41.564842000" lon="1.893877000">
        <ele>293.60</ele>
        <time>2013-07-24T08:37:41Z</time>
      </trkpt>
      <trkpt lat="41.565021000" lon="1.893940000">
        <ele>295.40</ele>
        <time>2013-07-24T08:37:52Z</time>
      </trkpt>
      <trkpt lat="41.565192000" lon="1.894012000">
        <ele>296.30</ele>
        <time>2013-07-24T08:38:02Z</time>
      </trkpt>
      <trkpt lat="41.565347000" lon="1.894146000">
        <ele>298.10</ele>
        <time>2013-07-24T08:38:13Z</time>
      </trkpt>
      <trkpt lat="41.565459000" lon="1.894000000">
        <ele>299.40</ele>
        <time>2013-07-24T08:38:24Z</time>
      </trkpt>
      <trkpt lat="41.565480000" lon="1.893754000">
        <ele>300.90</ele>
        <time>2013-07-24T08:38:34Z</time>
      </trkpt>
      <trkpt lat="41.565506000" lon="1.893503000">
        <ele>302.80</ele>
        <time>2013-07-24T08:38:44Z</time>
      </trkpt>
      <trkpt lat="41.565491000" lon="1.893250000">
        <ele>302.70</ele>
        <time>2013-07-24T08:38:53Z</time>
      </trkpt>
      <trkpt lat="41.565451000" lon="1.892995000">
        <ele>303.30</ele>
        <time>2013-07-24T08:39:00Z</time>
      </trkpt>
      <trkpt lat="41.565404000" lon="1.892743000">
        <ele>304.90</ele>
        <time>2013-07-24T08:39:08Z</time>
      </trkpt>
      <trkpt lat="41.565454000" lon="1.892493000">
        <ele>304.60</ele>
        <time>2013-07-24T08:39:16Z</time>
      </trkpt>
      <trkpt lat="41.565651000" lon="1.892469000">
        <ele>303.60</ele>
        <time>2013-07-24T08:39:23Z</time>
      </trkpt>
      <trkpt lat="41.565847000" lon="1.892549000">
        <ele>302.90</ele>
        <time>2013-07-24T08:39:30Z</time>
      </trkpt>
      <trkpt lat="41.566022000" lon="1.892657000">
        <ele>303.50</ele>
        <time>2013-07-24T08:39:36Z</time>
      </trkpt>
      <trkpt lat="41.566228000" lon="1.892651000">
        <ele>304.50</ele>
        <time>2013-07-24T08:39:43Z</time>
      </trkpt>
      <trkpt lat="41.566419000" lon="1.892617000">
        <ele>305.10</ele>
        <time>2013-07-24T08:39:50Z</time>
      </trkpt>
      <trkpt lat="41.566618000" lon="1.892661000">
        <ele>306.10</ele>
        <time>2013-07-24T08:39:57Z</time>
      </trkpt>
      <trkpt lat="41.566802000" lon="1.892673000">
        <ele>306.80</ele>
        <time>2013-07-24T08:40:03Z</time>
      </trkpt>
      <trkpt lat="41.567009000" lon="1.892661000">
        <ele>306.70</ele>
        <time>2013-07-24T08:40:10Z</time>
      </trkpt>
      <trkpt lat="41.567212000" lon="1.892602000">
        <ele>306.70</ele>
        <time>2013-07-24T08:40:17Z</time>
      </trkpt>
      <trkpt lat="41.567421000" lon="1.892612000">
        <ele>306.10</ele>
        <time>2013-07-24T08:40:23Z</time>
      </trkpt>
      <trkpt lat="41.567602000" lon="1.892624000">
        <ele>306.20</ele>
        <time>2013-07-24T08:40:28Z</time>
      </trkpt>
      <trkpt lat="41.567800000" lon="1.892680000">
        <ele>306.60</ele>
        <time>2013-07-24T08:40:34Z</time>
      </trkpt>
      <trkpt lat="41.567990000" lon="1.892760000">
        <ele>307.00</ele>
        <time>2013-07-24T08:40:40Z</time>
      </trkpt>
      <trkpt lat="41.568186000" lon="1.892840000">
        <ele>308.20</ele>
        <time>2013-07-24T08:40:47Z</time>
      </trkpt>
      <trkpt lat="41.568330000" lon="1.892978000">
        <ele>309.70</ele>
        <time>2013-07-24T08:40:54Z</time>
      </trkpt>
      <trkpt lat="41.568432000" lon="1.893183000">
        <ele>310.20</ele>
        <time>2013-07-24T08:41:01Z</time>
      </trkpt>
      <trkpt lat="41.568479000" lon="1.893424000">
        <ele>311.40</ele>
        <time>2013-07-24T08:41:08Z</time>
      </trkpt>
      <trkpt lat="41.568544000" lon="1.893660000">
        <ele>312.40</ele>
        <time>2013-07-24T08:41:15Z</time>
      </trkpt>
      <trkpt lat="41.568718000" lon="1.893677000">
        <ele>313.20</ele>
        <time>2013-07-24T08:41:22Z</time>
      </trkpt>
      <trkpt lat="41.568847000" lon="1.893496000">
        <ele>314.00</ele>
        <time>2013-07-24T08:41:29Z</time>
      </trkpt>
      <trkpt lat="41.568960000" lon="1.893311000">
        <ele>315.30</ele>
        <time>2013-07-24T08:41:36Z</time>
      </trkpt>
      <trkpt lat="41.569107000" lon="1.893167000">
        <ele>316.60</ele>
        <time>2013-07-24T08:41:43Z</time>
      </trkpt>
      <trkpt lat="41.569279000" lon="1.893035000">
        <ele>317.90</ele>
        <time>2013-07-24T08:41:51Z</time>
      </trkpt>
      <trkpt lat="41.569472000" lon="1.892961000">
        <ele>317.70</ele>
        <time>2013-07-24T08:41:58Z</time>
      </trkpt>
      <trkpt lat="41.569656000" lon="1.892969000">
        <ele>317.70</ele>
        <time>2013-07-24T08:42:04Z</time>
      </trkpt>
      <trkpt lat="41.569845000" lon="1.893025000">
        <ele>317.30</ele>
        <time>2013-07-24T08:42:10Z</time>
      </trkpt>
      <trkpt lat="41.570040000" lon="1.893144000">
        <ele>318.00</ele>
        <time>2013-07-24T08:42:17Z</time>
      </trkpt>
      <trkpt lat="41.570174000" lon="1.893320000">
        <ele>320.20</ele>
        <time>2013-07-24T08:42:24Z</time>
      </trkpt>
      <trkpt lat="41.570354000" lon="1.893369000">
        <ele>320.90</ele>
        <time>2013-07-24T08:42:31Z</time>
      </trkpt>
      <trkpt lat="41.570534000" lon="1.893433000">
        <ele>322.40</ele>
        <time>2013-07-24T08:42:38Z</time>
      </trkpt>
      <trkpt lat="41.570710000" lon="1.893528000">
        <ele>322.90</ele>
        <time>2013-07-24T08:42:45Z</time>
      </trkpt>
      <trkpt lat="41.570918000" lon="1.893590000">
        <ele>324.10</ele>
        <time>2013-07-24T08:42:52Z</time>
      </trkpt>
      <trkpt lat="41.571109000" lon="1.893620000">
        <ele>324.90</ele>
        <time>2013-07-24T08:42:59Z</time>
      </trkpt>
      <trkpt lat="41.571308000" lon="1.893657000">
        <ele>326.10</ele>
        <time>2013-07-24T08:43:06Z</time>
      </trkpt>
      <trkpt lat="41.571482000" lon="1.893735000">
        <ele>326.70</ele>
        <time>2013-07-24T08:43:13Z</time>
      </trkpt>
      <trkpt lat="41.571640000" lon="1.893834000">
        <ele>328.00</ele>
        <time>2013-07-24T08:43:20Z</time>
      </trkpt>
      <trkpt lat="41.571783000" lon="1.893966000">
        <ele>328.90</ele>
        <time>2013-07-24T08:43:27Z</time>
      </trkpt>
      <trkpt lat="41.571915000" lon="1.894140000">
        <ele>330.30</ele>
        <time>2013-07-24T08:43:34Z</time>
      </trkpt>
      <trkpt lat="41.572018000" lon="1.894322000">
        <ele>331.40</ele>
        <time>2013-07-24T08:43:41Z</time>
      </trkpt>
      <trkpt lat="41.572125000" lon="1.894550000">
        <ele>331.60</ele>
        <time>2013-07-24T08:43:49Z</time>
      </trkpt>
      <trkpt lat="41.572180000" lon="1.894789000">
        <ele>333.20</ele>
        <time>2013-07-24T08:43:56Z</time>
      </trkpt>
      <trkpt lat="41.572206000" lon="1.895035000">
        <ele>331.90</ele>
        <time>2013-07-24T08:44:02Z</time>
      </trkpt>
      <trkpt lat="41.572362000" lon="1.895059000">
        <ele>331.50</ele>
        <time>2013-07-24T08:44:07Z</time>
      </trkpt>
      <trkpt lat="41.572459000" lon="1.894860000">
        <ele>330.70</ele>
        <time>2013-07-24T08:44:12Z</time>
      </trkpt>
      <trkpt lat="41.572631000" lon="1.894710000">
        <ele>329.50</ele>
        <time>2013-07-24T08:44:17Z</time>
      </trkpt>
      <trkpt lat="41.572781000" lon="1.894585000">
        <ele>329.30</ele>
        <time>2013-07-24T08:44:21Z</time>
      </trkpt>
      <trkpt lat="41.572736000" lon="1.894325000">
        <ele>331.30</ele>
        <time>2013-07-24T08:44:26Z</time>
      </trkpt>
      <trkpt lat="41.572650000" lon="1.894087000">
        <ele>333.60</ele>
        <time>2013-07-24T08:44:32Z</time>
      </trkpt>
      <trkpt lat="41.572566000" lon="1.893877000">
        <ele>335.90</ele>
        <time>2013-07-24T08:44:38Z</time>
      </trkpt>
      <trkpt lat="41.572524000" lon="1.893651000">
        <ele>336.70</ele>
        <time>2013-07-24T08:44:45Z</time>
      </trkpt>
      <trkpt lat="41.572529000" lon="1.893382000">
        <ele>337.30</ele>
        <time>2013-07-24T08:44:52Z</time>
      </trkpt>
      <trkpt lat="41.572552000" lon="1.893135000">
        <ele>338.60</ele>
        <time>2013-07-24T08:44:59Z</time>
      </trkpt>
      <trkpt lat="41.572582000" lon="1.892861000">
        <ele>339.70</ele>
        <time>2013-07-24T08:45:06Z</time>
      </trkpt>
      <trkpt lat="41.572621000" lon="1.892619000">
        <ele>341.40</ele>
        <time>2013-07-24T08:45:13Z</time>
      </trkpt>
      <trkpt lat="41.572704000" lon="1.892401000">
        <ele>343.00</ele>
        <time>2013-07-24T08:45:20Z</time>
      </trkpt>
      <trkpt lat="41.572849000" lon="1.892226000">
        <ele>344.50</ele>
        <time>2013-07-24T08:45:28Z</time>
      </trkpt>
      <trkpt lat="41.572956000" lon="1.892033000">
        <ele>345.20</ele>
        <time>2013-07-24T08:45:35Z</time>
      </trkpt>
      <trkpt lat="41.573022000" lon="1.891795000">
        <ele>346.90</ele>
        <time>2013-07-24T08:45:42Z</time>
      </trkpt>
      <trkpt lat="41.572910000" lon="1.891619000">
        <ele>351.00</ele>
        <time>2013-07-24T08:45:52Z</time>
      </trkpt>
      <trkpt lat="41.572739000" lon="1.891551000">
        <ele>354.40</ele>
        <time>2013-07-24T08:46:03Z</time>
      </trkpt>
      <trkpt lat="41.572554000" lon="1.891512000">
        <ele>357.00</ele>
        <time>2013-07-24T08:46:14Z</time>
      </trkpt>
      <trkpt lat="41.572375000" lon="1.891483000">
        <ele>359.70</ele>
        <time>2013-07-24T08:46:25Z</time>
      </trkpt>
      <trkpt lat="41.572199000" lon="1.891392000">
        <ele>362.50</ele>
        <time>2013-07-24T08:46:37Z</time>
      </trkpt>
      <trkpt lat="41.572099000" lon="1.891207000">
        <ele>365.20</ele>
        <time>2013-07-24T08:46:49Z</time>
      </trkpt>
      <trkpt lat="41.572086000" lon="1.890983000">
        <ele>367.50</ele>
        <time>2013-07-24T08:47:00Z</time>
      </trkpt>
      <trkpt lat="41.572000000" lon="1.890759000">
        <ele>369.50</ele>
        <time>2013-07-24T08:47:10Z</time>
      </trkpt>
      <trkpt lat="41.572081000" lon="1.890688000">
        <ele>372.70</ele>
        <time>2013-07-24T08:47:21Z</time>
      </trkpt>
      <trkpt lat="41.572220000" lon="1.890856000">
        <ele>374.40</ele>
        <time>2013-07-24T08:47:32Z</time>
      </trkpt>
      <trkpt lat="41.572322000" lon="1.891060000">
        <ele>375.40</ele>
        <time>2013-07-24T08:47:42Z</time>
      </trkpt>
      <trkpt lat="41.572504000" lon="1.891111000">
        <ele>377.20</ele>
        <time>2013-07-24T08:47:52Z</time>
      </trkpt>
      <trkpt lat="41.572702000" lon="1.891146000">
        <ele>377.30</ele>
        <time>2013-07-24T08:48:01Z</time>
      </trkpt>
      <trkpt lat="41.572883000" lon="1.891135000">
        <ele>376.30</ele>
        <time>2013-07-24T08:48:07Z</time>
      </trkpt>
      <trkpt lat="41.573080000" lon="1.891055000">
        <ele>376.50</ele>
        <time>2013-07-24T08:48:13Z</time>
      </trkpt>
      <trkpt lat="41.573272000" lon="1.891071000">
        <ele>378.80</ele>
        <time>2013-07-24T08:48:20Z</time>
      </trkpt>
      <trkpt lat="41.573471000" lon="1.891070000">
        <ele>380.00</ele>
        <time>2013-07-24T08:48:28Z</time>
      </trkpt>
      <trkpt lat="41.573633000" lon="1.890991000">
        <ele>382.60</ele>
        <time>2013-07-24T08:48:36Z</time>
      </trkpt>
      <trkpt lat="41.573710000" lon="1.890768000">
        <ele>386.10</ele>
        <time>2013-07-24T08:48:46Z</time>
      </trkpt>
      <trkpt lat="41.573866000" lon="1.890787000">
        <ele>388.30</ele>
        <time>2013-07-24T08:48:56Z</time>
      </trkpt>
      <trkpt lat="41.573884000" lon="1.891030000">
        <ele>389.70</ele>
        <time>2013-07-24T08:49:06Z</time>
      </trkpt>
      <trkpt lat="41.573877000" lon="1.891303000">
        <ele>390.90</ele>
        <time>2013-07-24T08:49:16Z</time>
      </trkpt>
      <trkpt lat="41.573848000" lon="1.891551000">
        <ele>391.60</ele>
        <time>2013-07-24T08:49:24Z</time>
      </trkpt>
      <trkpt lat="41.573857000" lon="1.891814000">
        <ele>392.10</ele>
        <time>2013-07-24T08:49:32Z</time>
      </trkpt>
      <trkpt lat="41.573867000" lon="1.892041000">
        <ele>393.40</ele>
        <time>2013-07-24T08:49:40Z</time>
      </trkpt>
      <trkpt lat="41.573891000" lon="1.892305000">
        <ele>394.80</ele>
        <time>2013-07-24T08:49:49Z</time>
      </trkpt>
      <trkpt lat="41.573803000" lon="1.892561000">
        <ele>395.40</ele>
        <time>2013-07-24T08:49:57Z</time>
      </trkpt>
      <trkpt lat="41.573679000" lon="1.892783000">
        <ele>395.50</ele>
        <time>2013-07-24T08:50:04Z</time>
      </trkpt>
      <trkpt lat="41.573572000" lon="1.892980000">
        <ele>396.60</ele>
        <time>2013-07-24T08:50:11Z</time>
      </trkpt>
      <trkpt lat="41.573482000" lon="1.893191000">
        <ele>397.40</ele>
        <time>2013-07-24T08:50:19Z</time>
      </trkpt>
      <trkpt lat="41.573488000" lon="1.893424000">
        <ele>396.70</ele>
        <time>2013-07-24T08:50:26Z</time>
      </trkpt>
      <trkpt lat="41.573607000" lon="1.893663000">
        <ele>396.90</ele>
        <time>2013-07-24T08:50:32Z</time>
      </trkpt>
      <trkpt lat="41.573695000" lon="1.893879000">
        <ele>396.10</ele>
        <time>2013-07-24T08:50:38Z</time>
      </trkpt>
      <trkpt lat="41.573780000" lon="1.894105000">
        <ele>395.40</ele>
        <time>2013-07-24T08:50:44Z</time>
      </trkpt>
      <trkpt lat="41.573869000" lon="1.894322000">
        <ele>392.20</ele>
        <time>2013-07-24T08:50:48Z</time>
      </trkpt>
      <trkpt lat="41.573947000" lon="1.894544000">
        <ele>391.00</ele>
        <time>2013-07-24T08:50:51Z</time>
      </trkpt>
      <trkpt lat="41.574030000" lon="1.894773000">
        <ele>391.10</ele>
        <time>2013-07-24T08:50:54Z</time>
      </trkpt>
      <trkpt lat="41.574138000" lon="1.895009000">
        <ele>392.40</ele>
        <time>2013-07-24T08:50:58Z</time>
      </trkpt>
      <trkpt lat="41.574256000" lon="1.895219000">
        <ele>393.60</ele>
        <time>2013-07-24T08:51:03Z</time>
      </trkpt>
      <trkpt lat="41.574336000" lon="1.895450000">
        <ele>393.40</ele>
        <time>2013-07-24T08:51:08Z</time>
      </trkpt>
      <trkpt lat="41.574401000" lon="1.895692000">
        <ele>395.00</ele>
        <time>2013-07-24T08:51:14Z</time>
      </trkpt>
      <trkpt lat="41.574454000" lon="1.895926000">
        <ele>397.00</ele>
        <time>2013-07-24T08:51:21Z</time>
      </trkpt>
      <trkpt lat="41.574610000" lon="1.896082000">
        <ele>399.60</ele>
        <time>2013-07-24T08:51:31Z</time>
      </trkpt>
      <trkpt lat="41.574746000" lon="1.896258000">
        <ele>401.90</ele>
        <time>2013-07-24T08:51:41Z</time>
      </trkpt>
      <trkpt lat="41.574900000" lon="1.896369000">
        <ele>405.30</ele>
        <time>2013-07-24T08:51:52Z</time>
      </trkpt>
      <trkpt lat="41.575096000" lon="1.896405000">
        <ele>408.30</ele>
        <time>2013-07-24T08:52:05Z</time>
      </trkpt>
      <trkpt lat="41.575278000" lon="1.896403000">
        <ele>411.50</ele>
        <time>2013-07-24T08:52:16Z</time>
      </trkpt>
      <trkpt lat="41.575474000" lon="1.896413000">
        <ele>413.00</ele>
        <time>2013-07-24T08:52:28Z</time>
      </trkpt>
      <trkpt lat="41.575656000" lon="1.896380000">
        <ele>415.20</ele>
        <time>2013-07-24T08:52:39Z</time>
      </trkpt>
      <trkpt lat="41.575844000" lon="1.896387000">
        <ele>416.20</ele>
        <time>2013-07-24T08:52:49Z</time>
      </trkpt>
      <trkpt lat="41.576013000" lon="1.896492000">
        <ele>419.00</ele>
        <time>2013-07-24T08:53:00Z</time>
      </trkpt>
      <trkpt lat="41.576204000" lon="1.896536000">
        <ele>421.30</ele>
        <time>2013-07-24T08:53:12Z</time>
      </trkpt>
      <trkpt lat="41.576377000" lon="1.896528000">
        <ele>422.60</ele>
        <time>2013-07-24T08:53:23Z</time>
      </trkpt>
      <trkpt lat="41.576562000" lon="1.896537000">
        <ele>423.60</ele>
        <time>2013-07-24T08:53:32Z</time>
      </trkpt>
      <trkpt lat="41.576754000" lon="1.896648000">
        <ele>425.20</ele>
        <time>2013-07-24T08:53:42Z</time>
      </trkpt>
      <trkpt lat="41.576869000" lon="1.896821000">
        <ele>426.80</ele>
        <time>2013-07-24T08:53:51Z</time>
      </trkpt>
      <trkpt lat="41.576943000" lon="1.897031000">
        <ele>427.60</ele>
        <time>2013-07-24T08:54:00Z</time>
      </trkpt>
      <trkpt lat="41.577058000" lon="1.897241000">
        <ele>429.80</ele>
        <time>2013-07-24T08:54:10Z</time>
      </trkpt>
      <trkpt lat="41.577158000" lon="1.897443000">
        <ele>431.10</ele>
        <time>2013-07-24T08:54:19Z</time>
      </trkpt>
      <trkpt lat="41.577174000" lon="1.897669000">
        <ele>432.80</ele>
        <time>2013-07-24T08:54:28Z</time>
      </trkpt>
      <trkpt lat="41.577124000" lon="1.897917000">
        <ele>434.00</ele>
        <time>2013-07-24T08:54:37Z</time>
      </trkpt>
      <trkpt lat="41.577099000" lon="1.898174000">
        <ele>435.70</ele>
        <time>2013-07-24T08:54:46Z</time>
      </trkpt>
      <trkpt lat="41.577093000" lon="1.898425000">
        <ele>437.40</ele>
        <time>2013-07-24T08:54:55Z</time>
      </trkpt>
      <trkpt lat="41.577028000" lon="1.898660000">
        <ele>439.70</ele>
        <time>2013-07-24T08:55:04Z</time>
      </trkpt>
      <trkpt lat="41.576990000" lon="1.898854000">
        <ele>441.30</ele>
        <time>2013-07-24T08:55:18Z</time>
      </trkpt>
      <trkpt lat="41.577037000" lon="1.898807000">
        <ele>441.10</ele>
        <time>2013-07-24T08:55:30Z</time>
      </trkpt>
      <trkpt lat="41.577005000" lon="1.898774000">
        <ele>441.20</ele>
        <time>2013-07-24T08:55:45Z</time>
      </trkpt>
      <trkpt lat="41.576961000" lon="1.898819000">
        <ele>441.20</ele>
        <time>2013-07-24T08:56:00Z</time>
      </trkpt>
      <trkpt lat="41.577021000" lon="1.898861000">
        <ele>441.10</ele>
        <time>2013-07-24T08:56:13Z</time>
      </trkpt>
      <trkpt lat="41.577163000" lon="1.898855000">
        <ele>441.90</ele>
        <time>2013-07-24T08:57:33Z</time>
      </trkpt>
      <trkpt lat="41.577331000" lon="1.898747000">
        <ele>442.20</ele>
        <time>2013-07-24T08:57:42Z</time>
      </trkpt>
      <trkpt lat="41.577434000" lon="1.898900000">
        <ele>444.30</ele>
        <time>2013-07-24T08:57:51Z</time>
      </trkpt>
      <trkpt lat="41.577554000" lon="1.899087000">
        <ele>446.40</ele>
        <time>2013-07-24T08:58:12Z</time>
      </trkpt>
      <trkpt lat="41.577736000" lon="1.899053000">
        <ele>443.00</ele>
        <time>2013-07-24T08:58:23Z</time>
      </trkpt>
      <trkpt lat="41.577913000" lon="1.899095000">
        <ele>443.00</ele>
        <time>2013-07-24T08:58:37Z</time>
      </trkpt>
      <trkpt lat="41.578089000" lon="1.899198000">
        <ele>444.00</ele>
        <time>2013-07-24T08:58:46Z</time>
      </trkpt>
      <trkpt lat="41.578104000" lon="1.899417000">
        <ele>444.00</ele>
        <time>2013-07-24T08:58:54Z</time>
      </trkpt>
      <trkpt lat="41.578147000" lon="1.899642000">
        <ele>445.80</ele>
        <time>2013-07-24T08:59:04Z</time>
      </trkpt>
      <trkpt lat="41.578187000" lon="1.899879000">
        <ele>448.20</ele>
        <time>2013-07-24T08:59:15Z</time>
      </trkpt>
      <trkpt lat="41.578295000" lon="1.899963000">
        <ele>452.90</ele>
        <time>2013-07-24T08:59:41Z</time>
      </trkpt>
      <trkpt lat="41.578474000" lon="1.899929000">
        <ele>456.90</ele>
        <time>2013-07-24T09:00:08Z</time>
      </trkpt>
      <trkpt lat="41.578625000" lon="1.899998000">
        <ele>454.60</ele>
        <time>2013-07-24T09:00:35Z</time>
      </trkpt>
      <trkpt lat="41.578632000" lon="1.900225000">
        <ele>451.90</ele>
        <time>2013-07-24T09:00:51Z</time>
      </trkpt>
      <trkpt lat="41.578661000" lon="1.900478000">
        <ele>451.80</ele>
        <time>2013-07-24T09:00:58Z</time>
      </trkpt>
      <trkpt lat="41.578718000" lon="1.900734000">
        <ele>452.30</ele>
        <time>2013-07-24T09:01:05Z</time>
      </trkpt>
      <trkpt lat="41.578749000" lon="1.900974000">
        <ele>453.60</ele>
        <time>2013-07-24T09:01:15Z</time>
      </trkpt>
      <trkpt lat="41.578797000" lon="1.901223000">
        <ele>453.10</ele>
        <time>2013-07-24T09:01:27Z</time>
      </trkpt>
      <trkpt lat="41.578829000" lon="1.901510000">
        <ele>447.90</ele>
        <time>2013-07-24T09:01:33Z</time>
      </trkpt>
      <trkpt lat="41.578887000" lon="1.901758000">
        <ele>444.30</ele>
        <time>2013-07-24T09:01:38Z</time>
      </trkpt>
      <trkpt lat="41.578968000" lon="1.902008000">
        <ele>438.40</ele>
        <time>2013-07-24T09:01:43Z</time>
      </trkpt>
      <trkpt lat="41.579019000" lon="1.902295000">
        <ele>433.20</ele>
        <time>2013-07-24T09:01:47Z</time>
      </trkpt>
      <trkpt lat="41.579047000" lon="1.902599000">
        <ele>428.70</ele>
        <time>2013-07-24T09:01:51Z</time>
      </trkpt>
      <trkpt lat="41.579014000" lon="1.902923000">
        <ele>423.20</ele>
        <time>2013-07-24T09:01:55Z</time>
      </trkpt>
      <trkpt lat="41.579023000" lon="1.903184000">
        <ele>419.90</ele>
        <time>2013-07-24T09:01:58Z</time>
      </trkpt>
      <trkpt lat="41.579060000" lon="1.903448000">
        <ele>417.40</ele>
        <time>2013-07-24T09:02:01Z</time>
      </trkpt>
      <trkpt lat="41.579108000" lon="1.903748000">
        <ele>413.00</ele>
        <time>2013-07-24T09:02:05Z</time>
      </trkpt>
      <trkpt lat="41.579152000" lon="1.903988000">
        <ele>410.00</ele>
        <time>2013-07-24T09:02:09Z</time>
      </trkpt>
      <trkpt lat="41.579267000" lon="1.904244000">
        <ele>405.50</ele>
        <time>2013-07-24T09:02:13Z</time>
      </trkpt>
      <trkpt lat="41.579364000" lon="1.904488000">
        <ele>402.60</ele>
        <time>2013-07-24T09:02:16Z</time>
      </trkpt>
      <trkpt lat="41.579500000" lon="1.904685000">
        <ele>399.60</ele>
        <time>2013-07-24T09:02:20Z</time>
      </trkpt>
      <trkpt lat="41.579664000" lon="1.904853000">
        <ele>396.60</ele>
        <time>2013-07-24T09:02:24Z</time>
      </trkpt>
      <trkpt lat="41.579840000" lon="1.905015000">
        <ele>391.50</ele>
        <time>2013-07-24T09:02:30Z</time>
      </trkpt>
      <trkpt lat="41.579942000" lon="1.905218000">
        <ele>388.80</ele>
        <time>2013-07-24T09:02:34Z</time>
      </trkpt>
      <trkpt lat="41.579988000" lon="1.905450000">
        <ele>387.10</ele>
        <time>2013-07-24T09:02:38Z</time>
      </trkpt>
      <trkpt lat="41.580054000" lon="1.905742000">
        <ele>384.90</ele>
        <time>2013-07-24T09:02:43Z</time>
      </trkpt>
      <trkpt lat="41.580165000" lon="1.905999000">
        <ele>383.70</ele>
        <time>2013-07-24T09:02:47Z</time>
      </trkpt>
      <trkpt lat="41.580337000" lon="1.906154000">
        <ele>381.40</ele>
        <time>2013-07-24T09:02:51Z</time>
      </trkpt>
      <trkpt lat="41.580528000" lon="1.906245000">
        <ele>377.60</ele>
        <time>2013-07-24T09:02:55Z</time>
      </trkpt>
      <trkpt lat="41.580704000" lon="1.906395000">
        <ele>374.00</ele>
        <time>2013-07-24T09:02:59Z</time>
      </trkpt>
      <trkpt lat="41.580833000" lon="1.906603000">
        <ele>371.90</ele>
        <time>2013-07-24T09:03:03Z</time>
      </trkpt>
      <trkpt lat="41.580928000" lon="1.906875000">
        <ele>367.70</ele>
        <time>2013-07-24T09:03:07Z</time>
      </trkpt>
      <trkpt lat="41.581015000" lon="1.907153000">
        <ele>364.80</ele>
        <time>2013-07-24T09:03:10Z</time>
      </trkpt>
      <trkpt lat="41.581180000" lon="1.907389000">
        <ele>362.20</ele>
        <time>2013-07-24T09:03:13Z</time>
      </trkpt>
      <trkpt lat="41.581376000" lon="1.907606000">
        <ele>361.30</ele>
        <time>2013-07-24T09:03:16Z</time>
      </trkpt>
      <trkpt lat="41.581631000" lon="1.907920000">
        <ele>360.20</ele>
        <time>2013-07-24T09:03:20Z</time>
      </trkpt>
      <trkpt lat="41.581834000" lon="1.908148000">
        <ele>355.50</ele>
        <time>2013-07-24T09:03:23Z</time>
      </trkpt>
      <trkpt lat="41.582264000" lon="1.908633000">
        <ele>354.10</ele>
        <time>2013-07-24T09:03:30Z</time>
      </trkpt>
      <trkpt lat="41.582405000" lon="1.908899000">
        <ele>350.60</ele>
        <time>2013-07-24T09:03:34Z</time>
      </trkpt>
      <trkpt lat="41.582460000" lon="1.909128000">
        <ele>350.30</ele>
        <time>2013-07-24T09:03:37Z</time>
      </trkpt>
      <trkpt lat="41.582510000" lon="1.909380000">
        <ele>349.10</ele>
        <time>2013-07-24T09:03:40Z</time>
      </trkpt>
      <trkpt lat="41.582543000" lon="1.909657000">
        <ele>347.40</ele>
        <time>2013-07-24T09:03:43Z</time>
      </trkpt>
      <trkpt lat="41.582625000" lon="1.909950000">
        <ele>345.50</ele>
        <time>2013-07-24T09:03:46Z</time>
      </trkpt>
      <trkpt lat="41.582682000" lon="1.910227000">
        <ele>346.00</ele>
        <time>2013-07-24T09:03:49Z</time>
      </trkpt>
      <trkpt lat="41.582813000" lon="1.910281000">
        <ele>342.60</ele>
        <time>2013-07-24T09:05:13Z</time>
      </trkpt>
      <trkpt lat="41.582935000" lon="1.910309000">
        <ele>340.80</ele>
        <time>2013-07-24T09:06:59Z</time>
      </trkpt>
      <trkpt lat="41.583082000" lon="1.910432000">
        <ele>342.80</ele>
        <time>2013-07-24T09:07:21Z</time>
      </trkpt>
      <trkpt lat="41.583179000" lon="1.910644000">
        <ele>342.40</ele>
        <time>2013-07-24T09:07:28Z</time>
      </trkpt>
      <trkpt lat="41.583220000" lon="1.910888000">
        <ele>342.60</ele>
        <time>2013-07-24T09:07:34Z</time>
      </trkpt>
      <trkpt lat="41.583307000" lon="1.911155000">
        <ele>341.60</ele>
        <time>2013-07-24T09:07:40Z</time>
      </trkpt>
      <trkpt lat="41.583413000" lon="1.911410000">
        <ele>339.30</ele>
        <time>2013-07-24T09:07:45Z</time>
      </trkpt>
      <trkpt lat="41.583444000" lon="1.911679000">
        <ele>340.20</ele>
        <time>2013-07-24T09:07:50Z</time>
      </trkpt>
      <trkpt lat="41.583530000" lon="1.911901000">
        <ele>340.10</ele>
        <time>2013-07-24T09:07:55Z</time>
      </trkpt>
      <trkpt lat="41.583609000" lon="1.912128000">
        <ele>338.80</ele>
        <time>2013-07-24T09:08:00Z</time>
      </trkpt>
      <trkpt lat="41.583668000" lon="1.912372000">
        <ele>338.40</ele>
        <time>2013-07-24T09:08:05Z</time>
      </trkpt>
      <trkpt lat="41.583767000" lon="1.912615000">
        <ele>337.20</ele>
        <time>2013-07-24T09:08:10Z</time>
      </trkpt>
      <trkpt lat="41.583856000" lon="1.912836000">
        <ele>335.80</ele>
        <time>2013-07-24T09:08:15Z</time>
      </trkpt>
      <trkpt lat="41.583939000" lon="1.913096000">
        <ele>334.40</ele>
        <time>2013-07-24T09:08:21Z</time>
      </trkpt>
      <trkpt lat="41.584065000" lon="1.913251000">
        <ele>332.90</ele>
        <time>2013-07-24T09:08:27Z</time>
      </trkpt>
      <trkpt lat="41.584265000" lon="1.913234000">
        <ele>334.40</ele>
        <time>2013-07-24T09:08:35Z</time>
      </trkpt>
      <trkpt lat="41.584457000" lon="1.913259000">
        <ele>336.60</ele>
        <time>2013-07-24T09:08:43Z</time>
      </trkpt>
      <trkpt lat="41.584642000" lon="1.913325000">
        <ele>339.70</ele>
        <time>2013-07-24T09:08:52Z</time>
      </trkpt>
      <trkpt lat="41.584789000" lon="1.913378000">
        <ele>340.80</ele>
        <time>2013-07-24T09:09:01Z</time>
      </trkpt>
      <trkpt lat="41.584882000" lon="1.913587000">
        <ele>342.30</ele>
        <time>2013-07-24T09:09:09Z</time>
      </trkpt>
      <trkpt lat="41.585035000" lon="1.913646000">
        <ele>345.50</ele>
        <time>2013-07-24T09:09:18Z</time>
      </trkpt>
      <trkpt lat="41.585203000" lon="1.913610000">
        <ele>348.70</ele>
        <time>2013-07-24T09:09:56Z</time>
      </trkpt>
      <trkpt lat="41.585388000" lon="1.913583000">
        <ele>351.80</ele>
        <time>2013-07-24T09:10:09Z</time>
      </trkpt>
      <trkpt lat="41.585538000" lon="1.913456000">
        <ele>354.20</ele>
        <time>2013-07-24T09:10:19Z</time>
      </trkpt>
      <trkpt lat="41.585632000" lon="1.913229000">
        <ele>355.40</ele>
        <time>2013-07-24T09:10:30Z</time>
      </trkpt>
      <trkpt lat="41.585761000" lon="1.913051000">
        <ele>356.40</ele>
        <time>2013-07-24T09:10:40Z</time>
      </trkpt>
      <trkpt lat="41.585938000" lon="1.913013000">
        <ele>358.10</ele>
        <time>2013-07-24T09:10:50Z</time>
      </trkpt>
      <trkpt lat="41.586137000" lon="1.913067000">
        <ele>356.30</ele>
        <time>2013-07-24T09:11:03Z</time>
      </trkpt>
      <trkpt lat="41.586323000" lon="1.912999000">
        <ele>356.10</ele>
        <time>2013-07-24T09:11:09Z</time>
      </trkpt>
      <trkpt lat="41.586531000" lon="1.912892000">
        <ele>354.70</ele>
        <time>2013-07-24T09:11:15Z</time>
      </trkpt>
      <trkpt lat="41.586745000" lon="1.912848000">
        <ele>352.20</ele>
        <time>2013-07-24T09:11:19Z</time>
      </trkpt>
      <trkpt lat="41.586944000" lon="1.912905000">
        <ele>350.00</ele>
        <time>2013-07-24T09:11:22Z</time>
      </trkpt>
      <trkpt lat="41.587152000" lon="1.913016000">
        <ele>347.80</ele>
        <time>2013-07-24T09:11:25Z</time>
      </trkpt>
      <trkpt lat="41.587376000" lon="1.913118000">
        <ele>346.20</ele>
        <time>2013-07-24T09:11:28Z</time>
      </trkpt>
      <trkpt lat="41.587566000" lon="1.913195000">
        <ele>345.20</ele>
        <time>2013-07-24T09:11:31Z</time>
      </trkpt>
      <trkpt lat="41.587734000" lon="1.913132000">
        <ele>343.20</ele>
        <time>2013-07-24T09:11:36Z</time>
      </trkpt>
      <trkpt lat="41.587680000" lon="1.912883000">
        <ele>344.20</ele>
        <time>2013-07-24T09:11:43Z</time>
      </trkpt>
      <trkpt lat="41.587754000" lon="1.912879000">
        <ele>345.80</ele>
        <time>2013-07-24T09:11:52Z</time>
      </trkpt>
      <trkpt lat="41.587844000" lon="1.913140000">
        <ele>345.60</ele>
        <time>2013-07-24T09:11:59Z</time>
      </trkpt>
      <trkpt lat="41.588004000" lon="1.913323000">
        <ele>345.70</ele>
        <time>2013-07-24T09:12:05Z</time>
      </trkpt>
      <trkpt lat="41.588183000" lon="1.913440000">
        <ele>345.20</ele>
        <time>2013-07-24T09:12:10Z</time>
      </trkpt>
      <trkpt lat="41.588385000" lon="1.913558000">
        <ele>345.00</ele>
        <time>2013-07-24T09:12:15Z</time>
      </trkpt>
      <trkpt lat="41.588560000" lon="1.913671000">
        <ele>344.50</ele>
        <time>2013-07-24T09:12:19Z</time>
      </trkpt>
      <trkpt lat="41.588733000" lon="1.913747000">
        <ele>344.60</ele>
        <time>2013-07-24T09:12:23Z</time>
      </trkpt>
      <trkpt lat="41.588909000" lon="1.913800000">
        <ele>344.90</ele>
        <time>2013-07-24T09:12:27Z</time>
      </trkpt>
      <trkpt lat="41.589093000" lon="1.913829000">
        <ele>344.90</ele>
        <time>2013-07-24T09:12:31Z</time>
      </trkpt>
      <trkpt lat="41.589313000" lon="1.913823000">
        <ele>345.20</ele>
        <time>2013-07-24T09:12:36Z</time>
      </trkpt>
      <trkpt lat="41.589495000" lon="1.913788000">
        <ele>346.30</ele>
        <time>2013-07-24T09:12:40Z</time>
      </trkpt>
      <trkpt lat="41.589650000" lon="1.913685000">
        <ele>347.40</ele>
        <time>2013-07-24T09:12:44Z</time>
      </trkpt>
      <trkpt lat="41.589842000" lon="1.913567000">
        <ele>348.40</ele>
        <time>2013-07-24T09:12:49Z</time>
      </trkpt>
      <trkpt lat="41.590002000" lon="1.913398000">
        <ele>350.50</ele>
        <time>2013-07-24T09:12:54Z</time>
      </trkpt>
      <trkpt lat="41.590137000" lon="1.913241000">
        <ele>351.40</ele>
        <time>2013-07-24T09:12:59Z</time>
      </trkpt>
      <trkpt lat="41.590297000" lon="1.913105000">
        <ele>351.90</ele>
        <time>2013-07-24T09:13:04Z</time>
      </trkpt>
      <trkpt lat="41.590472000" lon="1.912994000">
        <ele>352.40</ele>
        <time>2013-07-24T09:13:09Z</time>
      </trkpt>
      <trkpt lat="41.590651000" lon="1.912902000">
        <ele>352.40</ele>
        <time>2013-07-24T09:13:14Z</time>
      </trkpt>
      <trkpt lat="41.590863000" lon="1.912832000">
        <ele>352.10</ele>
        <time>2013-07-24T09:13:19Z</time>
      </trkpt>
      <trkpt lat="41.591069000" lon="1.912783000">
        <ele>351.40</ele>
        <time>2013-07-24T09:13:23Z</time>
      </trkpt>
      <trkpt lat="41.591291000" lon="1.912772000">
        <ele>349.90</ele>
        <time>2013-07-24T09:13:27Z</time>
      </trkpt>
      <trkpt lat="41.591537000" lon="1.912811000">
        <ele>348.80</ele>
        <time>2013-07-24T09:13:31Z</time>
      </trkpt>
      <trkpt lat="41.591728000" lon="1.912870000">
        <ele>348.10</ele>
        <time>2013-07-24T09:13:34Z</time>
      </trkpt>
      <trkpt lat="41.591892000" lon="1.912984000">
        <ele>347.80</ele>
        <time>2013-07-24T09:13:37Z</time>
      </trkpt>
      <trkpt lat="41.592012000" lon="1.913256000">
        <ele>348.70</ele>
        <time>2013-07-24T09:13:41Z</time>
      </trkpt>
      <trkpt lat="41.592170000" lon="1.913470000">
        <ele>348.90</ele>
        <time>2013-07-24T09:13:45Z</time>
      </trkpt>
      <trkpt lat="41.592371000" lon="1.913493000">
        <ele>349.00</ele>
        <time>2013-07-24T09:13:49Z</time>
      </trkpt>
      <trkpt lat="41.592525000" lon="1.913389000">
        <ele>349.80</ele>
        <time>2013-07-24T09:13:53Z</time>
      </trkpt>
      <trkpt lat="41.592582000" lon="1.913155000">
        <ele>350.00</ele>
        <time>2013-07-24T09:13:57Z</time>
      </trkpt>
      <trkpt lat="41.592552000" lon="1.912896000">
        <ele>350.10</ele>
        <time>2013-07-24T09:14:01Z</time>
      </trkpt>
      <trkpt lat="41.592502000" lon="1.912653000">
        <ele>350.80</ele>
        <time>2013-07-24T09:14:05Z</time>
      </trkpt>
      <trkpt lat="41.592575000" lon="1.912429000">
        <ele>351.50</ele>
        <time>2013-07-24T09:14:09Z</time>
      </trkpt>
      <trkpt lat="41.592733000" lon="1.912256000">
        <ele>352.30</ele>
        <time>2013-07-24T09:14:14Z</time>
      </trkpt>
      <trkpt lat="41.592899000" lon="1.912345000">
        <ele>353.20</ele>
        <time>2013-07-24T09:14:19Z</time>
      </trkpt>
      <trkpt lat="41.593076000" lon="1.912488000">
        <ele>353.70</ele>
        <time>2013-07-24T09:14:24Z</time>
      </trkpt>
      <trkpt lat="41.593232000" lon="1.912641000">
        <ele>354.50</ele>
        <time>2013-07-24T09:14:29Z</time>
      </trkpt>
      <trkpt lat="41.593391000" lon="1.912780000">
        <ele>355.30</ele>
        <time>2013-07-24T09:14:34Z</time>
      </trkpt>
      <trkpt lat="41.593547000" lon="1.912921000">
        <ele>356.30</ele>
        <time>2013-07-24T09:14:39Z</time>
      </trkpt>
      <trkpt lat="41.593699000" lon="1.913040000">
        <ele>356.90</ele>
        <time>2013-07-24T09:14:44Z</time>
      </trkpt>
      <trkpt lat="41.593875000" lon="1.913132000">
        <ele>357.20</ele>
        <time>2013-07-24T09:14:49Z</time>
      </trkpt>
      <trkpt lat="41.594068000" lon="1.913060000">
        <ele>358.30</ele>
        <time>2013-07-24T09:14:55Z</time>
      </trkpt>
      <trkpt lat="41.594186000" lon="1.912863000">
        <ele>359.10</ele>
        <time>2013-07-24T09:15:00Z</time>
      </trkpt>
      <trkpt lat="41.594306000" lon="1.912632000">
        <ele>361.50</ele>
        <time>2013-07-24T09:15:06Z</time>
      </trkpt>
      <trkpt lat="41.594436000" lon="1.912450000">
        <ele>364.40</ele>
        <time>2013-07-24T09:15:12Z</time>
      </trkpt>
      <trkpt lat="41.594622000" lon="1.912544000">
        <ele>366.00</ele>
        <time>2013-07-24T09:15:19Z</time>
      </trkpt>
      <trkpt lat="41.594826000" lon="1.912615000">
        <ele>368.40</ele>
        <time>2013-07-24T09:15:27Z</time>
      </trkpt>
      <trkpt lat="41.595012000" lon="1.912549000">
        <ele>368.60</ele>
        <time>2013-07-24T09:15:34Z</time>
      </trkpt>
      <trkpt lat="41.595186000" lon="1.912478000">
        <ele>368.60</ele>
        <time>2013-07-24T09:15:40Z</time>
      </trkpt>
      <trkpt lat="41.595352000" lon="1.912420000">
        <ele>369.40</ele>
        <time>2013-07-24T09:15:46Z</time>
      </trkpt>
      <trkpt lat="41.595549000" lon="1.912523000">
        <ele>370.10</ele>
        <time>2013-07-24T09:15:53Z</time>
      </trkpt>
      <trkpt lat="41.595725000" lon="1.912572000">
        <ele>370.60</ele>
        <time>2013-07-24T09:15:59Z</time>
      </trkpt>
      <trkpt lat="41.595912000" lon="1.912662000">
        <ele>370.90</ele>
        <time>2013-07-24T09:16:05Z</time>
      </trkpt>
      <trkpt lat="41.596117000" lon="1.912711000">
        <ele>370.50</ele>
        <time>2013-07-24T09:16:11Z</time>
      </trkpt>
      <trkpt lat="41.596330000" lon="1.912627000">
        <ele>369.10</ele>
        <time>2013-07-24T09:16:16Z</time>
      </trkpt>
      <trkpt lat="41.596539000" lon="1.912601000">
        <ele>368.20</ele>
        <time>2013-07-24T09:16:20Z</time>
      </trkpt>
      <trkpt lat="41.596718000" lon="1.912657000">
        <ele>369.20</ele>
        <time>2013-07-24T09:16:24Z</time>
      </trkpt>
      <trkpt lat="41.596934000" lon="1.912711000">
        <ele>369.70</ele>
        <time>2013-07-24T09:16:29Z</time>
      </trkpt>
      <trkpt lat="41.597124000" lon="1.912728000">
        <ele>371.00</ele>
        <time>2013-07-24T09:16:34Z</time>
      </trkpt>
      <trkpt lat="41.597337000" lon="1.912754000">
        <ele>370.80</ele>
        <time>2013-07-24T09:16:40Z</time>
      </trkpt>
      <trkpt lat="41.597548000" lon="1.912768000">
        <ele>370.70</ele>
        <time>2013-07-24T09:16:46Z</time>
      </trkpt>
      <trkpt lat="41.597732000" lon="1.912767000">
        <ele>371.00</ele>
        <time>2013-07-24T09:16:52Z</time>
      </trkpt>
      <trkpt lat="41.597916000" lon="1.912771000">
        <ele>371.20</ele>
        <time>2013-07-24T09:16:57Z</time>
      </trkpt>
      <trkpt lat="41.598101000" lon="1.912778000">
        <ele>371.20</ele>
        <time>2013-07-24T09:17:02Z</time>
      </trkpt>
      <trkpt lat="41.598297000" lon="1.912775000">
        <ele>370.90</ele>
        <time>2013-07-24T09:17:07Z</time>
      </trkpt>
      <trkpt lat="41.598485000" lon="1.912719000">
        <ele>370.60</ele>
        <time>2013-07-24T09:17:12Z</time>
      </trkpt>
      <trkpt lat="41.598670000" lon="1.912685000">
        <ele>369.00</ele>
        <time>2013-07-24T09:17:16Z</time>
      </trkpt>
      <trkpt lat="41.598884000" lon="1.912612000">
        <ele>368.50</ele>
        <time>2013-07-24T09:17:20Z</time>
      </trkpt>
      <trkpt lat="41.599101000" lon="1.912575000">
        <ele>367.90</ele>
        <time>2013-07-24T09:17:24Z</time>
      </trkpt>
      <trkpt lat="41.599282000" lon="1.912520000">
        <ele>365.30</ele>
        <time>2013-07-24T09:17:27Z</time>
      </trkpt>
      <trkpt lat="41.599471000" lon="1.912402000">
        <ele>364.20</ele>
        <time>2013-07-24T09:17:30Z</time>
      </trkpt>
      <trkpt lat="41.599643000" lon="1.912225000">
        <ele>363.90</ele>
        <time>2013-07-24T09:17:33Z</time>
      </trkpt>
      <trkpt lat="41.599814000" lon="1.912079000">
        <ele>363.30</ele>
        <time>2013-07-24T09:17:36Z</time>
      </trkpt>
      <trkpt lat="41.600021000" lon="1.912040000">
        <ele>362.50</ele>
        <time>2013-07-24T09:17:39Z</time>
      </trkpt>
      <trkpt lat="41.600220000" lon="1.911959000">
        <ele>362.10</ele>
        <time>2013-07-24T09:17:42Z</time>
      </trkpt>
      <trkpt lat="41.600414000" lon="1.911905000">
        <ele>362.70</ele>
        <time>2013-07-24T09:17:46Z</time>
      </trkpt>
      <trkpt lat="41.600570000" lon="1.911999000">
        <ele>363.60</ele>
        <time>2013-07-24T09:17:53Z</time>
      </trkpt>
      <trkpt lat="41.600690000" lon="1.912233000">
        <ele>364.70</ele>
        <time>2013-07-24T09:18:00Z</time>
      </trkpt>
      <trkpt lat="41.600876000" lon="1.912305000">
        <ele>366.00</ele>
        <time>2013-07-24T09:18:07Z</time>
      </trkpt>
      <trkpt lat="41.601069000" lon="1.912343000">
        <ele>367.30</ele>
        <time>2013-07-24T09:18:14Z</time>
      </trkpt>
      <trkpt lat="41.601175000" lon="1.912534000">
        <ele>368.90</ele>
        <time>2013-07-24T09:18:21Z</time>
      </trkpt>
      <trkpt lat="41.601278000" lon="1.912761000">
        <ele>371.40</ele>
        <time>2013-07-24T09:18:30Z</time>
      </trkpt>
      <trkpt lat="41.601424000" lon="1.912912000">
        <ele>373.00</ele>
        <time>2013-07-24T09:18:38Z</time>
      </trkpt>
      <trkpt lat="41.601600000" lon="1.913036000">
        <ele>375.60</ele>
        <time>2013-07-24T09:18:47Z</time>
      </trkpt>
      <trkpt lat="41.601739000" lon="1.913176000">
        <ele>378.20</ele>
        <time>2013-07-24T09:18:55Z</time>
      </trkpt>
      <trkpt lat="41.601897000" lon="1.913344000">
        <ele>381.50</ele>
        <time>2013-07-24T09:19:04Z</time>
      </trkpt>
      <trkpt lat="41.602045000" lon="1.913521000">
        <ele>380.90</ele>
        <time>2013-07-24T09:19:13Z</time>
      </trkpt>
      <trkpt lat="41.602264000" lon="1.913488000">
        <ele>379.40</ele>
        <time>2013-07-24T09:19:18Z</time>
      </trkpt>
      <trkpt lat="41.602501000" lon="1.913474000">
        <ele>376.10</ele>
        <time>2013-07-24T09:19:22Z</time>
      </trkpt>
      <trkpt lat="41.602705000" lon="1.913428000">
        <ele>374.40</ele>
        <time>2013-07-24T09:19:25Z</time>
      </trkpt>
      <trkpt lat="41.602887000" lon="1.913325000">
        <ele>373.60</ele>
        <time>2013-07-24T09:19:28Z</time>
      </trkpt>
      <trkpt lat="41.603007000" lon="1.913136000">
        <ele>374.20</ele>
        <time>2013-07-24T09:19:31Z</time>
      </trkpt>
      <trkpt lat="41.603118000" lon="1.912947000">
        <ele>372.70</ele>
        <time>2013-07-24T09:19:34Z</time>
      </trkpt>
      <trkpt lat="41.603323000" lon="1.912879000">
        <ele>370.00</ele>
        <time>2013-07-24T09:19:37Z</time>
      </trkpt>
      <trkpt lat="41.603562000" lon="1.912882000">
        <ele>369.60</ele>
        <time>2013-07-24T09:19:40Z</time>
      </trkpt>
      <trkpt lat="41.603802000" lon="1.912897000">
        <ele>368.10</ele>
        <time>2013-07-24T09:19:43Z</time>
      </trkpt>
      <trkpt lat="41.604045000" lon="1.912831000">
        <ele>365.40</ele>
        <time>2013-07-24T09:19:46Z</time>
      </trkpt>
      <trkpt lat="41.604270000" lon="1.912726000">
        <ele>363.40</ele>
        <time>2013-07-24T09:19:49Z</time>
      </trkpt>
      <trkpt lat="41.604491000" lon="1.912543000">
        <ele>360.30</ele>
        <time>2013-07-24T09:19:52Z</time>
      </trkpt>
      <trkpt lat="41.604640000" lon="1.912406000">
        <ele>359.10</ele>
        <time>2013-07-24T09:19:54Z</time>
      </trkpt>
      <trkpt lat="41.604828000" lon="1.912277000">
        <ele>359.40</ele>
        <time>2013-07-24T09:19:57Z</time>
      </trkpt>
      <trkpt lat="41.604760000" lon="1.912399000">
        <ele>357.20</ele>
        <time>2013-07-24T09:20:04Z</time>
      </trkpt>
      <trkpt lat="41.604617000" lon="1.912569000">
        <ele>356.20</ele>
        <time>2013-07-24T09:20:08Z</time>
      </trkpt>
      <trkpt lat="41.604502000" lon="1.912790000">
        <ele>354.00</ele>
        <time>2013-07-24T09:20:12Z</time>
      </trkpt>
      <trkpt lat="41.604390000" lon="1.913029000">
        <ele>352.00</ele>
        <time>2013-07-24T09:20:16Z</time>
      </trkpt>
      <trkpt lat="41.604253000" lon="1.913207000">
        <ele>349.70</ele>
        <time>2013-07-24T09:20:21Z</time>
      </trkpt>
      <trkpt lat="41.604281000" lon="1.913472000">
        <ele>350.20</ele>
        <time>2013-07-24T09:20:26Z</time>
      </trkpt>
      <trkpt lat="41.604300000" lon="1.913740000">
        <ele>353.10</ele>
        <time>2013-07-24T09:20:35Z</time>
      </trkpt>
      <trkpt lat="41.604415000" lon="1.913781000">
        <ele>353.40</ele>
        <time>2013-07-24T09:20:45Z</time>
      </trkpt>
      <trkpt lat="41.604563000" lon="1.913622000">
        <ele>353.50</ele>
        <time>2013-07-24T09:20:52Z</time>
      </trkpt>
      <trkpt lat="41.604754000" lon="1.913570000">
        <ele>354.40</ele>
        <time>2013-07-24T09:20:59Z</time>
      </trkpt>
      <trkpt lat="41.604959000" lon="1.913587000">
        <ele>355.70</ele>
        <time>2013-07-24T09:21:07Z</time>
      </trkpt>
      <trkpt lat="41.605138000" lon="1.913773000">
        <ele>356.70</ele>
        <time>2013-07-24T09:21:15Z</time>
      </trkpt>
      <trkpt lat="41.605297000" lon="1.913933000">
        <ele>358.10</ele>
        <time>2013-07-24T09:21:22Z</time>
      </trkpt>
      <trkpt lat="41.605443000" lon="1.913855000">
        <ele>360.20</ele>
        <time>2013-07-24T09:21:30Z</time>
      </trkpt>
      <trkpt lat="41.605608000" lon="1.913820000">
        <ele>360.20</ele>
        <time>2013-07-24T09:21:37Z</time>
      </trkpt>
      <trkpt lat="41.605803000" lon="1.913825000">
        <ele>358.90</ele>
        <time>2013-07-24T09:21:44Z</time>
      </trkpt>
      <trkpt lat="41.605996000" lon="1.913918000">
        <ele>358.20</ele>
        <time>2013-07-24T09:21:48Z</time>
      </trkpt>
      <trkpt lat="41.606137000" lon="1.914070000">
        <ele>358.80</ele>
        <time>2013-07-24T09:21:52Z</time>
      </trkpt>
      <trkpt lat="41.606302000" lon="1.914220000">
        <ele>358.70</ele>
        <time>2013-07-24T09:21:57Z</time>
      </trkpt>
      <trkpt lat="41.606481000" lon="1.914239000">
        <ele>357.80</ele>
        <time>2013-07-24T09:22:03Z</time>
      </trkpt>
      <trkpt lat="41.606516000" lon="1.913990000">
        <ele>353.70</ele>
        <time>2013-07-24T09:22:07Z</time>
      </trkpt>
      <trkpt lat="41.606584000" lon="1.913773000">
        <ele>352.10</ele>
        <time>2013-07-24T09:22:15Z</time>
      </trkpt>
      <trkpt lat="41.606725000" lon="1.913713000">
        <ele>348.80</ele>
        <time>2013-07-24T09:22:25Z</time>
      </trkpt>
      <trkpt lat="41.606673000" lon="1.913419000">
        <ele>346.30</ele>
        <time>2013-07-24T09:22:30Z</time>
      </trkpt>
      <trkpt lat="41.606662000" lon="1.913124000">
        <ele>343.40</ele>
        <time>2013-07-24T09:22:34Z</time>
      </trkpt>
      <trkpt lat="41.606594000" lon="1.912878000">
        <ele>342.80</ele>
        <time>2013-07-24T09:22:38Z</time>
      </trkpt>
      <trkpt lat="41.606539000" lon="1.912652000">
        <ele>339.80</ele>
        <time>2013-07-24T09:22:44Z</time>
      </trkpt>
      <trkpt lat="41.606583000" lon="1.912426000">
        <ele>339.00</ele>
        <time>2013-07-24T09:22:52Z</time>
      </trkpt>
      <trkpt lat="41.606597000" lon="1.912208000">
        <ele>340.00</ele>
        <time>2013-07-24T09:22:59Z</time>
      </trkpt>
      <trkpt lat="41.606730000" lon="1.912116000">
        <ele>341.10</ele>
        <time>2013-07-24T09:23:12Z</time>
      </trkpt>
      <trkpt lat="41.606867000" lon="1.911970000">
        <ele>342.90</ele>
        <time>2013-07-24T09:23:21Z</time>
      </trkpt>
      <trkpt lat="41.607078000" lon="1.912010000">
        <ele>346.70</ele>
        <time>2013-07-24T09:23:43Z</time>
      </trkpt>
      <trkpt lat="41.607258000" lon="1.911950000">
        <ele>349.70</ele>
        <time>2013-07-24T09:24:16Z</time>
      </trkpt>
      <trkpt lat="41.607457000" lon="1.911970000">
        <ele>350.70</ele>
        <time>2013-07-24T09:24:26Z</time>
      </trkpt>
      <trkpt lat="41.607549000" lon="1.911757000">
        <ele>351.70</ele>
        <time>2013-07-24T09:24:35Z</time>
      </trkpt>
      <trkpt lat="41.607558000" lon="1.911555000">
        <ele>349.80</ele>
        <time>2013-07-24T09:24:43Z</time>
      </trkpt>
      <trkpt lat="41.607454000" lon="1.911305000">
        <ele>346.40</ele>
        <time>2013-07-24T09:24:50Z</time>
      </trkpt>
      <trkpt lat="41.607388000" lon="1.911076000">
        <ele>343.50</ele>
        <time>2013-07-24T09:24:54Z</time>
      </trkpt>
      <trkpt lat="41.607343000" lon="1.910797000">
        <ele>341.00</ele>
        <time>2013-07-24T09:24:58Z</time>
      </trkpt>
      <trkpt lat="41.607260000" lon="1.910521000">
        <ele>338.20</ele>
        <time>2013-07-24T09:25:02Z</time>
      </trkpt>
      <trkpt lat="41.607140000" lon="1.910341000">
        <ele>336.60</ele>
        <time>2013-07-24T09:25:05Z</time>
      </trkpt>
      <trkpt lat="41.607022000" lon="1.910122000">
        <ele>333.50</ele>
        <time>2013-07-24T09:25:08Z</time>
      </trkpt>
      <trkpt lat="41.606877000" lon="1.909916000">
        <ele>331.10</ele>
        <time>2013-07-24T09:25:11Z</time>
      </trkpt>
      <trkpt lat="41.606780000" lon="1.909681000">
        <ele>328.30</ele>
        <time>2013-07-24T09:25:14Z</time>
      </trkpt>
      <trkpt lat="41.606685000" lon="1.909370000">
        <ele>327.60</ele>
        <time>2013-07-24T09:25:18Z</time>
      </trkpt>
      <trkpt lat="41.606674000" lon="1.909052000">
        <ele>325.60</ele>
        <time>2013-07-24T09:25:22Z</time>
      </trkpt>
      <trkpt lat="41.606622000" lon="1.908819000">
        <ele>323.90</ele>
        <time>2013-07-24T09:25:25Z</time>
      </trkpt>
      <trkpt lat="41.606629000" lon="1.908529000">
        <ele>322.00</ele>
        <time>2013-07-24T09:25:29Z</time>
      </trkpt>
      <trkpt lat="41.606778000" lon="1.908307000">
        <ele>320.90</ele>
        <time>2013-07-24T09:25:33Z</time>
      </trkpt>
      <trkpt lat="41.606760000" lon="1.908045000">
        <ele>319.00</ele>
        <time>2013-07-24T09:25:37Z</time>
      </trkpt>
      <trkpt lat="41.606678000" lon="1.907762000">
        <ele>318.90</ele>
        <time>2013-07-24T09:25:41Z</time>
      </trkpt>
      <trkpt lat="41.606606000" lon="1.907509000">
        <ele>318.60</ele>
        <time>2013-07-24T09:25:45Z</time>
      </trkpt>
      <trkpt lat="41.606534000" lon="1.907282000">
        <ele>318.10</ele>
        <time>2013-07-24T09:25:49Z</time>
      </trkpt>
      <trkpt lat="41.606456000" lon="1.907051000">
        <ele>317.30</ele>
        <time>2013-07-24T09:25:53Z</time>
      </trkpt>
      <trkpt lat="41.606363000" lon="1.906825000">
        <ele>316.40</ele>
        <time>2013-07-24T09:25:57Z</time>
      </trkpt>
      <trkpt lat="41.606294000" lon="1.906549000">
        <ele>315.20</ele>
        <time>2013-07-24T09:26:01Z</time>
      </trkpt>
      <trkpt lat="41.606229000" lon="1.906262000">
        <ele>314.30</ele>
        <time>2013-07-24T09:26:05Z</time>
      </trkpt>
      <trkpt lat="41.606170000" lon="1.905989000">
        <ele>313.90</ele>
        <time>2013-07-24T09:26:09Z</time>
      </trkpt>
      <trkpt lat="41.606095000" lon="1.905771000">
        <ele>314.00</ele>
        <time>2013-07-24T09:26:13Z</time>
      </trkpt>
      <trkpt lat="41.606021000" lon="1.905538000">
        <ele>314.00</ele>
        <time>2013-07-24T09:26:21Z</time>
      </trkpt>
      <trkpt lat="41.605989000" lon="1.905311000">
        <ele>313.00</ele>
        <time>2013-07-24T09:26:32Z</time>
      </trkpt>
      <trkpt lat="41.605925000" lon="1.905094000">
        <ele>311.50</ele>
        <time>2013-07-24T09:26:43Z</time>
      </trkpt>
      <trkpt lat="41.605840000" lon="1.904885000">
        <ele>310.70</ele>
        <time>2013-07-24T09:26:53Z</time>
      </trkpt>
      <trkpt lat="41.605715000" lon="1.904704000">
        <ele>310.90</ele>
        <time>2013-07-24T09:27:04Z</time>
      </trkpt>
      <trkpt lat="41.605794000" lon="1.904467000">
        <ele>310.40</ele>
        <time>2013-07-24T09:27:15Z</time>
      </trkpt>
      <trkpt lat="41.605933000" lon="1.904336000">
        <ele>309.50</ele>
        <time>2013-07-24T09:27:25Z</time>
      </trkpt>
      <trkpt lat="41.606060000" lon="1.904184000">
        <ele>309.40</ele>
        <time>2013-07-24T09:27:36Z</time>
      </trkpt>
      <trkpt lat="41.606119000" lon="1.903943000">
        <ele>310.10</ele>
        <time>2013-07-24T09:27:49Z</time>
      </trkpt>
      <trkpt lat="41.606192000" lon="1.903721000">
        <ele>310.00</ele>
        <time>2013-07-24T09:28:03Z</time>
      </trkpt>
      <trkpt lat="41.606273000" lon="1.903501000">
        <ele>310.20</ele>
        <time>2013-07-24T09:28:16Z</time>
      </trkpt>
      <trkpt lat="41.606329000" lon="1.903259000">
        <ele>310.40</ele>
        <time>2013-07-24T09:28:28Z</time>
      </trkpt>
      <trkpt lat="41.606430000" lon="1.903038000">
        <ele>310.70</ele>
        <time>2013-07-24T09:28:41Z</time>
      </trkpt>
      <trkpt lat="41.606468000" lon="1.902796000">
        <ele>311.60</ele>
        <time>2013-07-24T09:28:54Z</time>
      </trkpt>
      <trkpt lat="41.606465000" lon="1.902536000">
        <ele>312.00</ele>
        <time>2013-07-24T09:29:06Z</time>
      </trkpt>
      <trkpt lat="41.606443000" lon="1.902279000">
        <ele>313.30</ele>
        <time>2013-07-24T09:29:16Z</time>
      </trkpt>
      <trkpt lat="41.606446000" lon="1.902011000">
        <ele>314.00</ele>
        <time>2013-07-24T09:29:24Z</time>
      </trkpt>
      <trkpt lat="41.606455000" lon="1.901765000">
        <ele>314.70</ele>
        <time>2013-07-24T09:29:33Z</time>
      </trkpt>
      <trkpt lat="41.606521000" lon="1.901548000">
        <ele>315.80</ele>
        <time>2013-07-24T09:29:40Z</time>
      </trkpt>
      <trkpt lat="41.606657000" lon="1.901317000">
        <ele>314.80</ele>
        <time>2013-07-24T09:29:46Z</time>
      </trkpt>
      <trkpt lat="41.606787000" lon="1.901087000">
        <ele>313.70</ele>
        <time>2013-07-24T09:29:50Z</time>
      </trkpt>
      <trkpt lat="41.606905000" lon="1.900895000">
        <ele>312.90</ele>
        <time>2013-07-24T09:29:53Z</time>
      </trkpt>
      <trkpt lat="41.607050000" lon="1.900696000">
        <ele>311.20</ele>
        <time>2013-07-24T09:29:56Z</time>
      </trkpt>
      <trkpt lat="41.607266000" lon="1.900648000">
        <ele>310.10</ele>
        <time>2013-07-24T09:29:59Z</time>
      </trkpt>
      <trkpt lat="41.607491000" lon="1.900700000">
        <ele>309.50</ele>
        <time>2013-07-24T09:30:02Z</time>
      </trkpt>
      <trkpt lat="41.607722000" lon="1.900735000">
        <ele>308.50</ele>
        <time>2013-07-24T09:30:05Z</time>
      </trkpt>
      <trkpt lat="41.607969000" lon="1.900704000">
        <ele>307.00</ele>
        <time>2013-07-24T09:30:08Z</time>
      </trkpt>
      <trkpt lat="41.608219000" lon="1.900642000">
        <ele>306.00</ele>
        <time>2013-07-24T09:30:11Z</time>
      </trkpt>
      <trkpt lat="41.608375000" lon="1.900415000">
        <ele>304.90</ele>
        <time>2013-07-24T09:30:14Z</time>
      </trkpt>
      <trkpt lat="41.608318000" lon="1.900104000">
        <ele>304.00</ele>
        <time>2013-07-24T09:30:17Z</time>
      </trkpt>
      <trkpt lat="41.608194000" lon="1.899835000">
        <ele>303.80</ele>
        <time>2013-07-24T09:30:20Z</time>
      </trkpt>
      <trkpt lat="41.608113000" lon="1.899537000">
        <ele>302.80</ele>
        <time>2013-07-24T09:30:23Z</time>
      </trkpt>
      <trkpt lat="41.608120000" lon="1.899206000">
        <ele>301.90</ele>
        <time>2013-07-24T09:30:26Z</time>
      </trkpt>
      <trkpt lat="41.608143000" lon="1.898880000">
        <ele>301.30</ele>
        <time>2013-07-24T09:30:29Z</time>
      </trkpt>
      <trkpt lat="41.608136000" lon="1.898560000">
        <ele>301.00</ele>
        <time>2013-07-24T09:30:32Z</time>
      </trkpt>
      <trkpt lat="41.608112000" lon="1.898263000">
        <ele>299.90</ele>
        <time>2013-07-24T09:30:35Z</time>
      </trkpt>
      <trkpt lat="41.608135000" lon="1.897975000">
        <ele>299.80</ele>
        <time>2013-07-24T09:30:38Z</time>
      </trkpt>
      <trkpt lat="41.608223000" lon="1.897702000">
        <ele>299.30</ele>
        <time>2013-07-24T09:30:41Z</time>
      </trkpt>
      <trkpt lat="41.608330000" lon="1.897436000">
        <ele>298.40</ele>
        <time>2013-07-24T09:30:44Z</time>
      </trkpt>
      <trkpt lat="41.608439000" lon="1.897149000">
        <ele>296.00</ele>
        <time>2013-07-24T09:30:47Z</time>
      </trkpt>
      <trkpt lat="41.608560000" lon="1.896845000">
        <ele>294.00</ele>
        <time>2013-07-24T09:30:50Z</time>
      </trkpt>
      <trkpt lat="41.608646000" lon="1.896625000">
        <ele>292.40</ele>
        <time>2013-07-24T09:30:52Z</time>
      </trkpt>
      <trkpt lat="41.608777000" lon="1.896445000">
        <ele>290.50</ele>
        <time>2013-07-24T09:30:54Z</time>
      </trkpt>
      <trkpt lat="41.608954000" lon="1.896366000">
        <ele>289.20</ele>
        <time>2013-07-24T09:30:56Z</time>
      </trkpt>
      <trkpt lat="41.609139000" lon="1.896343000">
        <ele>287.70</ele>
        <time>2013-07-24T09:30:58Z</time>
      </trkpt>
      <trkpt lat="41.609340000" lon="1.896307000">
        <ele>285.80</ele>
        <time>2013-07-24T09:31:00Z</time>
      </trkpt>
      <trkpt lat="41.609560000" lon="1.896264000">
        <ele>284.30</ele>
        <time>2013-07-24T09:31:02Z</time>
      </trkpt>
      <trkpt lat="41.609776000" lon="1.896204000">
        <ele>282.60</ele>
        <time>2013-07-24T09:31:04Z</time>
      </trkpt>
      <trkpt lat="41.609997000" lon="1.896143000">
        <ele>281.50</ele>
        <time>2013-07-24T09:31:06Z</time>
      </trkpt>
      <trkpt lat="41.610218000" lon="1.896092000">
        <ele>278.90</ele>
        <time>2013-07-24T09:31:08Z</time>
      </trkpt>
      <trkpt lat="41.610447000" lon="1.896035000">
        <ele>277.10</ele>
        <time>2013-07-24T09:31:10Z</time>
      </trkpt>
      <trkpt lat="41.610663000" lon="1.895970000">
        <ele>276.20</ele>
        <time>2013-07-24T09:31:12Z</time>
      </trkpt>
      <trkpt lat="41.610877000" lon="1.895911000">
        <ele>274.50</ele>
        <time>2013-07-24T09:31:14Z</time>
      </trkpt>
      <trkpt lat="41.611102000" lon="1.895847000">
        <ele>272.60</ele>
        <time>2013-07-24T09:31:16Z</time>
      </trkpt>
      <trkpt lat="41.611297000" lon="1.895762000">
        <ele>272.50</ele>
        <time>2013-07-24T09:31:18Z</time>
      </trkpt>
      <trkpt lat="41.611451000" lon="1.895603000">
        <ele>272.30</ele>
        <time>2013-07-24T09:31:20Z</time>
      </trkpt>
      <trkpt lat="41.611588000" lon="1.895305000">
        <ele>272.70</ele>
        <time>2013-07-24T09:31:23Z</time>
      </trkpt>
      <trkpt lat="41.611781000" lon="1.895106000">
        <ele>270.60</ele>
        <time>2013-07-24T09:31:26Z</time>
      </trkpt>
      <trkpt lat="41.611938000" lon="1.894985000">
        <ele>267.90</ele>
        <time>2013-07-24T09:31:28Z</time>
      </trkpt>
      <trkpt lat="41.612103000" lon="1.894857000">
        <ele>266.40</ele>
        <time>2013-07-24T09:31:30Z</time>
      </trkpt>
      <trkpt lat="41.612282000" lon="1.894752000">
        <ele>264.00</ele>
        <time>2013-07-24T09:31:32Z</time>
      </trkpt>
      <trkpt lat="41.612481000" lon="1.894721000">
        <ele>263.20</ele>
        <time>2013-07-24T09:31:34Z</time>
      </trkpt>
      <trkpt lat="41.612689000" lon="1.894739000">
        <ele>261.20</ele>
        <time>2013-07-24T09:31:36Z</time>
      </trkpt>
      <trkpt lat="41.612899000" lon="1.894759000">
        <ele>259.80</ele>
        <time>2013-07-24T09:31:38Z</time>
      </trkpt>
      <trkpt lat="41.613115000" lon="1.894789000">
        <ele>258.10</ele>
        <time>2013-07-24T09:31:40Z</time>
      </trkpt>
      <trkpt lat="41.613332000" lon="1.894781000">
        <ele>257.50</ele>
        <time>2013-07-24T09:31:42Z</time>
      </trkpt>
      <trkpt lat="41.613527000" lon="1.894697000">
        <ele>255.90</ele>
        <time>2013-07-24T09:31:44Z</time>
      </trkpt>
      <trkpt lat="41.613702000" lon="1.894582000">
        <ele>254.30</ele>
        <time>2013-07-24T09:31:46Z</time>
      </trkpt>
      <trkpt lat="41.613938000" lon="1.894506000">
        <ele>253.60</ele>
        <time>2013-07-24T09:31:49Z</time>
      </trkpt>
      <trkpt lat="41.614100000" lon="1.894722000">
        <ele>252.50</ele>
        <time>2013-07-24T09:31:52Z</time>
      </trkpt>
      <trkpt lat="41.614053000" lon="1.895037000">
        <ele>251.70</ele>
        <time>2013-07-24T09:31:55Z</time>
      </trkpt>
      <trkpt lat="41.613964000" lon="1.895332000">
        <ele>250.50</ele>
        <time>2013-07-24T09:31:58Z</time>
      </trkpt>
      <trkpt lat="41.614029000" lon="1.895606000">
        <ele>250.90</ele>
        <time>2013-07-24T09:32:01Z</time>
      </trkpt>
      <trkpt lat="41.614225000" lon="1.895641000">
        <ele>250.50</ele>
        <time>2013-07-24T09:32:04Z</time>
      </trkpt>
      <trkpt lat="41.614383000" lon="1.895452000">
        <ele>249.60</ele>
        <time>2013-07-24T09:32:07Z</time>
      </trkpt>
      <trkpt lat="41.614562000" lon="1.895278000">
        <ele>249.00</ele>
        <time>2013-07-24T09:32:10Z</time>
      </trkpt>
      <trkpt lat="41.614769000" lon="1.895123000">
        <ele>247.80</ele>
        <time>2013-07-24T09:32:13Z</time>
      </trkpt>
      <trkpt lat="41.615003000" lon="1.895042000">
        <ele>246.60</ele>
        <time>2013-07-24T09:32:16Z</time>
      </trkpt>
      <trkpt lat="41.615232000" lon="1.894909000">
        <ele>245.00</ele>
        <time>2013-07-24T09:32:19Z</time>
      </trkpt>
      <trkpt lat="41.615303000" lon="1.894605000">
        <ele>244.20</ele>
        <time>2013-07-24T09:32:22Z</time>
      </trkpt>
      <trkpt lat="41.615307000" lon="1.894299000">
        <ele>244.10</ele>
        <time>2013-07-24T09:32:25Z</time>
      </trkpt>
      <trkpt lat="41.615287000" lon="1.894012000">
        <ele>244.30</ele>
        <time>2013-07-24T09:32:28Z</time>
      </trkpt>
      <trkpt lat="41.615217000" lon="1.893755000">
        <ele>244.20</ele>
        <time>2013-07-24T09:32:31Z</time>
      </trkpt>
      <trkpt lat="41.615123000" lon="1.893499000">
        <ele>244.00</ele>
        <time>2013-07-24T09:32:34Z</time>
      </trkpt>
      <trkpt lat="41.615030000" lon="1.893263000">
        <ele>244.00</ele>
        <time>2013-07-24T09:32:37Z</time>
      </trkpt>
      <trkpt lat="41.614956000" lon="1.893022000">
        <ele>243.60</ele>
        <time>2013-07-24T09:32:40Z</time>
      </trkpt>
      <trkpt lat="41.614928000" lon="1.892792000">
        <ele>243.40</ele>
        <time>2013-07-24T09:32:43Z</time>
      </trkpt>
      <trkpt lat="41.614896000" lon="1.892459000">
        <ele>242.80</ele>
        <time>2013-07-24T09:32:47Z</time>
      </trkpt>
      <trkpt lat="41.614884000" lon="1.892206000">
        <ele>242.70</ele>
        <time>2013-07-24T09:32:50Z</time>
      </trkpt>
      <trkpt lat="41.614853000" lon="1.891950000">
        <ele>242.10</ele>
        <time>2013-07-24T09:32:53Z</time>
      </trkpt>
      <trkpt lat="41.614839000" lon="1.891705000">
        <ele>241.10</ele>
        <time>2013-07-24T09:32:56Z</time>
      </trkpt>
      <trkpt lat="41.614889000" lon="1.891452000">
        <ele>240.70</ele>
        <time>2013-07-24T09:32:59Z</time>
      </trkpt>
      <trkpt lat="41.615016000" lon="1.891223000">
        <ele>239.00</ele>
        <time>2013-07-24T09:33:02Z</time>
      </trkpt>
      <trkpt lat="41.615182000" lon="1.891039000">
        <ele>237.50</ele>
        <time>2013-07-24T09:33:05Z</time>
      </trkpt>
      <trkpt lat="41.615428000" lon="1.891106000">
        <ele>235.60</ele>
        <time>2013-07-24T09:33:09Z</time>
      </trkpt>
      <trkpt lat="41.615610000" lon="1.891267000">
        <ele>234.40</ele>
        <time>2013-07-24T09:33:12Z</time>
      </trkpt>
      <trkpt lat="41.615801000" lon="1.891439000">
        <ele>233.90</ele>
        <time>2013-07-24T09:33:15Z</time>
      </trkpt>
      <trkpt lat="41.615960000" lon="1.891642000">
        <ele>233.30</ele>
        <time>2013-07-24T09:33:18Z</time>
      </trkpt>
      <trkpt lat="41.616069000" lon="1.891851000">
        <ele>233.80</ele>
        <time>2013-07-24T09:33:21Z</time>
      </trkpt>
      <trkpt lat="41.616207000" lon="1.892114000">
        <ele>233.70</ele>
        <time>2013-07-24T09:33:25Z</time>
      </trkpt>
      <trkpt lat="41.616342000" lon="1.892347000">
        <ele>234.10</ele>
        <time>2013-07-24T09:33:29Z</time>
      </trkpt>
      <trkpt lat="41.616524000" lon="1.892524000">
        <ele>233.20</ele>
        <time>2013-07-24T09:33:33Z</time>
      </trkpt>
      <trkpt lat="41.616741000" lon="1.892436000">
        <ele>232.90</ele>
        <time>2013-07-24T09:33:37Z</time>
      </trkpt>
      <trkpt lat="41.616819000" lon="1.892158000">
        <ele>232.50</ele>
        <time>2013-07-24T09:33:41Z</time>
      </trkpt>
      <trkpt lat="41.616712000" lon="1.891913000">
        <ele>233.10</ele>
        <time>2013-07-24T09:33:45Z</time>
      </trkpt>
      <trkpt lat="41.616600000" lon="1.891716000">
        <ele>233.30</ele>
        <time>2013-07-24T09:33:49Z</time>
      </trkpt>
      <trkpt lat="41.616462000" lon="1.891479000">
        <ele>233.20</ele>
        <time>2013-07-24T09:33:54Z</time>
      </trkpt>
      <trkpt lat="41.616352000" lon="1.891251000">
        <ele>233.50</ele>
        <time>2013-07-24T09:33:59Z</time>
      </trkpt>
      <trkpt lat="41.616241000" lon="1.891027000">
        <ele>233.40</ele>
        <time>2013-07-24T09:34:05Z</time>
      </trkpt>
      <trkpt lat="41.616175000" lon="1.890780000">
        <ele>233.00</ele>
        <time>2013-07-24T09:34:12Z</time>
      </trkpt>
      <trkpt lat="41.616329000" lon="1.890616000">
        <ele>233.20</ele>
        <time>2013-07-24T09:34:28Z</time>
      </trkpt>
      <trkpt lat="41.616490000" lon="1.890491000">
        <ele>235.00</ele>
        <time>2013-07-24T09:34:35Z</time>
      </trkpt>
      <trkpt lat="41.616634000" lon="1.890371000">
        <ele>236.50</ele>
        <time>2013-07-24T09:34:45Z</time>
      </trkpt>
      <trkpt lat="41.616800000" lon="1.890336000">
        <ele>237.60</ele>
        <time>2013-07-24T09:34:53Z</time>
      </trkpt>
      <trkpt lat="41.616991000" lon="1.890347000">
        <ele>237.50</ele>
        <time>2013-07-24T09:35:01Z</time>
      </trkpt>
      <trkpt lat="41.617092000" lon="1.890134000">
        <ele>238.00</ele>
        <time>2013-07-24T09:35:14Z</time>
      </trkpt>
      <trkpt lat="41.617283000" lon="1.890066000">
        <ele>239.10</ele>
        <time>2013-07-24T09:35:22Z</time>
      </trkpt>
      <trkpt lat="41.617470000" lon="1.890017000">
        <ele>240.20</ele>
        <time>2013-07-24T09:35:31Z</time>
      </trkpt>
      <trkpt lat="41.617609000" lon="1.889864000">
        <ele>240.60</ele>
        <time>2013-07-24T09:35:38Z</time>
      </trkpt>
      <trkpt lat="41.617724000" lon="1.889665000">
        <ele>243.60</ele>
        <time>2013-07-24T09:35:46Z</time>
      </trkpt>
      <trkpt lat="41.617864000" lon="1.889499000">
        <ele>244.90</ele>
        <time>2013-07-24T09:35:55Z</time>
      </trkpt>
      <trkpt lat="41.618055000" lon="1.889428000">
        <ele>245.90</ele>
        <time>2013-07-24T09:36:04Z</time>
      </trkpt>
      <trkpt lat="41.618223000" lon="1.889335000">
        <ele>246.60</ele>
        <time>2013-07-24T09:36:12Z</time>
      </trkpt>
      <trkpt lat="41.618400000" lon="1.889230000">
        <ele>247.20</ele>
        <time>2013-07-24T09:36:20Z</time>
      </trkpt>
      <trkpt lat="41.618530000" lon="1.889081000">
        <ele>249.40</ele>
        <time>2013-07-24T09:36:30Z</time>
      </trkpt>
      <trkpt lat="41.618709000" lon="1.889140000">
        <ele>251.60</ele>
        <time>2013-07-24T09:36:50Z</time>
      </trkpt>
      <trkpt lat="41.618884000" lon="1.889130000">
        <ele>253.30</ele>
        <time>2013-07-24T09:36:58Z</time>
      </trkpt>
      <trkpt lat="41.619069000" lon="1.889197000">
        <ele>254.00</ele>
        <time>2013-07-24T09:37:06Z</time>
      </trkpt>
      <trkpt lat="41.619278000" lon="1.889205000">
        <ele>253.40</ele>
        <time>2013-07-24T09:37:13Z</time>
      </trkpt>
      <trkpt lat="41.619453000" lon="1.889220000">
        <ele>254.50</ele>
        <time>2013-07-24T09:37:20Z</time>
      </trkpt>
      <trkpt lat="41.619523000" lon="1.889422000">
        <ele>256.60</ele>
        <time>2013-07-24T09:37:48Z</time>
      </trkpt>
      <trkpt lat="41.619632000" lon="1.889581000">
        <ele>256.50</ele>
        <time>2013-07-24T09:38:02Z</time>
      </trkpt>
      <trkpt lat="41.619781000" lon="1.889651000">
        <ele>256.70</ele>
        <time>2013-07-24T09:38:10Z</time>
      </trkpt>
      <trkpt lat="41.619978000" lon="1.889726000">
        <ele>257.60</ele>
        <time>2013-07-24T09:38:18Z</time>
      </trkpt>
      <trkpt lat="41.620100000" lon="1.889646000">
        <ele>258.00</ele>
        <time>2013-07-24T09:38:27Z</time>
      </trkpt>
      <trkpt lat="41.620128000" lon="1.889395000">
        <ele>258.70</ele>
        <time>2013-07-24T09:38:35Z</time>
      </trkpt>
      <trkpt lat="41.620178000" lon="1.889161000">
        <ele>259.60</ele>
        <time>2013-07-24T09:38:43Z</time>
      </trkpt>
      <trkpt lat="41.620298000" lon="1.888970000">
        <ele>261.80</ele>
        <time>2013-07-24T09:38:52Z</time>
      </trkpt>
      <trkpt lat="41.620478000" lon="1.888858000">
        <ele>262.60</ele>
        <time>2013-07-24T09:39:01Z</time>
      </trkpt>
      <trkpt lat="41.620655000" lon="1.888717000">
        <ele>262.90</ele>
        <time>2013-07-24T09:39:09Z</time>
      </trkpt>
      <trkpt lat="41.620834000" lon="1.888606000">
        <ele>263.10</ele>
        <time>2013-07-24T09:39:17Z</time>
      </trkpt>
      <trkpt lat="41.620949000" lon="1.888419000">
        <ele>263.20</ele>
        <time>2013-07-24T09:39:24Z</time>
      </trkpt>
      <trkpt lat="41.620978000" lon="1.888156000">
        <ele>262.60</ele>
        <time>2013-07-24T09:39:31Z</time>
      </trkpt>
      <trkpt lat="41.621040000" lon="1.887921000">
        <ele>261.90</ele>
        <time>2013-07-24T09:39:36Z</time>
      </trkpt>
      <trkpt lat="41.621176000" lon="1.887715000">
        <ele>261.30</ele>
        <time>2013-07-24T09:39:41Z</time>
      </trkpt>
      <trkpt lat="41.621217000" lon="1.887434000">
        <ele>260.90</ele>
        <time>2013-07-24T09:39:46Z</time>
      </trkpt>
      <trkpt lat="41.621150000" lon="1.887213000">
        <ele>260.50</ele>
        <time>2013-07-24T09:39:51Z</time>
      </trkpt>
      <trkpt lat="41.621113000" lon="1.886946000">
        <ele>260.00</ele>
        <time>2013-07-24T09:39:57Z</time>
      </trkpt>
      <trkpt lat="41.621010000" lon="1.886712000">
        <ele>259.60</ele>
        <time>2013-07-24T09:40:02Z</time>
      </trkpt>
      <trkpt lat="41.620878000" lon="1.886497000">
        <ele>260.00</ele>
        <time>2013-07-24T09:40:07Z</time>
      </trkpt>
      <trkpt lat="41.620723000" lon="1.886287000">
        <ele>258.70</ele>
        <time>2013-07-24T09:40:12Z</time>
      </trkpt>
      <trkpt lat="41.620665000" lon="1.886051000">
        <ele>255.90</ele>
        <time>2013-07-24T09:40:16Z</time>
      </trkpt>
      <trkpt lat="41.620639000" lon="1.885791000">
        <ele>253.40</ele>
        <time>2013-07-24T09:40:19Z</time>
      </trkpt>
      <trkpt lat="41.620599000" lon="1.885512000">
        <ele>250.20</ele>
        <time>2013-07-24T09:40:22Z</time>
      </trkpt>
      <trkpt lat="41.620541000" lon="1.885189000">
        <ele>247.00</ele>
        <time>2013-07-24T09:40:25Z</time>
      </trkpt>
      <trkpt lat="41.620521000" lon="1.884876000">
        <ele>246.80</ele>
        <time>2013-07-24T09:40:28Z</time>
      </trkpt>
      <trkpt lat="41.620543000" lon="1.884577000">
        <ele>247.00</ele>
        <time>2013-07-24T09:40:31Z</time>
      </trkpt>
      <trkpt lat="41.620548000" lon="1.884329000">
        <ele>246.30</ele>
        <time>2013-07-24T09:40:34Z</time>
      </trkpt>
      <trkpt lat="41.620539000" lon="1.884050000">
        <ele>247.80</ele>
        <time>2013-07-24T09:40:38Z</time>
      </trkpt>
      <trkpt lat="41.620556000" lon="1.883770000">
        <ele>245.70</ele>
        <time>2013-07-24T09:40:42Z</time>
      </trkpt>
      <trkpt lat="41.620629000" lon="1.883553000">
        <ele>244.80</ele>
        <time>2013-07-24T09:40:45Z</time>
      </trkpt>
      <trkpt lat="41.620735000" lon="1.883261000">
        <ele>240.70</ele>
        <time>2013-07-24T09:40:49Z</time>
      </trkpt>
      <trkpt lat="41.620856000" lon="1.882969000">
        <ele>238.40</ele>
        <time>2013-07-24T09:40:52Z</time>
      </trkpt>
      <trkpt lat="41.620967000" lon="1.882698000">
        <ele>237.70</ele>
        <time>2013-07-24T09:40:55Z</time>
      </trkpt>
      <trkpt lat="41.620921000" lon="1.882404000">
        <ele>238.50</ele>
        <time>2013-07-24T09:40:59Z</time>
      </trkpt>
      <trkpt lat="41.620831000" lon="1.882142000">
        <ele>239.80</ele>
        <time>2013-07-24T09:41:04Z</time>
      </trkpt>
      <trkpt lat="41.620723000" lon="1.881951000">
        <ele>241.70</ele>
        <time>2013-07-24T09:41:09Z</time>
      </trkpt>
      <trkpt lat="41.620643000" lon="1.881731000">
        <ele>244.00</ele>
        <time>2013-07-24T09:41:15Z</time>
      </trkpt>
      <trkpt lat="41.620684000" lon="1.881491000">
        <ele>242.00</ele>
        <time>2013-07-24T09:41:22Z</time>
      </trkpt>
      <trkpt lat="41.620761000" lon="1.881226000">
        <ele>240.00</ele>
        <time>2013-07-24T09:41:26Z</time>
      </trkpt>
      <trkpt lat="41.620868000" lon="1.880991000">
        <ele>240.40</ele>
        <time>2013-07-24T09:41:30Z</time>
      </trkpt>
      <trkpt lat="41.620991000" lon="1.880766000">
        <ele>243.10</ele>
        <time>2013-07-24T09:41:36Z</time>
      </trkpt>
      <trkpt lat="41.621026000" lon="1.880525000">
        <ele>243.80</ele>
        <time>2013-07-24T09:41:44Z</time>
      </trkpt>
      <trkpt lat="41.621116000" lon="1.880331000">
        <ele>243.40</ele>
        <time>2013-07-24T09:41:50Z</time>
      </trkpt>
      <trkpt lat="41.621222000" lon="1.880118000">
        <ele>243.90</ele>
        <time>2013-07-24T09:41:56Z</time>
      </trkpt>
      <trkpt lat="41.621321000" lon="1.879890000">
        <ele>245.60</ele>
        <time>2013-07-24T09:42:03Z</time>
      </trkpt>
      <trkpt lat="41.621414000" lon="1.879676000">
        <ele>248.00</ele>
        <time>2013-07-24T09:42:11Z</time>
      </trkpt>
      <trkpt lat="41.621524000" lon="1.879482000">
        <ele>250.00</ele>
        <time>2013-07-24T09:42:19Z</time>
      </trkpt>
      <trkpt lat="41.621657000" lon="1.879301000">
        <ele>250.90</ele>
        <time>2013-07-24T09:42:27Z</time>
      </trkpt>
      <trkpt lat="41.621848000" lon="1.879192000">
        <ele>251.40</ele>
        <time>2013-07-24T09:42:34Z</time>
      </trkpt>
      <trkpt lat="41.621982000" lon="1.879051000">
        <ele>252.00</ele>
        <time>2013-07-24T09:42:40Z</time>
      </trkpt>
      <trkpt lat="41.622123000" lon="1.878889000">
        <ele>253.40</ele>
        <time>2013-07-24T09:42:47Z</time>
      </trkpt>
      <trkpt lat="41.622255000" lon="1.878704000">
        <ele>254.60</ele>
        <time>2013-07-24T09:42:54Z</time>
      </trkpt>
      <trkpt lat="41.622398000" lon="1.878544000">
        <ele>255.50</ele>
        <time>2013-07-24T09:43:01Z</time>
      </trkpt>
      <trkpt lat="41.622556000" lon="1.878403000">
        <ele>258.20</ele>
        <time>2013-07-24T09:43:09Z</time>
      </trkpt>
      <trkpt lat="41.622493000" lon="1.878225000">
        <ele>260.00</ele>
        <time>2013-07-24T09:43:18Z</time>
      </trkpt>
      <trkpt lat="41.622301000" lon="1.878283000">
        <ele>261.50</ele>
        <time>2013-07-24T09:43:27Z</time>
      </trkpt>
      <trkpt lat="41.622146000" lon="1.878381000">
        <ele>262.50</ele>
        <time>2013-07-24T09:43:35Z</time>
      </trkpt>
      <trkpt lat="41.622004000" lon="1.878529000">
        <ele>263.80</ele>
        <time>2013-07-24T09:43:43Z</time>
      </trkpt>
      <trkpt lat="41.621912000" lon="1.878351000">
        <ele>267.10</ele>
        <time>2013-07-24T09:43:52Z</time>
      </trkpt>
      <trkpt lat="41.621997000" lon="1.878123000">
        <ele>270.70</ele>
        <time>2013-07-24T09:44:02Z</time>
      </trkpt>
      <trkpt lat="41.622055000" lon="1.877871000">
        <ele>273.50</ele>
        <time>2013-07-24T09:44:12Z</time>
      </trkpt>
      <trkpt lat="41.622040000" lon="1.877601000">
        <ele>276.60</ele>
        <time>2013-07-24T09:44:23Z</time>
      </trkpt>
      <trkpt lat="41.621948000" lon="1.877384000">
        <ele>276.80</ele>
        <time>2013-07-24T09:44:32Z</time>
      </trkpt>
      <trkpt lat="41.621904000" lon="1.877113000">
        <ele>275.20</ele>
        <time>2013-07-24T09:44:39Z</time>
      </trkpt>
      <trkpt lat="41.621818000" lon="1.876874000">
        <ele>274.20</ele>
        <time>2013-07-24T09:44:44Z</time>
      </trkpt>
      <trkpt lat="41.621725000" lon="1.876607000">
        <ele>272.80</ele>
        <time>2013-07-24T09:44:49Z</time>
      </trkpt>
      <trkpt lat="41.621776000" lon="1.876371000">
        <ele>272.80</ele>
        <time>2013-07-24T09:44:53Z</time>
      </trkpt>
      <trkpt lat="41.621893000" lon="1.876140000">
        <ele>274.70</ele>
        <time>2013-07-24T09:44:58Z</time>
      </trkpt>
      <trkpt lat="41.621942000" lon="1.875886000">
        <ele>276.60</ele>
        <time>2013-07-24T09:45:04Z</time>
      </trkpt>
      <trkpt lat="41.621968000" lon="1.875626000">
        <ele>277.80</ele>
        <time>2013-07-24T09:45:10Z</time>
      </trkpt>
      <trkpt lat="41.621973000" lon="1.875380000">
        <ele>278.40</ele>
        <time>2013-07-24T09:45:17Z</time>
      </trkpt>
      <trkpt lat="41.621987000" lon="1.875121000">
        <ele>278.50</ele>
        <time>2013-07-24T09:45:24Z</time>
      </trkpt>
      <trkpt lat="41.622026000" lon="1.874876000">
        <ele>280.20</ele>
        <time>2013-07-24T09:45:30Z</time>
      </trkpt>
      <trkpt lat="41.622021000" lon="1.874625000">
        <ele>280.60</ele>
        <time>2013-07-24T09:45:37Z</time>
      </trkpt>
      <trkpt lat="41.621935000" lon="1.874380000">
        <ele>279.70</ele>
        <time>2013-07-24T09:45:44Z</time>
      </trkpt>
      <trkpt lat="41.621897000" lon="1.874137000">
        <ele>279.10</ele>
        <time>2013-07-24T09:45:49Z</time>
      </trkpt>
      <trkpt lat="41.622015000" lon="1.873907000">
        <ele>278.40</ele>
        <time>2013-07-24T09:45:55Z</time>
      </trkpt>
      <trkpt lat="41.622187000" lon="1.873740000">
        <ele>277.20</ele>
        <time>2013-07-24T09:46:00Z</time>
      </trkpt>
      <trkpt lat="41.622345000" lon="1.873624000">
        <ele>277.00</ele>
        <time>2013-07-24T09:46:04Z</time>
      </trkpt>
      <trkpt lat="41.622555000" lon="1.873585000">
        <ele>278.30</ele>
        <time>2013-07-24T09:46:09Z</time>
      </trkpt>
      <trkpt lat="41.622726000" lon="1.873684000">
        <ele>279.20</ele>
        <time>2013-07-24T09:46:14Z</time>
      </trkpt>
      <trkpt lat="41.622910000" lon="1.873850000">
        <ele>279.30</ele>
        <time>2013-07-24T09:46:20Z</time>
      </trkpt>
      <trkpt lat="41.623084000" lon="1.873972000">
        <ele>279.50</ele>
        <time>2013-07-24T09:46:25Z</time>
      </trkpt>
      <trkpt lat="41.623233000" lon="1.874137000">
        <ele>279.40</ele>
        <time>2013-07-24T09:46:30Z</time>
      </trkpt>
      <trkpt lat="41.623376000" lon="1.874324000">
        <ele>279.00</ele>
        <time>2013-07-24T09:46:35Z</time>
      </trkpt>
      <trkpt lat="41.623526000" lon="1.874472000">
        <ele>278.30</ele>
        <time>2013-07-24T09:46:39Z</time>
      </trkpt>
      <trkpt lat="41.623673000" lon="1.874652000">
        <ele>280.30</ele>
        <time>2013-07-24T09:46:44Z</time>
      </trkpt>
      <trkpt lat="41.623843000" lon="1.874740000">
        <ele>283.40</ele>
        <time>2013-07-24T09:46:50Z</time>
      </trkpt>
      <trkpt lat="41.624052000" lon="1.874736000">
        <ele>285.20</ele>
        <time>2013-07-24T09:46:57Z</time>
      </trkpt>
      <trkpt lat="41.624256000" lon="1.874773000">
        <ele>283.10</ele>
        <time>2013-07-24T09:47:03Z</time>
      </trkpt>
      <trkpt lat="41.624444000" lon="1.874782000">
        <ele>283.20</ele>
        <time>2013-07-24T09:47:07Z</time>
      </trkpt>
      <trkpt lat="41.624533000" lon="1.874597000">
        <ele>282.40</ele>
        <time>2013-07-24T09:47:11Z</time>
      </trkpt>
      <trkpt lat="41.624556000" lon="1.874300000">
        <ele>281.60</ele>
        <time>2013-07-24T09:47:16Z</time>
      </trkpt>
      <trkpt lat="41.624659000" lon="1.874083000">
        <ele>280.40</ele>
        <time>2013-07-24T09:47:20Z</time>
      </trkpt>
      <trkpt lat="41.624827000" lon="1.874071000">
        <ele>280.30</ele>
        <time>2013-07-24T09:47:24Z</time>
      </trkpt>
      <trkpt lat="41.624944000" lon="1.874275000">
        <ele>279.50</ele>
        <time>2013-07-24T09:47:28Z</time>
      </trkpt>
      <trkpt lat="41.625121000" lon="1.874461000">
        <ele>278.00</ele>
        <time>2013-07-24T09:47:32Z</time>
      </trkpt>
      <trkpt lat="41.625337000" lon="1.874429000">
        <ele>277.70</ele>
        <time>2013-07-24T09:47:36Z</time>
      </trkpt>
      <trkpt lat="41.625541000" lon="1.874256000">
        <ele>275.20</ele>
        <time>2013-07-24T09:47:40Z</time>
      </trkpt>
      <trkpt lat="41.625727000" lon="1.874169000">
        <ele>274.80</ele>
        <time>2013-07-24T09:47:43Z</time>
      </trkpt>
      <trkpt lat="41.625918000" lon="1.874164000">
        <ele>273.80</ele>
        <time>2013-07-24T09:47:46Z</time>
      </trkpt>
      <trkpt lat="41.626102000" lon="1.874327000">
        <ele>275.30</ele>
        <time>2013-07-24T09:47:50Z</time>
      </trkpt>
      <trkpt lat="41.626226000" lon="1.874535000">
        <ele>276.30</ele>
        <time>2013-07-24T09:47:55Z</time>
      </trkpt>
      <trkpt lat="41.626439000" lon="1.874663000">
        <ele>274.60</ele>
        <time>2013-07-24T09:48:00Z</time>
      </trkpt>
      <trkpt lat="41.626615000" lon="1.874798000">
        <ele>274.20</ele>
        <time>2013-07-24T09:48:04Z</time>
      </trkpt>
      <trkpt lat="41.626807000" lon="1.874837000">
        <ele>274.10</ele>
        <time>2013-07-24T09:48:08Z</time>
      </trkpt>
      <trkpt lat="41.626999000" lon="1.874707000">
        <ele>272.30</ele>
        <time>2013-07-24T09:48:12Z</time>
      </trkpt>
      <trkpt lat="41.627106000" lon="1.874492000">
        <ele>270.80</ele>
        <time>2013-07-24T09:48:15Z</time>
      </trkpt>
      <trkpt lat="41.627239000" lon="1.874305000">
        <ele>269.40</ele>
        <time>2013-07-24T09:48:18Z</time>
      </trkpt>
      <trkpt lat="41.627450000" lon="1.874270000">
        <ele>269.70</ele>
        <time>2013-07-24T09:48:22Z</time>
      </trkpt>
      <trkpt lat="41.627625000" lon="1.874272000">
        <ele>270.60</ele>
        <time>2013-07-24T09:48:26Z</time>
      </trkpt>
      <trkpt lat="41.627751000" lon="1.874060000">
        <ele>271.10</ele>
        <time>2013-07-24T09:48:31Z</time>
      </trkpt>
      <trkpt lat="41.627807000" lon="1.873830000">
        <ele>269.90</ele>
        <time>2013-07-24T09:48:35Z</time>
      </trkpt>
      <trkpt lat="41.627867000" lon="1.873579000">
        <ele>269.50</ele>
        <time>2013-07-24T09:48:39Z</time>
      </trkpt>
      <trkpt lat="41.627928000" lon="1.873319000">
        <ele>268.80</ele>
        <time>2013-07-24T09:48:43Z</time>
      </trkpt>
      <trkpt lat="41.627963000" lon="1.873045000">
        <ele>268.10</ele>
        <time>2013-07-24T09:48:47Z</time>
      </trkpt>
      <trkpt lat="41.628106000" lon="1.872863000">
        <ele>267.60</ele>
        <time>2013-07-24T09:48:51Z</time>
      </trkpt>
      <trkpt lat="41.628294000" lon="1.872916000">
        <ele>267.50</ele>
        <time>2013-07-24T09:48:55Z</time>
      </trkpt>
      <trkpt lat="41.628459000" lon="1.873089000">
        <ele>267.70</ele>
        <time>2013-07-24T09:48:59Z</time>
      </trkpt>
      <trkpt lat="41.628576000" lon="1.873325000">
        <ele>267.10</ele>
        <time>2013-07-24T09:49:03Z</time>
      </trkpt>
      <trkpt lat="41.628613000" lon="1.873601000">
        <ele>267.00</ele>
        <time>2013-07-24T09:49:07Z</time>
      </trkpt>
      <trkpt lat="41.628697000" lon="1.873810000">
        <ele>266.90</ele>
        <time>2013-07-24T09:49:14Z</time>
      </trkpt>
      <trkpt lat="41.628906000" lon="1.873851000">
        <ele>265.40</ele>
        <time>2013-07-24T09:49:22Z</time>
      </trkpt>
      <trkpt lat="41.629061000" lon="1.873725000">
        <ele>264.60</ele>
        <time>2013-07-24T09:49:27Z</time>
      </trkpt>
      <trkpt lat="41.629141000" lon="1.873451000">
        <ele>264.50</ele>
        <time>2013-07-24T09:49:32Z</time>
      </trkpt>
      <trkpt lat="41.629135000" lon="1.873154000">
        <ele>262.60</ele>
        <time>2013-07-24T09:49:37Z</time>
      </trkpt>
      <trkpt lat="41.629194000" lon="1.872895000">
        <ele>260.90</ele>
        <time>2013-07-24T09:49:42Z</time>
      </trkpt>
      <trkpt lat="41.629253000" lon="1.872659000">
        <ele>259.70</ele>
        <time>2013-07-24T09:49:46Z</time>
      </trkpt>
      <trkpt lat="41.629275000" lon="1.872407000">
        <ele>259.40</ele>
        <time>2013-07-24T09:49:50Z</time>
      </trkpt>
      <trkpt lat="41.629283000" lon="1.872149000">
        <ele>259.10</ele>
        <time>2013-07-24T09:49:54Z</time>
      </trkpt>
      <trkpt lat="41.629308000" lon="1.871917000">
        <ele>258.90</ele>
        <time>2013-07-24T09:49:58Z</time>
      </trkpt>
      <trkpt lat="41.629241000" lon="1.871654000">
        <ele>258.90</ele>
        <time>2013-07-24T09:50:03Z</time>
      </trkpt>
      <trkpt lat="41.629263000" lon="1.871448000">
        <ele>259.90</ele>
        <time>2013-07-24T09:50:11Z</time>
      </trkpt>
      <trkpt lat="41.629453000" lon="1.871375000">
        <ele>259.80</ele>
        <time>2013-07-24T09:50:20Z</time>
      </trkpt>
      <trkpt lat="41.629621000" lon="1.871233000">
        <ele>258.00</ele>
        <time>2013-07-24T09:50:28Z</time>
      </trkpt>
      <trkpt lat="41.629824000" lon="1.871103000">
        <ele>255.20</ele>
        <time>2013-07-24T09:50:33Z</time>
      </trkpt>
      <trkpt lat="41.630007000" lon="1.870995000">
        <ele>252.70</ele>
        <time>2013-07-24T09:50:36Z</time>
      </trkpt>
      <trkpt lat="41.630239000" lon="1.870876000">
        <ele>248.10</ele>
        <time>2013-07-24T09:50:39Z</time>
      </trkpt>
      <trkpt lat="41.630401000" lon="1.870734000">
        <ele>246.40</ele>
        <time>2013-07-24T09:50:41Z</time>
      </trkpt>
      <trkpt lat="41.630573000" lon="1.870581000">
        <ele>242.60</ele>
        <time>2013-07-24T09:50:43Z</time>
      </trkpt>
      <trkpt lat="41.630742000" lon="1.870425000">
        <ele>242.60</ele>
        <time>2013-07-24T09:50:45Z</time>
      </trkpt>
      <trkpt lat="41.630904000" lon="1.870319000">
        <ele>243.00</ele>
        <time>2013-07-24T09:50:47Z</time>
      </trkpt>
      <trkpt lat="41.631133000" lon="1.870283000">
        <ele>246.20</ele>
        <time>2013-07-24T09:50:50Z</time>
      </trkpt>
      <trkpt lat="41.631335000" lon="1.870163000">
        <ele>248.30</ele>
        <time>2013-07-24T09:50:54Z</time>
      </trkpt>
      <trkpt lat="41.631442000" lon="1.869979000">
        <ele>249.60</ele>
        <time>2013-07-24T09:50:58Z</time>
      </trkpt>
      <trkpt lat="41.631551000" lon="1.869745000">
        <ele>249.90</ele>
        <time>2013-07-24T09:51:03Z</time>
      </trkpt>
      <trkpt lat="41.631775000" lon="1.869666000">
        <ele>248.70</ele>
        <time>2013-07-24T09:51:08Z</time>
      </trkpt>
      <trkpt lat="41.632010000" lon="1.869623000">
        <ele>246.90</ele>
        <time>2013-07-24T09:51:12Z</time>
      </trkpt>
      <trkpt lat="41.632225000" lon="1.869614000">
        <ele>244.20</ele>
        <time>2013-07-24T09:51:15Z</time>
      </trkpt>
      <trkpt lat="41.632449000" lon="1.869629000">
        <ele>242.70</ele>
        <time>2013-07-24T09:51:18Z</time>
      </trkpt>
      <trkpt lat="41.632609000" lon="1.869726000">
        <ele>242.40</ele>
        <time>2013-07-24T09:51:21Z</time>
      </trkpt>
      <trkpt lat="41.632707000" lon="1.869946000">
        <ele>242.00</ele>
        <time>2013-07-24T09:51:53Z</time>
      </trkpt>
      <trkpt lat="41.632703000" lon="1.870050000">
        <ele>241.00</ele>
        <time>2013-07-24T09:52:23Z</time>
      </trkpt>
      <trkpt lat="41.632772000" lon="1.870271000">
        <ele>238.80</ele>
        <time>2013-07-24T09:52:30Z</time>
      </trkpt>
      <trkpt lat="41.632843000" lon="1.870518000">
        <ele>236.40</ele>
        <time>2013-07-24T09:52:35Z</time>
      </trkpt>
      <trkpt lat="41.632885000" lon="1.870301000">
        <ele>235.40</ele>
        <time>2013-07-24T09:52:40Z</time>
      </trkpt>
      <trkpt lat="41.632875000" lon="1.870024000">
        <ele>235.60</ele>
        <time>2013-07-24T09:52:45Z</time>
      </trkpt>
      <trkpt lat="41.632877000" lon="1.869858000">
        <ele>236.10</ele>
        <time>2013-07-24T09:53:18Z</time>
      </trkpt>
      <trkpt lat="41.632849000" lon="1.869629000">
        <ele>236.40</ele>
        <time>2013-07-24T09:56:20Z</time>
      </trkpt>
      <trkpt lat="41.632900000" lon="1.869324000">
        <ele>234.50</ele>
        <time>2013-07-24T09:56:27Z</time>
      </trkpt>
      <trkpt lat="41.632884000" lon="1.869061000">
        <ele>234.10</ele>
        <time>2013-07-24T09:56:31Z</time>
      </trkpt>
      <trkpt lat="41.632750000" lon="1.868883000">
        <ele>234.40</ele>
        <time>2013-07-24T09:56:37Z</time>
      </trkpt>
      <trkpt lat="41.632596000" lon="1.868768000">
        <ele>232.30</ele>
        <time>2013-07-24T09:58:19Z</time>
      </trkpt>
      <trkpt lat="41.632530000" lon="1.868724000">
        <ele>231.40</ele>
        <time>2013-07-24T09:59:02Z</time>
      </trkpt>
      <trkpt lat="41.632480000" lon="1.868698000">
        <ele>230.80</ele>
        <time>2013-07-24T09:59:33Z</time>
      </trkpt>
      <trkpt lat="41.632434000" lon="1.868673000">
        <ele>230.20</ele>
        <time>2013-07-24T10:00:02Z</time>
      </trkpt>
      <trkpt lat="41.632433000" lon="1.868667000">
        <ele>230.10</ele>
        <time>2013-07-24T10:00:05Z</time>
      </trkpt>
      <trkpt lat="41.632478000" lon="1.868713000">
        <ele>229.30</ele>
        <time>2013-07-24T10:00:05Z</time>
      </trkpt>
      <trkpt lat="41.632256000" lon="1.868483000">
        <ele>225.00</ele>
        <time>2013-07-24T10:00:12Z</time>
      </trkpt>
      <trkpt lat="41.632211000" lon="1.868207000">
        <ele>222.80</ele>
        <time>2013-07-24T10:00:17Z</time>
      </trkpt>
      <trkpt lat="41.632267000" lon="1.867957000">
        <ele>222.50</ele>
        <time>2013-07-24T10:00:23Z</time>
      </trkpt>
      <trkpt lat="41.632420000" lon="1.867807000">
        <ele>223.80</ele>
        <time>2013-07-24T10:00:30Z</time>
      </trkpt>
      <trkpt lat="41.632633000" lon="1.867677000">
        <ele>224.10</ele>
        <time>2013-07-24T10:00:40Z</time>
      </trkpt>
      <trkpt lat="41.632802000" lon="1.867523000">
        <ele>225.70</ele>
        <time>2013-07-24T10:00:47Z</time>
      </trkpt>
      <trkpt lat="41.632866000" lon="1.867302000">
        <ele>225.70</ele>
        <time>2013-07-24T10:00:56Z</time>
      </trkpt>
      <trkpt lat="41.632942000" lon="1.867041000">
        <ele>225.10</ele>
        <time>2013-07-24T10:01:04Z</time>
      </trkpt>
      <trkpt lat="41.632998000" lon="1.866770000">
        <ele>224.20</ele>
        <time>2013-07-24T10:01:11Z</time>
      </trkpt>
      <trkpt lat="41.633024000" lon="1.866481000">
        <ele>223.20</ele>
        <time>2013-07-24T10:01:17Z</time>
      </trkpt>
      <trkpt lat="41.633040000" lon="1.866212000">
        <ele>221.70</ele>
        <time>2013-07-24T10:01:22Z</time>
      </trkpt>
      <trkpt lat="41.632933000" lon="1.866018000">
        <ele>221.70</ele>
        <time>2013-07-24T10:01:27Z</time>
      </trkpt>
      <trkpt lat="41.632824000" lon="1.865822000">
        <ele>222.00</ele>
        <time>2013-07-24T10:01:34Z</time>
      </trkpt>
      <trkpt lat="41.632814000" lon="1.865572000">
        <ele>222.50</ele>
        <time>2013-07-24T10:01:41Z</time>
      </trkpt>
      <trkpt lat="41.632834000" lon="1.865315000">
        <ele>222.70</ele>
        <time>2013-07-24T10:01:48Z</time>
      </trkpt>
      <trkpt lat="41.632829000" lon="1.865266000">
        <ele>222.80</ele>
        <time>2013-07-24T10:02:00Z</time>
      </trkpt>
      <trkpt lat="41.632844000" lon="1.865005000">
        <ele>222.50</ele>
        <time>2013-07-24T10:02:08Z</time>
      </trkpt>
      <trkpt lat="41.632864000" lon="1.864759000">
        <ele>222.50</ele>
        <time>2013-07-24T10:02:14Z</time>
      </trkpt>
      <trkpt lat="41.632924000" lon="1.864493000">
        <ele>222.90</ele>
        <time>2013-07-24T10:02:20Z</time>
      </trkpt>
      <trkpt lat="41.632911000" lon="1.864230000">
        <ele>223.80</ele>
        <time>2013-07-24T10:02:26Z</time>
      </trkpt>
      <trkpt lat="41.632728000" lon="1.864147000">
        <ele>224.30</ele>
        <time>2013-07-24T10:02:33Z</time>
      </trkpt>
      <trkpt lat="41.632593000" lon="1.864317000">
        <ele>223.90</ele>
        <time>2013-07-24T10:02:39Z</time>
      </trkpt>
      <trkpt lat="41.632379000" lon="1.864442000">
        <ele>222.40</ele>
        <time>2013-07-24T10:02:44Z</time>
      </trkpt>
      <trkpt lat="41.632205000" lon="1.864552000">
        <ele>222.10</ele>
        <time>2013-07-24T10:02:48Z</time>
      </trkpt>
      <trkpt lat="41.632009000" lon="1.864707000">
        <ele>221.50</ele>
        <time>2013-07-24T10:02:52Z</time>
      </trkpt>
      <trkpt lat="41.631872000" lon="1.864884000">
        <ele>220.30</ele>
        <time>2013-07-24T10:02:55Z</time>
      </trkpt>
      <trkpt lat="41.631758000" lon="1.865140000">
        <ele>218.80</ele>
        <time>2013-07-24T10:02:58Z</time>
      </trkpt>
      <trkpt lat="41.631662000" lon="1.865430000">
        <ele>217.50</ele>
        <time>2013-07-24T10:03:01Z</time>
      </trkpt>
      <trkpt lat="41.631538000" lon="1.865690000">
        <ele>217.30</ele>
        <time>2013-07-24T10:03:04Z</time>
      </trkpt>
      <trkpt lat="41.631328000" lon="1.865791000">
        <ele>217.10</ele>
        <time>2013-07-24T10:03:07Z</time>
      </trkpt>
      <trkpt lat="41.631104000" lon="1.865851000">
        <ele>216.30</ele>
        <time>2013-07-24T10:03:10Z</time>
      </trkpt>
      <trkpt lat="41.630882000" lon="1.865916000">
        <ele>216.30</ele>
        <time>2013-07-24T10:03:13Z</time>
      </trkpt>
      <trkpt lat="41.630684000" lon="1.866045000">
        <ele>215.30</ele>
        <time>2013-07-24T10:03:16Z</time>
      </trkpt>
      <trkpt lat="41.630533000" lon="1.866295000">
        <ele>213.60</ele>
        <time>2013-07-24T10:03:19Z</time>
      </trkpt>
      <trkpt lat="41.630466000" lon="1.866629000">
        <ele>212.50</ele>
        <time>2013-07-24T10:03:22Z</time>
      </trkpt>
      <trkpt lat="41.630453000" lon="1.866984000">
        <ele>210.80</ele>
        <time>2013-07-24T10:03:25Z</time>
      </trkpt>
      <trkpt lat="41.630388000" lon="1.867333000">
        <ele>210.00</ele>
        <time>2013-07-24T10:03:28Z</time>
      </trkpt>
      <trkpt lat="41.630283000" lon="1.867537000">
        <ele>208.50</ele>
        <time>2013-07-24T10:03:30Z</time>
      </trkpt>
      <trkpt lat="41.630073000" lon="1.867754000">
        <ele>207.30</ele>
        <time>2013-07-24T10:03:33Z</time>
      </trkpt>
      <trkpt lat="41.629873000" lon="1.867950000">
        <ele>206.30</ele>
        <time>2013-07-24T10:03:36Z</time>
      </trkpt>
      <trkpt lat="41.629631000" lon="1.868079000">
        <ele>205.80</ele>
        <time>2013-07-24T10:03:39Z</time>
      </trkpt>
      <trkpt lat="41.629455000" lon="1.868000000">
        <ele>205.10</ele>
        <time>2013-07-24T10:03:42Z</time>
      </trkpt>
      <trkpt lat="41.629545000" lon="1.867820000">
        <ele>204.00</ele>
        <time>2013-07-24T10:03:45Z</time>
      </trkpt>
      <trkpt lat="41.629503000" lon="1.867656000">
        <ele>202.80</ele>
        <time>2013-07-24T10:03:50Z</time>
      </trkpt>
      <trkpt lat="41.629289000" lon="1.867602000">
        <ele>200.50</ele>
        <time>2013-07-24T10:03:54Z</time>
      </trkpt>
      <trkpt lat="41.629108000" lon="1.867537000">
        <ele>199.10</ele>
        <time>2013-07-24T10:03:57Z</time>
      </trkpt>
      <trkpt lat="41.628905000" lon="1.867522000">
        <ele>198.30</ele>
        <time>2013-07-24T10:04:00Z</time>
      </trkpt>
      <trkpt lat="41.628720000" lon="1.867560000">
        <ele>197.60</ele>
        <time>2013-07-24T10:04:03Z</time>
      </trkpt>
      <trkpt lat="41.628534000" lon="1.867615000">
        <ele>196.70</ele>
        <time>2013-07-24T10:04:10Z</time>
      </trkpt>
      <trkpt lat="41.628362000" lon="1.867733000">
        <ele>195.40</ele>
        <time>2013-07-24T10:04:16Z</time>
      </trkpt>
      <trkpt lat="41.628200000" lon="1.867861000">
        <ele>194.30</ele>
        <time>2013-07-24T10:04:22Z</time>
      </trkpt>
      <trkpt lat="41.628008000" lon="1.868014000">
        <ele>191.80</ele>
        <time>2013-07-24T10:04:26Z</time>
      </trkpt>
      <trkpt lat="41.627849000" lon="1.868149000">
        <ele>190.60</ele>
        <time>2013-07-24T10:04:29Z</time>
      </trkpt>
      <trkpt lat="41.627639000" lon="1.868266000">
        <ele>188.90</ele>
        <time>2013-07-24T10:04:32Z</time>
      </trkpt>
      <trkpt lat="41.627451000" lon="1.868411000">
        <ele>187.50</ele>
        <time>2013-07-24T10:04:35Z</time>
      </trkpt>
      <trkpt lat="41.627312000" lon="1.868578000">
        <ele>186.50</ele>
        <time>2013-07-24T10:04:38Z</time>
      </trkpt>
      <trkpt lat="41.627128000" lon="1.868719000">
        <ele>185.50</ele>
        <time>2013-07-24T10:04:41Z</time>
      </trkpt>
      <trkpt lat="41.626920000" lon="1.868794000">
        <ele>184.30</ele>
        <time>2013-07-24T10:04:44Z</time>
      </trkpt>
      <trkpt lat="41.626707000" lon="1.868793000">
        <ele>182.80</ele>
        <time>2013-07-24T10:04:47Z</time>
      </trkpt>
      <trkpt lat="41.626499000" lon="1.868766000">
        <ele>181.00</ele>
        <time>2013-07-24T10:04:50Z</time>
      </trkpt>
      <trkpt lat="41.626277000" lon="1.868794000">
        <ele>179.80</ele>
        <time>2013-07-24T10:04:53Z</time>
      </trkpt>
      <trkpt lat="41.626052000" lon="1.868914000">
        <ele>178.20</ele>
        <time>2013-07-24T10:04:56Z</time>
      </trkpt>
      <trkpt lat="41.625890000" lon="1.869075000">
        <ele>177.30</ele>
        <time>2013-07-24T10:04:59Z</time>
      </trkpt>
      <trkpt lat="41.625755000" lon="1.869266000">
        <ele>176.10</ele>
        <time>2013-07-24T10:05:02Z</time>
      </trkpt>
      <trkpt lat="41.625544000" lon="1.869419000">
        <ele>174.20</ele>
        <time>2013-07-24T10:05:06Z</time>
      </trkpt>
      <trkpt lat="41.625299000" lon="1.869479000">
        <ele>172.80</ele>
        <time>2013-07-24T10:05:10Z</time>
      </trkpt>
      <trkpt lat="41.625066000" lon="1.869448000">
        <ele>171.90</ele>
        <time>2013-07-24T10:05:14Z</time>
      </trkpt>
      <trkpt lat="41.624841000" lon="1.869354000">
        <ele>170.30</ele>
        <time>2013-07-24T10:05:18Z</time>
      </trkpt>
      <trkpt lat="41.624665000" lon="1.869285000">
        <ele>169.40</ele>
        <time>2013-07-24T10:05:21Z</time>
      </trkpt>
      <trkpt lat="41.624437000" lon="1.869202000">
        <ele>167.50</ele>
        <time>2013-07-24T10:05:25Z</time>
      </trkpt>
      <trkpt lat="41.624211000" lon="1.869112000">
        <ele>166.80</ele>
        <time>2013-07-24T10:05:29Z</time>
      </trkpt>
      <trkpt lat="41.624035000" lon="1.868969000">
        <ele>165.60</ele>
        <time>2013-07-24T10:05:34Z</time>
      </trkpt>
      <trkpt lat="41.623910000" lon="1.868798000">
        <ele>164.50</ele>
        <time>2013-07-24T10:05:38Z</time>
      </trkpt>
      <trkpt lat="41.623785000" lon="1.868580000">
        <ele>162.50</ele>
        <time>2013-07-24T10:05:42Z</time>
      </trkpt>
      <trkpt lat="41.623614000" lon="1.868408000">
        <ele>161.50</ele>
        <time>2013-07-24T10:05:46Z</time>
      </trkpt>
      <trkpt lat="41.623417000" lon="1.868282000">
        <ele>160.30</ele>
        <time>2013-07-24T10:05:50Z</time>
      </trkpt>
      <trkpt lat="41.623205000" lon="1.868203000">
        <ele>159.40</ele>
        <time>2013-07-24T10:05:55Z</time>
      </trkpt>
      <trkpt lat="41.623040000" lon="1.868067000">
        <ele>159.10</ele>
        <time>2013-07-24T10:06:00Z</time>
      </trkpt>
      <trkpt lat="41.622865000" lon="1.867903000">
        <ele>159.00</ele>
        <time>2013-07-24T10:06:05Z</time>
      </trkpt>
      <trkpt lat="41.622729000" lon="1.867740000">
        <ele>155.60</ele>
        <time>2013-07-24T10:06:09Z</time>
      </trkpt>
      <trkpt lat="41.622580000" lon="1.867602000">
        <ele>155.00</ele>
        <time>2013-07-24T10:06:12Z</time>
      </trkpt>
      <trkpt lat="41.622399000" lon="1.867455000">
        <ele>154.20</ele>
        <time>2013-07-24T10:06:16Z</time>
      </trkpt>
      <trkpt lat="41.622223000" lon="1.867267000">
        <ele>152.40</ele>
        <time>2013-07-24T10:06:20Z</time>
      </trkpt>
      <trkpt lat="41.622044000" lon="1.867047000">
        <ele>150.70</ele>
        <time>2013-07-24T10:06:24Z</time>
      </trkpt>
      <trkpt lat="41.621916000" lon="1.866863000">
        <ele>149.50</ele>
        <time>2013-07-24T10:06:27Z</time>
      </trkpt>
      <trkpt lat="41.621776000" lon="1.866694000">
        <ele>148.30</ele>
        <time>2013-07-24T10:06:30Z</time>
      </trkpt>
      <trkpt lat="41.621617000" lon="1.866524000">
        <ele>148.30</ele>
        <time>2013-07-24T10:06:33Z</time>
      </trkpt>
      <trkpt lat="41.621484000" lon="1.866335000">
        <ele>147.40</ele>
        <time>2013-07-24T10:06:36Z</time>
      </trkpt>
      <trkpt lat="41.621368000" lon="1.866159000">
        <ele>146.40</ele>
        <time>2013-07-24T10:06:42Z</time>
      </trkpt>
      <trkpt lat="41.621354000" lon="1.865904000">
        <ele>144.60</ele>
        <time>2013-07-24T10:06:57Z</time>
      </trkpt>
      <trkpt lat="41.621367000" lon="1.865647000">
        <ele>142.90</ele>
        <time>2013-07-24T10:07:03Z</time>
      </trkpt>
      <trkpt lat="41.621407000" lon="1.865390000">
        <ele>142.70</ele>
        <time>2013-07-24T10:07:13Z</time>
      </trkpt>
      <trkpt lat="41.621314000" lon="1.865190000">
        <ele>142.30</ele>
        <time>2013-07-24T10:07:19Z</time>
      </trkpt>
      <trkpt lat="41.621227000" lon="1.864936000">
        <ele>142.10</ele>
        <time>2013-07-24T10:07:24Z</time>
      </trkpt>
      <trkpt lat="41.621195000" lon="1.864646000">
        <ele>141.70</ele>
        <time>2013-07-24T10:07:29Z</time>
      </trkpt>
      <trkpt lat="41.621204000" lon="1.864393000">
        <ele>141.70</ele>
        <time>2013-07-24T10:07:33Z</time>
      </trkpt>
      <trkpt lat="41.621250000" lon="1.864143000">
        <ele>141.90</ele>
        <time>2013-07-24T10:07:37Z</time>
      </trkpt>
      <trkpt lat="41.621344000" lon="1.863888000">
        <ele>141.60</ele>
        <time>2013-07-24T10:07:41Z</time>
      </trkpt>
      <trkpt lat="41.621465000" lon="1.863615000">
        <ele>141.20</ele>
        <time>2013-07-24T10:07:45Z</time>
      </trkpt>
      <trkpt lat="41.621564000" lon="1.863419000">
        <ele>140.90</ele>
        <time>2013-07-24T10:07:48Z</time>
      </trkpt>
      <trkpt lat="41.621668000" lon="1.863224000">
        <ele>140.90</ele>
        <time>2013-07-24T10:07:51Z</time>
      </trkpt>
      <trkpt lat="41.621768000" lon="1.863016000">
        <ele>140.20</ele>
        <time>2013-07-24T10:07:54Z</time>
      </trkpt>
      <trkpt lat="41.621867000" lon="1.862789000">
        <ele>140.60</ele>
        <time>2013-07-24T10:07:57Z</time>
      </trkpt>
      <trkpt lat="41.621968000" lon="1.862565000">
        <ele>140.50</ele>
        <time>2013-07-24T10:08:00Z</time>
      </trkpt>
      <trkpt lat="41.622076000" lon="1.862337000">
        <ele>140.30</ele>
        <time>2013-07-24T10:08:03Z</time>
      </trkpt>
      <trkpt lat="41.622180000" lon="1.862113000">
        <ele>140.20</ele>
        <time>2013-07-24T10:08:06Z</time>
      </trkpt>
      <trkpt lat="41.622287000" lon="1.861898000">
        <ele>140.00</ele>
        <time>2013-07-24T10:08:09Z</time>
      </trkpt>
      <trkpt lat="41.622388000" lon="1.861693000">
        <ele>139.90</ele>
        <time>2013-07-24T10:08:12Z</time>
      </trkpt>
      <trkpt lat="41.622477000" lon="1.861475000">
        <ele>139.80</ele>
        <time>2013-07-24T10:08:15Z</time>
      </trkpt>
      <trkpt lat="41.622560000" lon="1.861244000">
        <ele>140.20</ele>
        <time>2013-07-24T10:08:18Z</time>
      </trkpt>
      <trkpt lat="41.622633000" lon="1.861005000">
        <ele>139.90</ele>
        <time>2013-07-24T10:08:21Z</time>
      </trkpt>
      <trkpt lat="41.622699000" lon="1.860756000">
        <ele>139.50</ele>
        <time>2013-07-24T10:08:24Z</time>
      </trkpt>
      <trkpt lat="41.622748000" lon="1.860501000">
        <ele>139.80</ele>
        <time>2013-07-24T10:08:27Z</time>
      </trkpt>
      <trkpt lat="41.622809000" lon="1.860251000">
        <ele>139.70</ele>
        <time>2013-07-24T10:08:30Z</time>
      </trkpt>
      <trkpt lat="41.622908000" lon="1.859983000">
        <ele>140.30</ele>
        <time>2013-07-24T10:08:34Z</time>
      </trkpt>
      <trkpt lat="41.623002000" lon="1.859761000">
        <ele>140.10</ele>
        <time>2013-07-24T10:08:38Z</time>
      </trkpt>
      <trkpt lat="41.623114000" lon="1.859537000">
        <ele>138.80</ele>
        <time>2013-07-24T10:08:42Z</time>
      </trkpt>
      <trkpt lat="41.623241000" lon="1.859288000">
        <ele>139.20</ele>
        <time>2013-07-24T10:08:46Z</time>
      </trkpt>
      <trkpt lat="41.623355000" lon="1.859027000">
        <ele>139.10</ele>
        <time>2013-07-24T10:08:50Z</time>
      </trkpt>
      <trkpt lat="41.623423000" lon="1.858766000">
        <ele>138.70</ele>
        <time>2013-07-24T10:08:54Z</time>
      </trkpt>
      <trkpt lat="41.623483000" lon="1.858473000">
        <ele>138.80</ele>
        <time>2013-07-24T10:08:58Z</time>
      </trkpt>
      <trkpt lat="41.623544000" lon="1.858215000">
        <ele>138.70</ele>
        <time>2013-07-24T10:09:01Z</time>
      </trkpt>
      <trkpt lat="41.623619000" lon="1.857936000">
        <ele>138.70</ele>
        <time>2013-07-24T10:09:04Z</time>
      </trkpt>
      <trkpt lat="41.623678000" lon="1.857670000">
        <ele>138.70</ele>
        <time>2013-07-24T10:09:07Z</time>
      </trkpt>
      <trkpt lat="41.623708000" lon="1.857387000">
        <ele>138.50</ele>
        <time>2013-07-24T10:09:10Z</time>
      </trkpt>
      <trkpt lat="41.623710000" lon="1.857096000">
        <ele>138.60</ele>
        <time>2013-07-24T10:09:13Z</time>
      </trkpt>
      <trkpt lat="41.623694000" lon="1.856815000">
        <ele>138.50</ele>
        <time>2013-07-24T10:09:16Z</time>
      </trkpt>
      <trkpt lat="41.623650000" lon="1.856546000">
        <ele>138.00</ele>
        <time>2013-07-24T10:09:19Z</time>
      </trkpt>
      <trkpt lat="41.623573000" lon="1.856290000">
        <ele>137.80</ele>
        <time>2013-07-24T10:09:22Z</time>
      </trkpt>
      <trkpt lat="41.623463000" lon="1.856067000">
        <ele>138.20</ele>
        <time>2013-07-24T10:09:25Z</time>
      </trkpt>
      <trkpt lat="41.623330000" lon="1.855867000">
        <ele>138.60</ele>
        <time>2013-07-24T10:09:28Z</time>
      </trkpt>
      <trkpt lat="41.623204000" lon="1.855688000">
        <ele>138.80</ele>
        <time>2013-07-24T10:09:31Z</time>
      </trkpt>
      <trkpt lat="41.623043000" lon="1.855468000">
        <ele>139.00</ele>
        <time>2013-07-24T10:09:35Z</time>
      </trkpt>
      <trkpt lat="41.622871000" lon="1.855250000">
        <ele>139.30</ele>
        <time>2013-07-24T10:09:39Z</time>
      </trkpt>
      <trkpt lat="41.622664000" lon="1.855089000">
        <ele>138.70</ele>
        <time>2013-07-24T10:09:43Z</time>
      </trkpt>
      <trkpt lat="41.622457000" lon="1.855057000">
        <ele>139.50</ele>
        <time>2013-07-24T10:09:47Z</time>
      </trkpt>
      <trkpt lat="41.622312000" lon="1.855250000">
        <ele>142.90</ele>
        <time>2013-07-24T10:09:53Z</time>
      </trkpt>
      <trkpt lat="41.622165000" lon="1.855411000">
        <ele>145.60</ele>
        <time>2013-07-24T10:10:01Z</time>
      </trkpt>
      <trkpt lat="41.621991000" lon="1.855482000">
        <ele>147.40</ele>
        <time>2013-07-24T10:10:08Z</time>
      </trkpt>
      <trkpt lat="41.621877000" lon="1.855679000">
        <ele>148.00</ele>
        <time>2013-07-24T10:10:14Z</time>
      </trkpt>
      <trkpt lat="41.621817000" lon="1.855931000">
        <ele>148.10</ele>
        <time>2013-07-24T10:10:20Z</time>
      </trkpt>
      <trkpt lat="41.621760000" lon="1.856179000">
        <ele>148.80</ele>
        <time>2013-07-24T10:10:26Z</time>
      </trkpt>
      <trkpt lat="41.621665000" lon="1.856396000">
        <ele>149.00</ele>
        <time>2013-07-24T10:10:32Z</time>
      </trkpt>
      <trkpt lat="41.621490000" lon="1.856547000">
        <ele>149.30</ele>
        <time>2013-07-24T10:10:38Z</time>
      </trkpt>
      <trkpt lat="41.621405000" lon="1.856786000">
        <ele>150.20</ele>
        <time>2013-07-24T10:10:44Z</time>
      </trkpt>
      <trkpt lat="41.621406000" lon="1.857048000">
        <ele>151.20</ele>
        <time>2013-07-24T10:10:50Z</time>
      </trkpt>
      <trkpt lat="41.621362000" lon="1.857299000">
        <ele>151.60</ele>
        <time>2013-07-24T10:10:56Z</time>
      </trkpt>
      <trkpt lat="41.621316000" lon="1.857548000">
        <ele>153.10</ele>
        <time>2013-07-24T10:11:02Z</time>
      </trkpt>
      <trkpt lat="41.621260000" lon="1.857774000">
        <ele>154.30</ele>
        <time>2013-07-24T10:11:08Z</time>
      </trkpt>
      <trkpt lat="41.621091000" lon="1.857902000">
        <ele>155.80</ele>
        <time>2013-07-24T10:11:14Z</time>
      </trkpt>
      <trkpt lat="41.620930000" lon="1.858020000">
        <ele>157.40</ele>
        <time>2013-07-24T10:11:20Z</time>
      </trkpt>
      <trkpt lat="41.620782000" lon="1.858182000">
        <ele>157.80</ele>
        <time>2013-07-24T10:11:26Z</time>
      </trkpt>
      <trkpt lat="41.620577000" lon="1.858228000">
        <ele>158.30</ele>
        <time>2013-07-24T10:11:32Z</time>
      </trkpt>
      <trkpt lat="41.620393000" lon="1.858259000">
        <ele>159.70</ele>
        <time>2013-07-24T10:11:38Z</time>
      </trkpt>
      <trkpt lat="41.620208000" lon="1.858326000">
        <ele>160.90</ele>
        <time>2013-07-24T10:11:45Z</time>
      </trkpt>
      <trkpt lat="41.620083000" lon="1.858482000">
        <ele>162.40</ele>
        <time>2013-07-24T10:11:53Z</time>
      </trkpt>
      <trkpt lat="41.620083000" lon="1.858614000">
        <ele>164.70</ele>
        <time>2013-07-24T10:12:03Z</time>
      </trkpt>
      <trkpt lat="41.620253000" lon="1.858493000">
        <ele>164.60</ele>
        <time>2013-07-24T10:12:10Z</time>
      </trkpt>
      <trkpt lat="41.620451000" lon="1.858409000">
        <ele>165.10</ele>
        <time>2013-07-24T10:12:17Z</time>
      </trkpt>
      <trkpt lat="41.620667000" lon="1.858394000">
        <ele>165.70</ele>
        <time>2013-07-24T10:12:24Z</time>
      </trkpt>
      <trkpt lat="41.620847000" lon="1.858379000">
        <ele>166.30</ele>
        <time>2013-07-24T10:12:31Z</time>
      </trkpt>
      <trkpt lat="41.621017000" lon="1.858285000">
        <ele>165.30</ele>
        <time>2013-07-24T10:12:37Z</time>
      </trkpt>
      <trkpt lat="41.621205000" lon="1.858330000">
        <ele>166.30</ele>
        <time>2013-07-24T10:12:43Z</time>
      </trkpt>
      <trkpt lat="41.621381000" lon="1.858349000">
        <ele>167.10</ele>
        <time>2013-07-24T10:12:49Z</time>
      </trkpt>
      <trkpt lat="41.621542000" lon="1.858332000">
        <ele>168.40</ele>
        <time>2013-07-24T10:12:57Z</time>
      </trkpt>
      <trkpt lat="41.621736000" lon="1.858372000">
        <ele>168.70</ele>
        <time>2013-07-24T10:13:05Z</time>
      </trkpt>
      <trkpt lat="41.621859000" lon="1.858571000">
        <ele>167.40</ele>
        <time>2013-07-24T10:13:12Z</time>
      </trkpt>
      <trkpt lat="41.621900000" lon="1.858792000">
        <ele>167.20</ele>
        <time>2013-07-24T10:13:19Z</time>
      </trkpt>
      <trkpt lat="41.621717000" lon="1.858896000">
        <ele>169.50</ele>
        <time>2013-07-24T10:13:28Z</time>
      </trkpt>
      <trkpt lat="41.621526000" lon="1.858987000">
        <ele>172.20</ele>
        <time>2013-07-24T10:13:38Z</time>
      </trkpt>
      <trkpt lat="41.621331000" lon="1.859000000">
        <ele>174.50</ele>
        <time>2013-07-24T10:13:48Z</time>
      </trkpt>
      <trkpt lat="41.621138000" lon="1.858940000">
        <ele>177.50</ele>
        <time>2013-07-24T10:13:58Z</time>
      </trkpt>
      <trkpt lat="41.620987000" lon="1.858788000">
        <ele>179.70</ele>
        <time>2013-07-24T10:14:08Z</time>
      </trkpt>
      <trkpt lat="41.620831000" lon="1.858675000">
        <ele>180.40</ele>
        <time>2013-07-24T10:14:17Z</time>
      </trkpt>
      <trkpt lat="41.620588000" lon="1.858684000">
        <ele>181.20</ele>
        <time>2013-07-24T10:14:28Z</time>
      </trkpt>
      <trkpt lat="41.620364000" lon="1.858807000">
        <ele>181.30</ele>
        <time>2013-07-24T10:14:37Z</time>
      </trkpt>
      <trkpt lat="41.620210000" lon="1.858962000">
        <ele>181.70</ele>
        <time>2013-07-24T10:14:44Z</time>
      </trkpt>
      <trkpt lat="41.620050000" lon="1.859114000">
        <ele>182.10</ele>
        <time>2013-07-24T10:14:51Z</time>
      </trkpt>
      <trkpt lat="41.619879000" lon="1.859217000">
        <ele>182.80</ele>
        <time>2013-07-24T10:14:58Z</time>
      </trkpt>
      <trkpt lat="41.619734000" lon="1.859390000">
        <ele>183.70</ele>
        <time>2013-07-24T10:15:05Z</time>
      </trkpt>
      <trkpt lat="41.619647000" lon="1.859616000">
        <ele>184.80</ele>
        <time>2013-07-24T10:15:12Z</time>
      </trkpt>
      <trkpt lat="41.619542000" lon="1.859841000">
        <ele>185.20</ele>
        <time>2013-07-24T10:15:19Z</time>
      </trkpt>
      <trkpt lat="41.619482000" lon="1.860096000">
        <ele>186.00</ele>
        <time>2013-07-24T10:15:26Z</time>
      </trkpt>
      <trkpt lat="41.619314000" lon="1.860155000">
        <ele>186.20</ele>
        <time>2013-07-24T10:15:33Z</time>
      </trkpt>
      <trkpt lat="41.619169000" lon="1.859952000">
        <ele>186.90</ele>
        <time>2013-07-24T10:15:40Z</time>
      </trkpt>
      <trkpt lat="41.619016000" lon="1.859785000">
        <ele>189.30</ele>
        <time>2013-07-24T10:15:47Z</time>
      </trkpt>
      <trkpt lat="41.618840000" lon="1.859750000">
        <ele>191.50</ele>
        <time>2013-07-24T10:15:54Z</time>
      </trkpt>
      <trkpt lat="41.618665000" lon="1.859702000">
        <ele>193.60</ele>
        <time>2013-07-24T10:16:01Z</time>
      </trkpt>
      <trkpt lat="41.618520000" lon="1.859865000">
        <ele>195.10</ele>
        <time>2013-07-24T10:16:08Z</time>
      </trkpt>
      <trkpt lat="41.618384000" lon="1.860040000">
        <ele>196.40</ele>
        <time>2013-07-24T10:16:15Z</time>
      </trkpt>
      <trkpt lat="41.618284000" lon="1.860269000">
        <ele>197.70</ele>
        <time>2013-07-24T10:16:23Z</time>
      </trkpt>
      <trkpt lat="41.618331000" lon="1.860500000">
        <ele>198.90</ele>
        <time>2013-07-24T10:16:30Z</time>
      </trkpt>
      <trkpt lat="41.618280000" lon="1.860740000">
        <ele>201.10</ele>
        <time>2013-07-24T10:16:38Z</time>
      </trkpt>
      <trkpt lat="41.618144000" lon="1.860902000">
        <ele>203.20</ele>
        <time>2013-07-24T10:16:46Z</time>
      </trkpt>
      <trkpt lat="41.617989000" lon="1.861028000">
        <ele>205.10</ele>
        <time>2013-07-24T10:16:54Z</time>
      </trkpt>
      <trkpt lat="41.617804000" lon="1.861062000">
        <ele>206.90</ele>
        <time>2013-07-24T10:17:03Z</time>
      </trkpt>
      <trkpt lat="41.617593000" lon="1.861065000">
        <ele>208.00</ele>
        <time>2013-07-24T10:17:12Z</time>
      </trkpt>
      <trkpt lat="41.617415000" lon="1.861069000">
        <ele>209.60</ele>
        <time>2013-07-24T10:17:20Z</time>
      </trkpt>
      <trkpt lat="41.617243000" lon="1.860933000">
        <ele>211.50</ele>
        <time>2013-07-24T10:17:29Z</time>
      </trkpt>
      <trkpt lat="41.617173000" lon="1.860700000">
        <ele>212.40</ele>
        <time>2013-07-24T10:17:37Z</time>
      </trkpt>
      <trkpt lat="41.617188000" lon="1.860447000">
        <ele>213.30</ele>
        <time>2013-07-24T10:17:45Z</time>
      </trkpt>
      <trkpt lat="41.617139000" lon="1.860179000">
        <ele>213.90</ele>
        <time>2013-07-24T10:17:53Z</time>
      </trkpt>
      <trkpt lat="41.616981000" lon="1.860007000">
        <ele>213.30</ele>
        <time>2013-07-24T10:17:59Z</time>
      </trkpt>
      <trkpt lat="41.616850000" lon="1.859784000">
        <ele>212.70</ele>
        <time>2013-07-24T10:18:04Z</time>
      </trkpt>
      <trkpt lat="41.616771000" lon="1.859552000">
        <ele>212.50</ele>
        <time>2013-07-24T10:18:09Z</time>
      </trkpt>
      <trkpt lat="41.616671000" lon="1.859320000">
        <ele>212.00</ele>
        <time>2013-07-24T10:18:14Z</time>
      </trkpt>
      <trkpt lat="41.616493000" lon="1.859217000">
        <ele>213.00</ele>
        <time>2013-07-24T10:18:19Z</time>
      </trkpt>
      <trkpt lat="41.616287000" lon="1.859234000">
        <ele>214.80</ele>
        <time>2013-07-24T10:18:25Z</time>
      </trkpt>
      <trkpt lat="41.616090000" lon="1.859282000">
        <ele>216.40</ele>
        <time>2013-07-24T10:18:31Z</time>
      </trkpt>
      <trkpt lat="41.615899000" lon="1.859302000">
        <ele>216.60</ele>
        <time>2013-07-24T10:18:37Z</time>
      </trkpt>
      <trkpt lat="41.615706000" lon="1.859294000">
        <ele>217.00</ele>
        <time>2013-07-24T10:18:43Z</time>
      </trkpt>
      <trkpt lat="41.615537000" lon="1.859171000">
        <ele>217.50</ele>
        <time>2013-07-24T10:18:49Z</time>
      </trkpt>
      <trkpt lat="41.615423000" lon="1.858986000">
        <ele>218.80</ele>
        <time>2013-07-24T10:18:55Z</time>
      </trkpt>
      <trkpt lat="41.615353000" lon="1.858743000">
        <ele>221.20</ele>
        <time>2013-07-24T10:19:02Z</time>
      </trkpt>
      <trkpt lat="41.615326000" lon="1.858478000">
        <ele>224.80</ele>
        <time>2013-07-24T10:19:10Z</time>
      </trkpt>
      <trkpt lat="41.615261000" lon="1.858269000">
        <ele>227.00</ele>
        <time>2013-07-24T10:19:18Z</time>
      </trkpt>
      <trkpt lat="41.615132000" lon="1.858464000">
        <ele>229.00</ele>
        <time>2013-07-24T10:19:26Z</time>
      </trkpt>
      <trkpt lat="41.614947000" lon="1.858570000">
        <ele>230.50</ele>
        <time>2013-07-24T10:19:34Z</time>
      </trkpt>
      <trkpt lat="41.614756000" lon="1.858576000">
        <ele>232.60</ele>
        <time>2013-07-24T10:19:42Z</time>
      </trkpt>
      <trkpt lat="41.614557000" lon="1.858655000">
        <ele>234.30</ele>
        <time>2013-07-24T10:19:51Z</time>
      </trkpt>
      <trkpt lat="41.614392000" lon="1.858753000">
        <ele>235.50</ele>
        <time>2013-07-24T10:19:59Z</time>
      </trkpt>
      <trkpt lat="41.614203000" lon="1.858787000">
        <ele>235.80</ele>
        <time>2013-07-24T10:20:06Z</time>
      </trkpt>
      <trkpt lat="41.614010000" lon="1.858794000">
        <ele>237.00</ele>
        <time>2013-07-24T10:20:13Z</time>
      </trkpt>
      <trkpt lat="41.613829000" lon="1.858851000">
        <ele>238.80</ele>
        <time>2013-07-24T10:20:20Z</time>
      </trkpt>
      <trkpt lat="41.613643000" lon="1.858908000">
        <ele>241.50</ele>
        <time>2013-07-24T10:20:29Z</time>
      </trkpt>
      <trkpt lat="41.613452000" lon="1.858872000">
        <ele>243.80</ele>
        <time>2013-07-24T10:20:38Z</time>
      </trkpt>
      <trkpt lat="41.613272000" lon="1.858895000">
        <ele>245.40</ele>
        <time>2013-07-24T10:20:46Z</time>
      </trkpt>
      <trkpt lat="41.613096000" lon="1.858992000">
        <ele>246.50</ele>
        <time>2013-07-24T10:20:54Z</time>
      </trkpt>
      <trkpt lat="41.612906000" lon="1.859088000">
        <ele>248.90</ele>
        <time>2013-07-24T10:21:03Z</time>
      </trkpt>
      <trkpt lat="41.612717000" lon="1.859188000">
        <ele>252.30</ele>
        <time>2013-07-24T10:21:13Z</time>
      </trkpt>
      <trkpt lat="41.612546000" lon="1.859305000">
        <ele>254.00</ele>
        <time>2013-07-24T10:21:22Z</time>
      </trkpt>
      <trkpt lat="41.612364000" lon="1.859368000">
        <ele>255.40</ele>
        <time>2013-07-24T10:21:31Z</time>
      </trkpt>
      <trkpt lat="41.612171000" lon="1.859354000">
        <ele>255.80</ele>
        <time>2013-07-24T10:21:39Z</time>
      </trkpt>
      <trkpt lat="41.611956000" lon="1.859321000">
        <ele>254.80</ele>
        <time>2013-07-24T10:21:45Z</time>
      </trkpt>
      <trkpt lat="41.611732000" lon="1.859313000">
        <ele>254.40</ele>
        <time>2013-07-24T10:21:50Z</time>
      </trkpt>
      <trkpt lat="41.611555000" lon="1.859369000">
        <ele>254.70</ele>
        <time>2013-07-24T10:21:54Z</time>
      </trkpt>
      <trkpt lat="41.611381000" lon="1.859471000">
        <ele>255.70</ele>
        <time>2013-07-24T10:21:59Z</time>
      </trkpt>
      <trkpt lat="41.611220000" lon="1.859566000">
        <ele>256.70</ele>
        <time>2013-07-24T10:22:04Z</time>
      </trkpt>
      <trkpt lat="41.611068000" lon="1.859746000">
        <ele>257.10</ele>
        <time>2013-07-24T10:22:10Z</time>
      </trkpt>
      <trkpt lat="41.610925000" lon="1.859914000">
        <ele>256.80</ele>
        <time>2013-07-24T10:22:15Z</time>
      </trkpt>
      <trkpt lat="41.610762000" lon="1.860033000">
        <ele>257.70</ele>
        <time>2013-07-24T10:22:20Z</time>
      </trkpt>
      <trkpt lat="41.610583000" lon="1.860104000">
        <ele>259.10</ele>
        <time>2013-07-24T10:22:26Z</time>
      </trkpt>
      <trkpt lat="41.610399000" lon="1.860149000">
        <ele>260.30</ele>
        <time>2013-07-24T10:22:32Z</time>
      </trkpt>
      <trkpt lat="41.610225000" lon="1.860216000">
        <ele>261.40</ele>
        <time>2013-07-24T10:22:38Z</time>
      </trkpt>
      <trkpt lat="41.610047000" lon="1.860304000">
        <ele>262.70</ele>
        <time>2013-07-24T10:22:44Z</time>
      </trkpt>
      <trkpt lat="41.609870000" lon="1.860327000">
        <ele>264.70</ele>
        <time>2013-07-24T10:22:51Z</time>
      </trkpt>
      <trkpt lat="41.609704000" lon="1.860427000">
        <ele>266.00</ele>
        <time>2013-07-24T10:22:58Z</time>
      </trkpt>
      <trkpt lat="41.609547000" lon="1.860549000">
        <ele>267.20</ele>
        <time>2013-07-24T10:23:05Z</time>
      </trkpt>
      <trkpt lat="41.609407000" lon="1.860698000">
        <ele>269.00</ele>
        <time>2013-07-24T10:23:13Z</time>
      </trkpt>
      <trkpt lat="41.609384000" lon="1.860952000">
        <ele>270.40</ele>
        <time>2013-07-24T10:23:22Z</time>
      </trkpt>
      <trkpt lat="41.609348000" lon="1.861191000">
        <ele>271.40</ele>
        <time>2013-07-24T10:23:30Z</time>
      </trkpt>
      <trkpt lat="41.609297000" lon="1.861437000">
        <ele>268.00</ele>
        <time>2013-07-24T10:23:34Z</time>
      </trkpt>
      <trkpt lat="41.609264000" lon="1.861746000">
        <ele>267.60</ele>
        <time>2013-07-24T10:23:38Z</time>
      </trkpt>
      <trkpt lat="41.609194000" lon="1.862010000">
        <ele>267.50</ele>
        <time>2013-07-24T10:23:42Z</time>
      </trkpt>
      <trkpt lat="41.609179000" lon="1.862291000">
        <ele>267.00</ele>
        <time>2013-07-24T10:23:46Z</time>
      </trkpt>
      <trkpt lat="41.609277000" lon="1.862529000">
        <ele>266.50</ele>
        <time>2013-07-24T10:23:50Z</time>
      </trkpt>
      <trkpt lat="41.609298000" lon="1.862792000">
        <ele>265.80</ele>
        <time>2013-07-24T10:23:54Z</time>
      </trkpt>
      <trkpt lat="41.609341000" lon="1.863047000">
        <ele>266.20</ele>
        <time>2013-07-24T10:23:58Z</time>
      </trkpt>
      <trkpt lat="41.609349000" lon="1.863345000">
        <ele>266.60</ele>
        <time>2013-07-24T10:24:03Z</time>
      </trkpt>
      <trkpt lat="41.609340000" lon="1.863624000">
        <ele>266.60</ele>
        <time>2013-07-24T10:24:08Z</time>
      </trkpt>
      <trkpt lat="41.609329000" lon="1.863890000">
        <ele>265.90</ele>
        <time>2013-07-24T10:24:13Z</time>
      </trkpt>
      <trkpt lat="41.609198000" lon="1.864081000">
        <ele>266.00</ele>
        <time>2013-07-24T10:24:19Z</time>
      </trkpt>
      <trkpt lat="41.609122000" lon="1.864298000">
        <ele>265.80</ele>
        <time>2013-07-24T10:24:25Z</time>
      </trkpt>
      <trkpt lat="41.609076000" lon="1.864536000">
        <ele>266.10</ele>
        <time>2013-07-24T10:24:35Z</time>
      </trkpt>
      <trkpt lat="41.609085000" lon="1.864515000">
        <ele>266.00</ele>
        <time>2013-07-24T10:24:55Z</time>
      </trkpt>
      <trkpt lat="41.609084000" lon="1.864280000">
        <ele>266.10</ele>
        <time>2013-07-24T10:25:04Z</time>
      </trkpt>
      <trkpt lat="41.609005000" lon="1.864451000">
        <ele>263.90</ele>
        <time>2013-07-24T10:25:11Z</time>
      </trkpt>
      <trkpt lat="41.608850000" lon="1.864621000">
        <ele>261.50</ele>
        <time>2013-07-24T10:25:16Z</time>
      </trkpt>
      <trkpt lat="41.608685000" lon="1.864684000">
        <ele>257.20</ele>
        <time>2013-07-24T10:25:24Z</time>
      </trkpt>
      <trkpt lat="41.608587000" lon="1.864746000">
        <ele>253.40</ele>
        <time>2013-07-24T10:25:35Z</time>
      </trkpt>
      <trkpt lat="41.608509000" lon="1.864484000">
        <ele>250.00</ele>
        <time>2013-07-24T10:25:40Z</time>
      </trkpt>
      <trkpt lat="41.608280000" lon="1.864391000">
        <ele>249.20</ele>
        <time>2013-07-24T10:25:44Z</time>
      </trkpt>
      <trkpt lat="41.608103000" lon="1.864476000">
        <ele>250.20</ele>
        <time>2013-07-24T10:25:48Z</time>
      </trkpt>
      <trkpt lat="41.607968000" lon="1.864637000">
        <ele>251.50</ele>
        <time>2013-07-24T10:25:53Z</time>
      </trkpt>
      <trkpt lat="41.607824000" lon="1.864775000">
        <ele>250.90</ele>
        <time>2013-07-24T10:26:01Z</time>
      </trkpt>
      <trkpt lat="41.607627000" lon="1.864862000">
        <ele>248.60</ele>
        <time>2013-07-24T10:26:07Z</time>
      </trkpt>
      <trkpt lat="41.607459000" lon="1.865014000">
        <ele>246.50</ele>
        <time>2013-07-24T10:26:11Z</time>
      </trkpt>
      <trkpt lat="41.607296000" lon="1.865109000">
        <ele>245.70</ele>
        <time>2013-07-24T10:26:15Z</time>
      </trkpt>
      <trkpt lat="41.607140000" lon="1.864967000">
        <ele>244.20</ele>
        <time>2013-07-24T10:26:19Z</time>
      </trkpt>
      <trkpt lat="41.606972000" lon="1.864819000">
        <ele>243.00</ele>
        <time>2013-07-24T10:26:24Z</time>
      </trkpt>
      <trkpt lat="41.606844000" lon="1.865018000">
        <ele>241.90</ele>
        <time>2013-07-24T10:26:29Z</time>
      </trkpt>
      <trkpt lat="41.606817000" lon="1.865257000">
        <ele>241.00</ele>
        <time>2013-07-24T10:26:34Z</time>
      </trkpt>
      <trkpt lat="41.606769000" lon="1.865502000">
        <ele>240.50</ele>
        <time>2013-07-24T10:26:39Z</time>
      </trkpt>
      <trkpt lat="41.606746000" lon="1.865771000">
        <ele>240.10</ele>
        <time>2013-07-24T10:26:44Z</time>
      </trkpt>
      <trkpt lat="41.606713000" lon="1.865998000">
        <ele>237.70</ele>
        <time>2013-07-24T10:26:48Z</time>
      </trkpt>
      <trkpt lat="41.606564000" lon="1.866198000">
        <ele>234.60</ele>
        <time>2013-07-24T10:26:52Z</time>
      </trkpt>
      <trkpt lat="41.606439000" lon="1.866403000">
        <ele>232.90</ele>
        <time>2013-07-24T10:26:56Z</time>
      </trkpt>
      <trkpt lat="41.606359000" lon="1.866638000">
        <ele>230.70</ele>
        <time>2013-07-24T10:27:00Z</time>
      </trkpt>
      <trkpt lat="41.606270000" lon="1.866880000">
        <ele>228.60</ele>
        <time>2013-07-24T10:27:04Z</time>
      </trkpt>
      <trkpt lat="41.606098000" lon="1.867057000">
        <ele>227.90</ele>
        <time>2013-07-24T10:27:08Z</time>
      </trkpt>
      <trkpt lat="41.605947000" lon="1.867248000">
        <ele>227.20</ele>
        <time>2013-07-24T10:27:12Z</time>
      </trkpt>
      <trkpt lat="41.605864000" lon="1.867466000">
        <ele>225.90</ele>
        <time>2013-07-24T10:27:16Z</time>
      </trkpt>
      <trkpt lat="41.605895000" lon="1.867771000">
        <ele>221.90</ele>
        <time>2013-07-24T10:27:21Z</time>
      </trkpt>
      <trkpt lat="41.605955000" lon="1.868006000">
        <ele>219.00</ele>
        <time>2013-07-24T10:27:24Z</time>
      </trkpt>
      <trkpt lat="41.606010000" lon="1.868270000">
        <ele>218.30</ele>
        <time>2013-07-24T10:27:27Z</time>
      </trkpt>
      <trkpt lat="41.606051000" lon="1.868573000">
        <ele>217.40</ele>
        <time>2013-07-24T10:27:31Z</time>
      </trkpt>
      <trkpt lat="41.606032000" lon="1.868887000">
        <ele>214.90</ele>
        <time>2013-07-24T10:27:35Z</time>
      </trkpt>
      <trkpt lat="41.605990000" lon="1.869133000">
        <ele>214.80</ele>
        <time>2013-07-24T10:27:38Z</time>
      </trkpt>
      <trkpt lat="41.605991000" lon="1.869383000">
        <ele>213.40</ele>
        <time>2013-07-24T10:27:41Z</time>
      </trkpt>
      <trkpt lat="41.605968000" lon="1.869614000">
        <ele>213.50</ele>
        <time>2013-07-24T10:27:44Z</time>
      </trkpt>
      <trkpt lat="41.605870000" lon="1.869835000">
        <ele>211.40</ele>
        <time>2013-07-24T10:27:48Z</time>
      </trkpt>
      <trkpt lat="41.605866000" lon="1.870153000">
        <ele>209.20</ele>
        <time>2013-07-24T10:27:52Z</time>
      </trkpt>
      <trkpt lat="41.605734000" lon="1.870405000">
        <ele>209.20</ele>
        <time>2013-07-24T10:27:56Z</time>
      </trkpt>
      <trkpt lat="41.605602000" lon="1.870593000">
        <ele>211.40</ele>
        <time>2013-07-24T10:28:00Z</time>
      </trkpt>
      <trkpt lat="41.605476000" lon="1.870783000">
        <ele>213.00</ele>
        <time>2013-07-24T10:28:06Z</time>
      </trkpt>
      <trkpt lat="41.605303000" lon="1.870944000">
        <ele>212.00</ele>
        <time>2013-07-24T10:28:13Z</time>
      </trkpt>
      <trkpt lat="41.605122000" lon="1.871021000">
        <ele>209.60</ele>
        <time>2013-07-24T10:28:17Z</time>
      </trkpt>
      <trkpt lat="41.604922000" lon="1.871025000">
        <ele>207.30</ele>
        <time>2013-07-24T10:28:20Z</time>
      </trkpt>
      <trkpt lat="41.604737000" lon="1.870990000">
        <ele>206.90</ele>
        <time>2013-07-24T10:28:23Z</time>
      </trkpt>
      <trkpt lat="41.604584000" lon="1.871099000">
        <ele>207.10</ele>
        <time>2013-07-24T10:28:27Z</time>
      </trkpt>
      <trkpt lat="41.604649000" lon="1.871316000">
        <ele>207.80</ele>
        <time>2013-07-24T10:28:54Z</time>
      </trkpt>
      <trkpt lat="41.604783000" lon="1.871531000">
        <ele>204.40</ele>
        <time>2013-07-24T10:29:01Z</time>
      </trkpt>
      <trkpt lat="41.604904000" lon="1.871773000">
        <ele>202.10</ele>
        <time>2013-07-24T10:29:06Z</time>
      </trkpt>
      <trkpt lat="41.605016000" lon="1.871999000">
        <ele>202.20</ele>
        <time>2013-07-24T10:29:11Z</time>
      </trkpt>
      <trkpt lat="41.605106000" lon="1.872156000">
        <ele>202.30</ele>
        <time>2013-07-24T10:29:18Z</time>
      </trkpt>
      <trkpt lat="41.604997000" lon="1.872374000">
        <ele>202.80</ele>
        <time>2013-07-24T10:29:24Z</time>
      </trkpt>
      <trkpt lat="41.604894000" lon="1.872577000">
        <ele>203.70</ele>
        <time>2013-07-24T10:29:30Z</time>
      </trkpt>
      <trkpt lat="41.604916000" lon="1.872814000">
        <ele>203.90</ele>
        <time>2013-07-24T10:29:45Z</time>
      </trkpt>
      <trkpt lat="41.604777000" lon="1.873006000">
        <ele>205.80</ele>
        <time>2013-07-24T10:29:54Z</time>
      </trkpt>
      <trkpt lat="41.604697000" lon="1.873198000">
        <ele>208.40</ele>
        <time>2013-07-24T10:30:01Z</time>
      </trkpt>
      <trkpt lat="41.604799000" lon="1.873400000">
        <ele>211.80</ele>
        <time>2013-07-24T10:30:09Z</time>
      </trkpt>
      <trkpt lat="41.604661000" lon="1.873551000">
        <ele>213.10</ele>
        <time>2013-07-24T10:30:20Z</time>
      </trkpt>
      <trkpt lat="41.604521000" lon="1.873725000">
        <ele>214.40</ele>
        <time>2013-07-24T10:30:30Z</time>
      </trkpt>
      <trkpt lat="41.604389000" lon="1.873889000">
        <ele>216.30</ele>
        <time>2013-07-24T10:30:40Z</time>
      </trkpt>
      <trkpt lat="41.604234000" lon="1.874039000">
        <ele>216.40</ele>
        <time>2013-07-24T10:30:49Z</time>
      </trkpt>
      <trkpt lat="41.604042000" lon="1.874085000">
        <ele>216.60</ele>
        <time>2013-07-24T10:30:57Z</time>
      </trkpt>
      <trkpt lat="41.603861000" lon="1.874200000">
        <ele>218.60</ele>
        <time>2013-07-24T10:31:06Z</time>
      </trkpt>
      <trkpt lat="41.603729000" lon="1.874379000">
        <ele>220.10</ele>
        <time>2013-07-24T10:31:17Z</time>
      </trkpt>
      <trkpt lat="41.603588000" lon="1.874542000">
        <ele>221.50</ele>
        <time>2013-07-24T10:31:25Z</time>
      </trkpt>
      <trkpt lat="41.603476000" lon="1.874742000">
        <ele>223.10</ele>
        <time>2013-07-24T10:31:33Z</time>
      </trkpt>
      <trkpt lat="41.603403000" lon="1.874984000">
        <ele>223.20</ele>
        <time>2013-07-24T10:31:40Z</time>
      </trkpt>
      <trkpt lat="41.603305000" lon="1.875215000">
        <ele>223.90</ele>
        <time>2013-07-24T10:31:47Z</time>
      </trkpt>
      <trkpt lat="41.603256000" lon="1.875464000">
        <ele>223.40</ele>
        <time>2013-07-24T10:31:53Z</time>
      </trkpt>
      <trkpt lat="41.603295000" lon="1.875730000">
        <ele>222.70</ele>
        <time>2013-07-24T10:31:58Z</time>
      </trkpt>
      <trkpt lat="41.603341000" lon="1.875995000">
        <ele>222.70</ele>
        <time>2013-07-24T10:32:03Z</time>
      </trkpt>
      <trkpt lat="41.603400000" lon="1.876235000">
        <ele>223.00</ele>
        <time>2013-07-24T10:32:08Z</time>
      </trkpt>
      <trkpt lat="41.603311000" lon="1.876493000">
        <ele>224.50</ele>
        <time>2013-07-24T10:32:14Z</time>
      </trkpt>
      <trkpt lat="41.603340000" lon="1.876745000">
        <ele>225.40</ele>
        <time>2013-07-24T10:32:19Z</time>
      </trkpt>
      <trkpt lat="41.603403000" lon="1.876988000">
        <ele>225.90</ele>
        <time>2013-07-24T10:32:24Z</time>
      </trkpt>
      <trkpt lat="41.603487000" lon="1.877218000">
        <ele>226.50</ele>
        <time>2013-07-24T10:32:29Z</time>
      </trkpt>
      <trkpt lat="41.603595000" lon="1.877430000">
        <ele>226.20</ele>
        <time>2013-07-24T10:32:34Z</time>
      </trkpt>
      <trkpt lat="41.603708000" lon="1.877644000">
        <ele>226.50</ele>
        <time>2013-07-24T10:32:40Z</time>
      </trkpt>
      <trkpt lat="41.603806000" lon="1.877919000">
        <ele>227.30</ele>
        <time>2013-07-24T10:32:46Z</time>
      </trkpt>
      <trkpt lat="41.603838000" lon="1.878177000">
        <ele>228.20</ele>
        <time>2013-07-24T10:32:51Z</time>
      </trkpt>
      <trkpt lat="41.603864000" lon="1.878431000">
        <ele>228.80</ele>
        <time>2013-07-24T10:32:56Z</time>
      </trkpt>
      <trkpt lat="41.603883000" lon="1.878676000">
        <ele>229.50</ele>
        <time>2013-07-24T10:33:01Z</time>
      </trkpt>
      <trkpt lat="41.603977000" lon="1.878906000">
        <ele>229.40</ele>
        <time>2013-07-24T10:33:06Z</time>
      </trkpt>
      <trkpt lat="41.604089000" lon="1.879095000">
        <ele>229.50</ele>
        <time>2013-07-24T10:33:11Z</time>
      </trkpt>
      <trkpt lat="41.604057000" lon="1.879346000">
        <ele>229.60</ele>
        <time>2013-07-24T10:33:16Z</time>
      </trkpt>
      <trkpt lat="41.604102000" lon="1.879581000">
        <ele>230.30</ele>
        <time>2013-07-24T10:33:21Z</time>
      </trkpt>
      <trkpt lat="41.604069000" lon="1.879866000">
        <ele>230.20</ele>
        <time>2013-07-24T10:33:27Z</time>
      </trkpt>
      <trkpt lat="41.604099000" lon="1.880117000">
        <ele>229.40</ele>
        <time>2013-07-24T10:33:31Z</time>
      </trkpt>
      <trkpt lat="41.604149000" lon="1.880371000">
        <ele>229.60</ele>
        <time>2013-07-24T10:33:35Z</time>
      </trkpt>
      <trkpt lat="41.604172000" lon="1.880639000">
        <ele>228.40</ele>
        <time>2013-07-24T10:33:39Z</time>
      </trkpt>
      <trkpt lat="41.604244000" lon="1.880911000">
        <ele>227.90</ele>
        <time>2013-07-24T10:33:43Z</time>
      </trkpt>
      <trkpt lat="41.604326000" lon="1.881177000">
        <ele>227.70</ele>
        <time>2013-07-24T10:33:47Z</time>
      </trkpt>
      <trkpt lat="41.604410000" lon="1.881438000">
        <ele>227.90</ele>
        <time>2013-07-24T10:33:51Z</time>
      </trkpt>
      <trkpt lat="41.604462000" lon="1.881708000">
        <ele>228.10</ele>
        <time>2013-07-24T10:33:55Z</time>
      </trkpt>
      <trkpt lat="41.604521000" lon="1.881967000">
        <ele>228.00</ele>
        <time>2013-07-24T10:33:59Z</time>
      </trkpt>
      <trkpt lat="41.604580000" lon="1.882197000">
        <ele>227.90</ele>
        <time>2013-07-24T10:34:03Z</time>
      </trkpt>
      <trkpt lat="41.604542000" lon="1.882479000">
        <ele>229.20</ele>
        <time>2013-07-24T10:34:08Z</time>
      </trkpt>
      <trkpt lat="41.604598000" lon="1.882734000">
        <ele>231.40</ele>
        <time>2013-07-24T10:34:14Z</time>
      </trkpt>
      <trkpt lat="41.604608000" lon="1.883005000">
        <ele>233.80</ele>
        <time>2013-07-24T10:34:21Z</time>
      </trkpt>
      <trkpt lat="41.604605000" lon="1.883272000">
        <ele>234.30</ele>
        <time>2013-07-24T10:34:27Z</time>
      </trkpt>
      <trkpt lat="41.604559000" lon="1.883520000">
        <ele>234.90</ele>
        <time>2013-07-24T10:34:33Z</time>
      </trkpt>
      <trkpt lat="41.604513000" lon="1.883761000">
        <ele>236.40</ele>
        <time>2013-07-24T10:34:39Z</time>
      </trkpt>
      <trkpt lat="41.604479000" lon="1.884012000">
        <ele>238.20</ele>
        <time>2013-07-24T10:34:45Z</time>
      </trkpt>
      <trkpt lat="41.604403000" lon="1.884242000">
        <ele>240.70</ele>
        <time>2013-07-24T10:34:52Z</time>
      </trkpt>
      <trkpt lat="41.604294000" lon="1.884454000">
        <ele>242.60</ele>
        <time>2013-07-24T10:34:59Z</time>
      </trkpt>
      <trkpt lat="41.604170000" lon="1.884665000">
        <ele>243.90</ele>
        <time>2013-07-24T10:35:06Z</time>
      </trkpt>
      <trkpt lat="41.604092000" lon="1.884875000">
        <ele>246.20</ele>
        <time>2013-07-24T10:35:13Z</time>
      </trkpt>
      <trkpt lat="41.604174000" lon="1.885105000">
        <ele>248.50</ele>
        <time>2013-07-24T10:35:20Z</time>
      </trkpt>
      <trkpt lat="41.604305000" lon="1.885313000">
        <ele>248.20</ele>
        <time>2013-07-24T10:35:26Z</time>
      </trkpt>
      <trkpt lat="41.604383000" lon="1.885550000">
        <ele>248.80</ele>
        <time>2013-07-24T10:35:31Z</time>
      </trkpt>
      <trkpt lat="41.604407000" lon="1.885803000">
        <ele>250.10</ele>
        <time>2013-07-24T10:35:37Z</time>
      </trkpt>
      <trkpt lat="41.604349000" lon="1.886061000">
        <ele>249.60</ele>
        <time>2013-07-24T10:35:43Z</time>
      </trkpt>
      <trkpt lat="41.604301000" lon="1.886356000">
        <ele>250.20</ele>
        <time>2013-07-24T10:35:49Z</time>
      </trkpt>
      <trkpt lat="41.604316000" lon="1.886608000">
        <ele>250.50</ele>
        <time>2013-07-24T10:35:54Z</time>
      </trkpt>
      <trkpt lat="41.604287000" lon="1.886865000">
        <ele>250.20</ele>
        <time>2013-07-24T10:35:59Z</time>
      </trkpt>
      <trkpt lat="41.604257000" lon="1.887111000">
        <ele>250.30</ele>
        <time>2013-07-24T10:36:04Z</time>
      </trkpt>
      <trkpt lat="41.604217000" lon="1.887366000">
        <ele>251.00</ele>
        <time>2013-07-24T10:36:10Z</time>
      </trkpt>
      <trkpt lat="41.604210000" lon="1.887644000">
        <ele>251.10</ele>
        <time>2013-07-24T10:36:15Z</time>
      </trkpt>
      <trkpt lat="41.604171000" lon="1.887917000">
        <ele>250.00</ele>
        <time>2013-07-24T10:36:20Z</time>
      </trkpt>
      <trkpt lat="41.604122000" lon="1.888247000">
        <ele>251.00</ele>
        <time>2013-07-24T10:36:25Z</time>
      </trkpt>
      <trkpt lat="41.604121000" lon="1.888559000">
        <ele>251.70</ele>
        <time>2013-07-24T10:36:30Z</time>
      </trkpt>
      <trkpt lat="41.603998000" lon="1.888759000">
        <ele>252.40</ele>
        <time>2013-07-24T10:36:35Z</time>
      </trkpt>
      <trkpt lat="41.603850000" lon="1.888894000">
        <ele>253.70</ele>
        <time>2013-07-24T10:36:40Z</time>
      </trkpt>
      <trkpt lat="41.603681000" lon="1.889058000">
        <ele>255.40</ele>
        <time>2013-07-24T10:36:46Z</time>
      </trkpt>
      <trkpt lat="41.603531000" lon="1.889238000">
        <ele>256.60</ele>
        <time>2013-07-24T10:36:52Z</time>
      </trkpt>
      <trkpt lat="41.603387000" lon="1.889435000">
        <ele>257.00</ele>
        <time>2013-07-24T10:36:58Z</time>
      </trkpt>
      <trkpt lat="41.603254000" lon="1.889657000">
        <ele>256.60</ele>
        <time>2013-07-24T10:37:03Z</time>
      </trkpt>
      <trkpt lat="41.603137000" lon="1.889864000">
        <ele>258.50</ele>
        <time>2013-07-24T10:37:08Z</time>
      </trkpt>
      <trkpt lat="41.603015000" lon="1.890055000">
        <ele>259.80</ele>
        <time>2013-07-24T10:37:13Z</time>
      </trkpt>
      <trkpt lat="41.602931000" lon="1.890268000">
        <ele>261.10</ele>
        <time>2013-07-24T10:37:17Z</time>
      </trkpt>
      <trkpt lat="41.602864000" lon="1.890510000">
        <ele>261.70</ele>
        <time>2013-07-24T10:37:22Z</time>
      </trkpt>
      <trkpt lat="41.602834000" lon="1.890773000">
        <ele>262.20</ele>
        <time>2013-07-24T10:37:27Z</time>
      </trkpt>
      <trkpt lat="41.602813000" lon="1.891039000">
        <ele>262.50</ele>
        <time>2013-07-24T10:37:32Z</time>
      </trkpt>
      <trkpt lat="41.602804000" lon="1.891319000">
        <ele>262.00</ele>
        <time>2013-07-24T10:37:37Z</time>
      </trkpt>
      <trkpt lat="41.602771000" lon="1.891562000">
        <ele>262.10</ele>
        <time>2013-07-24T10:37:41Z</time>
      </trkpt>
      <trkpt lat="41.602735000" lon="1.891807000">
        <ele>262.70</ele>
        <time>2013-07-24T10:37:45Z</time>
      </trkpt>
      <trkpt lat="41.602650000" lon="1.892063000">
        <ele>264.40</ele>
        <time>2013-07-24T10:37:50Z</time>
      </trkpt>
      <trkpt lat="41.602583000" lon="1.892337000">
        <ele>266.30</ele>
        <time>2013-07-24T10:37:56Z</time>
      </trkpt>
      <trkpt lat="41.602516000" lon="1.892588000">
        <ele>267.30</ele>
        <time>2013-07-24T10:38:02Z</time>
      </trkpt>
      <trkpt lat="41.602389000" lon="1.892807000">
        <ele>268.40</ele>
        <time>2013-07-24T10:38:08Z</time>
      </trkpt>
      <trkpt lat="41.602280000" lon="1.892985000">
        <ele>270.30</ele>
        <time>2013-07-24T10:38:14Z</time>
      </trkpt>
      <trkpt lat="41.602155000" lon="1.893165000">
        <ele>272.30</ele>
        <time>2013-07-24T10:38:20Z</time>
      </trkpt>
      <trkpt lat="41.602020000" lon="1.893341000">
        <ele>273.70</ele>
        <time>2013-07-24T10:38:26Z</time>
      </trkpt>
      <trkpt lat="41.601886000" lon="1.893501000">
        <ele>275.10</ele>
        <time>2013-07-24T10:38:32Z</time>
      </trkpt>
      <trkpt lat="41.601747000" lon="1.893674000">
        <ele>277.50</ele>
        <time>2013-07-24T10:38:39Z</time>
      </trkpt>
      <trkpt lat="41.601615000" lon="1.893863000">
        <ele>279.50</ele>
        <time>2013-07-24T10:38:47Z</time>
      </trkpt>
      <trkpt lat="41.601562000" lon="1.894069000">
        <ele>281.90</ele>
        <time>2013-07-24T10:38:56Z</time>
      </trkpt>
      <trkpt lat="41.601720000" lon="1.894124000">
        <ele>282.40</ele>
        <time>2013-07-24T10:39:05Z</time>
      </trkpt>
      <trkpt lat="41.601780000" lon="1.894356000">
        <ele>283.00</ele>
        <time>2013-07-24T10:39:12Z</time>
      </trkpt>
      <trkpt lat="41.601930000" lon="1.894505000">
        <ele>284.60</ele>
        <time>2013-07-24T10:39:20Z</time>
      </trkpt>
      <trkpt lat="41.602035000" lon="1.894711000">
        <ele>286.30</ele>
        <time>2013-07-24T10:39:27Z</time>
      </trkpt>
      <trkpt lat="41.602096000" lon="1.894946000">
        <ele>287.40</ele>
        <time>2013-07-24T10:39:34Z</time>
      </trkpt>
      <trkpt lat="41.602187000" lon="1.895193000">
        <ele>289.10</ele>
        <time>2013-07-24T10:39:42Z</time>
      </trkpt>
      <trkpt lat="41.602308000" lon="1.895401000">
        <ele>290.00</ele>
        <time>2013-07-24T10:39:49Z</time>
      </trkpt>
      <trkpt lat="41.602466000" lon="1.895561000">
        <ele>291.70</ele>
        <time>2013-07-24T10:39:56Z</time>
      </trkpt>
      <trkpt lat="41.602624000" lon="1.895680000">
        <ele>292.40</ele>
        <time>2013-07-24T10:40:02Z</time>
      </trkpt>
      <trkpt lat="41.602789000" lon="1.895791000">
        <ele>292.60</ele>
        <time>2013-07-24T10:40:08Z</time>
      </trkpt>
      <trkpt lat="41.602919000" lon="1.896005000">
        <ele>292.40</ele>
        <time>2013-07-24T10:40:14Z</time>
      </trkpt>
      <trkpt lat="41.602972000" lon="1.896248000">
        <ele>291.00</ele>
        <time>2013-07-24T10:40:18Z</time>
      </trkpt>
      <trkpt lat="41.603040000" lon="1.896473000">
        <ele>290.30</ele>
        <time>2013-07-24T10:40:22Z</time>
      </trkpt>
      <trkpt lat="41.603195000" lon="1.896704000">
        <ele>290.30</ele>
        <time>2013-07-24T10:40:26Z</time>
      </trkpt>
      <trkpt lat="41.603036000" lon="1.897020000">
        <ele>291.10</ele>
        <time>2013-07-24T10:40:31Z</time>
      </trkpt>
      <trkpt lat="41.602854000" lon="1.897220000">
        <ele>292.90</ele>
        <time>2013-07-24T10:40:36Z</time>
      </trkpt>
      <trkpt lat="41.602655000" lon="1.897289000">
        <ele>294.90</ele>
        <time>2013-07-24T10:40:42Z</time>
      </trkpt>
      <trkpt lat="41.602468000" lon="1.897385000">
        <ele>296.50</ele>
        <time>2013-07-24T10:40:48Z</time>
      </trkpt>
      <trkpt lat="41.602282000" lon="1.897414000">
        <ele>298.30</ele>
        <time>2013-07-24T10:40:55Z</time>
      </trkpt>
      <trkpt lat="41.602099000" lon="1.897477000">
        <ele>300.30</ele>
        <time>2013-07-24T10:41:02Z</time>
      </trkpt>
      <trkpt lat="41.601918000" lon="1.897559000">
        <ele>301.30</ele>
        <time>2013-07-24T10:41:09Z</time>
      </trkpt>
      <trkpt lat="41.601726000" lon="1.897674000">
        <ele>303.40</ele>
        <time>2013-07-24T10:41:17Z</time>
      </trkpt>
      <trkpt lat="41.601568000" lon="1.897827000">
        <ele>304.40</ele>
        <time>2013-07-24T10:41:25Z</time>
      </trkpt>
      <trkpt lat="41.601407000" lon="1.897949000">
        <ele>305.80</ele>
        <time>2013-07-24T10:41:32Z</time>
      </trkpt>
      <trkpt lat="41.601224000" lon="1.898079000">
        <ele>307.20</ele>
        <time>2013-07-24T10:41:40Z</time>
      </trkpt>
      <trkpt lat="41.601050000" lon="1.898205000">
        <ele>308.80</ele>
        <time>2013-07-24T10:41:48Z</time>
      </trkpt>
      <trkpt lat="41.600941000" lon="1.898400000">
        <ele>310.30</ele>
        <time>2013-07-24T10:41:55Z</time>
      </trkpt>
      <trkpt lat="41.600769000" lon="1.898532000">
        <ele>311.40</ele>
        <time>2013-07-24T10:42:01Z</time>
      </trkpt>
      <trkpt lat="41.600637000" lon="1.898734000">
        <ele>310.10</ele>
        <time>2013-07-24T10:42:08Z</time>
      </trkpt>
      <trkpt lat="41.600544000" lon="1.898957000">
        <ele>309.30</ele>
        <time>2013-07-24T10:42:12Z</time>
      </trkpt>
      <trkpt lat="41.600398000" lon="1.899085000">
        <ele>309.60</ele>
        <time>2013-07-24T10:42:16Z</time>
      </trkpt>
      <trkpt lat="41.600207000" lon="1.899177000">
        <ele>310.40</ele>
        <time>2013-07-24T10:42:21Z</time>
      </trkpt>
      <trkpt lat="41.600034000" lon="1.899372000">
        <ele>309.50</ele>
        <time>2013-07-24T10:42:26Z</time>
      </trkpt>
      <trkpt lat="41.599957000" lon="1.899602000">
        <ele>308.90</ele>
        <time>2013-07-24T10:42:30Z</time>
      </trkpt>
      <trkpt lat="41.599804000" lon="1.899708000">
        <ele>306.90</ele>
        <time>2013-07-24T10:42:35Z</time>
      </trkpt>
      <trkpt lat="41.599645000" lon="1.899826000">
        <ele>305.10</ele>
        <time>2013-07-24T10:42:39Z</time>
      </trkpt>
      <trkpt lat="41.599552000" lon="1.900059000">
        <ele>304.40</ele>
        <time>2013-07-24T10:42:43Z</time>
      </trkpt>
      <trkpt lat="41.599419000" lon="1.900331000">
        <ele>302.10</ele>
        <time>2013-07-24T10:42:47Z</time>
      </trkpt>
      <trkpt lat="41.599322000" lon="1.900540000">
        <ele>301.50</ele>
        <time>2013-07-24T10:42:50Z</time>
      </trkpt>
      <trkpt lat="41.599438000" lon="1.900758000">
        <ele>301.10</ele>
        <time>2013-07-24T10:42:54Z</time>
      </trkpt>
      <trkpt lat="41.599484000" lon="1.900993000">
        <ele>300.60</ele>
        <time>2013-07-24T10:42:58Z</time>
      </trkpt>
      <trkpt lat="41.599349000" lon="1.901183000">
        <ele>301.60</ele>
        <time>2013-07-24T10:43:03Z</time>
      </trkpt>
      <trkpt lat="41.599165000" lon="1.901220000">
        <ele>301.40</ele>
        <time>2013-07-24T10:43:08Z</time>
      </trkpt>
      <trkpt lat="41.599015000" lon="1.901073000">
        <ele>301.40</ele>
        <time>2013-07-24T10:43:13Z</time>
      </trkpt>
      <trkpt lat="41.598875000" lon="1.900852000">
        <ele>301.10</ele>
        <time>2013-07-24T10:43:18Z</time>
      </trkpt>
      <trkpt lat="41.598768000" lon="1.900624000">
        <ele>299.80</ele>
        <time>2013-07-24T10:43:22Z</time>
      </trkpt>
      <trkpt lat="41.598663000" lon="1.900412000">
        <ele>300.00</ele>
        <time>2013-07-24T10:43:26Z</time>
      </trkpt>
      <trkpt lat="41.598494000" lon="1.900231000">
        <ele>300.70</ele>
        <time>2013-07-24T10:43:31Z</time>
      </trkpt>
      <trkpt lat="41.598317000" lon="1.900149000">
        <ele>301.60</ele>
        <time>2013-07-24T10:43:36Z</time>
      </trkpt>
      <trkpt lat="41.598140000" lon="1.900084000">
        <ele>301.10</ele>
        <time>2013-07-24T10:43:41Z</time>
      </trkpt>
      <trkpt lat="41.597956000" lon="1.900086000">
        <ele>300.60</ele>
        <time>2013-07-24T10:43:45Z</time>
      </trkpt>
      <trkpt lat="41.597798000" lon="1.900190000">
        <ele>300.80</ele>
        <time>2013-07-24T10:43:49Z</time>
      </trkpt>
      <trkpt lat="41.597724000" lon="1.900451000">
        <ele>300.70</ele>
        <time>2013-07-24T10:43:54Z</time>
      </trkpt>
      <trkpt lat="41.597640000" lon="1.900669000">
        <ele>299.80</ele>
        <time>2013-07-24T10:43:58Z</time>
      </trkpt>
      <trkpt lat="41.597562000" lon="1.900936000">
        <ele>298.20</ele>
        <time>2013-07-24T10:44:02Z</time>
      </trkpt>
      <trkpt lat="41.597355000" lon="1.900961000">
        <ele>298.00</ele>
        <time>2013-07-24T10:44:06Z</time>
      </trkpt>
      <trkpt lat="41.597186000" lon="1.900870000">
        <ele>298.70</ele>
        <time>2013-07-24T10:44:10Z</time>
      </trkpt>
      <trkpt lat="41.597032000" lon="1.900898000">
        <ele>300.70</ele>
        <time>2013-07-24T10:44:19Z</time>
      </trkpt>
      <trkpt lat="41.596882000" lon="1.901052000">
        <ele>303.30</ele>
        <time>2013-07-24T10:44:29Z</time>
      </trkpt>
      <trkpt lat="41.596740000" lon="1.901241000">
        <ele>305.70</ele>
        <time>2013-07-24T10:44:40Z</time>
      </trkpt>
      <trkpt lat="41.596602000" lon="1.901412000">
        <ele>307.40</ele>
        <time>2013-07-24T10:44:51Z</time>
      </trkpt>
      <trkpt lat="41.596453000" lon="1.901550000">
        <ele>308.90</ele>
        <time>2013-07-24T10:45:00Z</time>
      </trkpt>
      <trkpt lat="41.596327000" lon="1.901726000">
        <ele>310.40</ele>
        <time>2013-07-24T10:45:10Z</time>
      </trkpt>
      <trkpt lat="41.596162000" lon="1.901880000">
        <ele>311.80</ele>
        <time>2013-07-24T10:45:20Z</time>
      </trkpt>
      <trkpt lat="41.596008000" lon="1.902002000">
        <ele>312.90</ele>
        <time>2013-07-24T10:45:29Z</time>
      </trkpt>
      <trkpt lat="41.595890000" lon="1.902202000">
        <ele>315.00</ele>
        <time>2013-07-24T10:45:38Z</time>
      </trkpt>
      <trkpt lat="41.595849000" lon="1.902443000">
        <ele>316.70</ele>
        <time>2013-07-24T10:45:49Z</time>
      </trkpt>
      <trkpt lat="41.595892000" lon="1.902681000">
        <ele>319.40</ele>
        <time>2013-07-24T10:46:04Z</time>
      </trkpt>
      <trkpt lat="41.596038000" lon="1.902825000">
        <ele>321.50</ele>
        <time>2013-07-24T10:46:15Z</time>
      </trkpt>
      <trkpt lat="41.596163000" lon="1.903039000">
        <ele>322.20</ele>
        <time>2013-07-24T10:46:28Z</time>
      </trkpt>
      <trkpt lat="41.596316000" lon="1.903207000">
        <ele>323.10</ele>
        <time>2013-07-24T10:46:39Z</time>
      </trkpt>
      <trkpt lat="41.596434000" lon="1.903443000">
        <ele>323.80</ele>
        <time>2013-07-24T10:46:50Z</time>
      </trkpt>
      <trkpt lat="41.596484000" lon="1.903716000">
        <ele>324.60</ele>
        <time>2013-07-24T10:47:01Z</time>
      </trkpt>
      <trkpt lat="41.596561000" lon="1.903967000">
        <ele>325.50</ele>
        <time>2013-07-24T10:47:10Z</time>
      </trkpt>
      <trkpt lat="41.596626000" lon="1.904219000">
        <ele>326.40</ele>
        <time>2013-07-24T10:47:20Z</time>
      </trkpt>
      <trkpt lat="41.596668000" lon="1.904492000">
        <ele>326.90</ele>
        <time>2013-07-24T10:47:31Z</time>
      </trkpt>
      <trkpt lat="41.596760000" lon="1.904706000">
        <ele>327.40</ele>
        <time>2013-07-24T10:47:38Z</time>
      </trkpt>
      <trkpt lat="41.596762000" lon="1.904969000">
        <ele>328.40</ele>
        <time>2013-07-24T10:47:47Z</time>
      </trkpt>
      <trkpt lat="41.596739000" lon="1.905216000">
        <ele>330.40</ele>
        <time>2013-07-24T10:47:55Z</time>
      </trkpt>
      <trkpt lat="41.596774000" lon="1.905461000">
        <ele>331.60</ele>
        <time>2013-07-24T10:48:04Z</time>
      </trkpt>
      <trkpt lat="41.596954000" lon="1.905585000">
        <ele>333.90</ele>
        <time>2013-07-24T10:48:13Z</time>
      </trkpt>
      <trkpt lat="41.597127000" lon="1.905584000">
        <ele>334.80</ele>
        <time>2013-07-24T10:48:35Z</time>
      </trkpt>
      <trkpt lat="41.597316000" lon="1.905579000">
        <ele>335.90</ele>
        <time>2013-07-24T10:48:44Z</time>
      </trkpt>
      <trkpt lat="41.597495000" lon="1.905698000">
        <ele>336.00</ele>
        <time>2013-07-24T10:48:52Z</time>
      </trkpt>
      <trkpt lat="41.597683000" lon="1.905763000">
        <ele>337.20</ele>
        <time>2013-07-24T10:48:59Z</time>
      </trkpt>
      <trkpt lat="41.597843000" lon="1.905616000">
        <ele>337.10</ele>
        <time>2013-07-24T10:49:07Z</time>
      </trkpt>
      <trkpt lat="41.597972000" lon="1.905430000">
        <ele>337.70</ele>
        <time>2013-07-24T10:49:14Z</time>
      </trkpt>
      <trkpt lat="41.598148000" lon="1.905339000">
        <ele>338.80</ele>
        <time>2013-07-24T10:49:23Z</time>
      </trkpt>
      <trkpt lat="41.598322000" lon="1.905478000">
        <ele>339.40</ele>
        <time>2013-07-24T10:49:30Z</time>
      </trkpt>
      <trkpt lat="41.598477000" lon="1.905562000">
        <ele>340.80</ele>
        <time>2013-07-24T10:49:38Z</time>
      </trkpt>
      <trkpt lat="41.598653000" lon="1.905580000">
        <ele>342.10</ele>
        <time>2013-07-24T10:49:47Z</time>
      </trkpt>
      <trkpt lat="41.598742000" lon="1.905795000">
        <ele>342.60</ele>
        <time>2013-07-24T10:49:56Z</time>
      </trkpt>
      <trkpt lat="41.598852000" lon="1.906039000">
        <ele>343.40</ele>
        <time>2013-07-24T10:50:06Z</time>
      </trkpt>
      <trkpt lat="41.599026000" lon="1.906186000">
        <ele>343.80</ele>
        <time>2013-07-24T10:50:15Z</time>
      </trkpt>
      <trkpt lat="41.599200000" lon="1.906349000">
        <ele>344.20</ele>
        <time>2013-07-24T10:50:23Z</time>
      </trkpt>
      <trkpt lat="41.599350000" lon="1.906542000">
        <ele>344.40</ele>
        <time>2013-07-24T10:50:29Z</time>
      </trkpt>
      <trkpt lat="41.599512000" lon="1.906711000">
        <ele>345.00</ele>
        <time>2013-07-24T10:50:35Z</time>
      </trkpt>
      <trkpt lat="41.599541000" lon="1.907018000">
        <ele>345.20</ele>
        <time>2013-07-24T10:50:52Z</time>
      </trkpt>
      <trkpt lat="41.599607000" lon="1.907267000">
        <ele>346.10</ele>
        <time>2013-07-24T10:50:59Z</time>
      </trkpt>
      <trkpt lat="41.599637000" lon="1.907523000">
        <ele>347.10</ele>
        <time>2013-07-24T10:51:06Z</time>
      </trkpt>
      <trkpt lat="41.599710000" lon="1.907827000">
        <ele>346.60</ele>
        <time>2013-07-24T10:51:12Z</time>
      </trkpt>
      <trkpt lat="41.599717000" lon="1.908118000">
        <ele>348.20</ele>
        <time>2013-07-24T10:51:19Z</time>
      </trkpt>
      <trkpt lat="41.599562000" lon="1.908299000">
        <ele>349.20</ele>
        <time>2013-07-24T10:51:28Z</time>
      </trkpt>
      <trkpt lat="41.599514000" lon="1.908528000">
        <ele>348.50</ele>
        <time>2013-07-24T10:51:34Z</time>
      </trkpt>
      <trkpt lat="41.599468000" lon="1.908806000">
        <ele>348.40</ele>
        <time>2013-07-24T10:51:40Z</time>
      </trkpt>
      <trkpt lat="41.599367000" lon="1.909039000">
        <ele>348.00</ele>
        <time>2013-07-24T10:51:46Z</time>
      </trkpt>
      <trkpt lat="41.599264000" lon="1.909240000">
        <ele>348.60</ele>
        <time>2013-07-24T10:51:52Z</time>
      </trkpt>
      <trkpt lat="41.599190000" lon="1.909671000">
        <ele>349.20</ele>
        <time>2013-07-24T10:52:04Z</time>
      </trkpt>
      <trkpt lat="41.599305000" lon="1.909950000">
        <ele>346.10</ele>
        <time>2013-07-24T10:52:16Z</time>
      </trkpt>
      <trkpt lat="41.599464000" lon="1.910127000">
        <ele>344.70</ele>
        <time>2013-07-24T10:52:23Z</time>
      </trkpt>
      <trkpt lat="41.599539000" lon="1.910364000">
        <ele>343.90</ele>
        <time>2013-07-24T10:52:31Z</time>
      </trkpt>
      <trkpt lat="41.599500000" lon="1.910634000">
        <ele>343.40</ele>
        <time>2013-07-24T10:52:37Z</time>
      </trkpt>
      <trkpt lat="41.599325000" lon="1.910678000">
        <ele>343.90</ele>
        <time>2013-07-24T10:52:43Z</time>
      </trkpt>
      <trkpt lat="41.599144000" lon="1.910625000">
        <ele>344.90</ele>
        <time>2013-07-24T10:52:49Z</time>
      </trkpt>
      <trkpt lat="41.598948000" lon="1.910598000">
        <ele>344.70</ele>
        <time>2013-07-24T10:52:55Z</time>
      </trkpt>
      <trkpt lat="41.598758000" lon="1.910588000">
        <ele>344.90</ele>
        <time>2013-07-24T10:53:00Z</time>
      </trkpt>
      <trkpt lat="41.598590000" lon="1.910652000">
        <ele>345.90</ele>
        <time>2013-07-24T10:53:07Z</time>
      </trkpt>
      <trkpt lat="41.598409000" lon="1.910671000">
        <ele>348.40</ele>
        <time>2013-07-24T10:53:16Z</time>
      </trkpt>
      <trkpt lat="41.598230000" lon="1.910735000">
        <ele>349.20</ele>
        <time>2013-07-24T10:53:24Z</time>
      </trkpt>
      <trkpt lat="41.598043000" lon="1.910788000">
        <ele>351.20</ele>
        <time>2013-07-24T10:53:33Z</time>
      </trkpt>
      <trkpt lat="41.597911000" lon="1.910986000">
        <ele>352.70</ele>
        <time>2013-07-24T10:53:43Z</time>
      </trkpt>
      <trkpt lat="41.597825000" lon="1.911197000">
        <ele>353.00</ele>
        <time>2013-07-24T10:53:51Z</time>
      </trkpt>
      <trkpt lat="41.597652000" lon="1.911327000">
        <ele>353.60</ele>
        <time>2013-07-24T10:53:59Z</time>
      </trkpt>
      <trkpt lat="41.597489000" lon="1.911429000">
        <ele>355.60</ele>
        <time>2013-07-24T10:54:08Z</time>
      </trkpt>
      <trkpt lat="41.597373000" lon="1.911606000">
        <ele>355.80</ele>
        <time>2013-07-24T10:54:25Z</time>
      </trkpt>
      <trkpt lat="41.597143000" lon="1.911683000">
        <ele>353.50</ele>
        <time>2013-07-24T10:54:32Z</time>
      </trkpt>
      <trkpt lat="41.596985000" lon="1.911808000">
        <ele>356.40</ele>
        <time>2013-07-24T10:54:38Z</time>
      </trkpt>
      <trkpt lat="41.596806000" lon="1.911843000">
        <ele>359.90</ele>
        <time>2013-07-24T10:54:48Z</time>
      </trkpt>
      <trkpt lat="41.596616000" lon="1.911816000">
        <ele>362.00</ele>
        <time>2013-07-24T10:55:08Z</time>
      </trkpt>
      <trkpt lat="41.596415000" lon="1.911805000">
        <ele>363.60</ele>
        <time>2013-07-24T10:55:17Z</time>
      </trkpt>
      <trkpt lat="41.596250000" lon="1.911777000">
        <ele>363.00</ele>
        <time>2013-07-24T10:55:24Z</time>
      </trkpt>
      <trkpt lat="41.596127000" lon="1.911972000">
        <ele>363.30</ele>
        <time>2013-07-24T10:55:29Z</time>
      </trkpt>
      <trkpt lat="41.595990000" lon="1.912182000">
        <ele>364.10</ele>
        <time>2013-07-24T10:55:35Z</time>
      </trkpt>
      <trkpt lat="41.595828000" lon="1.912315000">
        <ele>366.10</ele>
        <time>2013-07-24T10:55:42Z</time>
      </trkpt>
      <trkpt lat="41.595703000" lon="1.912480000">
        <ele>367.70</ele>
        <time>2013-07-24T10:55:49Z</time>
      </trkpt>
      <trkpt lat="41.595533000" lon="1.912516000">
        <ele>367.70</ele>
        <time>2013-07-24T10:56:01Z</time>
      </trkpt>
      <trkpt lat="41.595363000" lon="1.912415000">
        <ele>366.80</ele>
        <time>2013-07-24T10:56:08Z</time>
      </trkpt>
      <trkpt lat="41.595164000" lon="1.912485000">
        <ele>365.90</ele>
        <time>2013-07-24T10:56:13Z</time>
      </trkpt>
      <trkpt lat="41.594949000" lon="1.912583000">
        <ele>366.00</ele>
        <time>2013-07-24T10:56:18Z</time>
      </trkpt>
      <trkpt lat="41.594762000" lon="1.912616000">
        <ele>365.50</ele>
        <time>2013-07-24T10:56:23Z</time>
      </trkpt>
      <trkpt lat="41.594583000" lon="1.912553000">
        <ele>363.40</ele>
        <time>2013-07-24T10:56:27Z</time>
      </trkpt>
      <trkpt lat="41.594417000" lon="1.912454000">
        <ele>362.20</ele>
        <time>2013-07-24T10:56:31Z</time>
      </trkpt>
      <trkpt lat="41.594280000" lon="1.912646000">
        <ele>359.50</ele>
        <time>2013-07-24T10:56:37Z</time>
      </trkpt>
      <trkpt lat="41.594151000" lon="1.912877000">
        <ele>356.10</ele>
        <time>2013-07-24T10:56:41Z</time>
      </trkpt>
      <trkpt lat="41.594053000" lon="1.913089000">
        <ele>355.90</ele>
        <time>2013-07-24T10:56:45Z</time>
      </trkpt>
      <trkpt lat="41.593874000" lon="1.913164000">
        <ele>354.90</ele>
        <time>2013-07-24T10:56:50Z</time>
      </trkpt>
      <trkpt lat="41.593709000" lon="1.913046000">
        <ele>354.10</ele>
        <time>2013-07-24T10:56:54Z</time>
      </trkpt>
      <trkpt lat="41.593529000" lon="1.912876000">
        <ele>353.10</ele>
        <time>2013-07-24T10:56:58Z</time>
      </trkpt>
      <trkpt lat="41.593337000" lon="1.912704000">
        <ele>352.20</ele>
        <time>2013-07-24T10:57:02Z</time>
      </trkpt>
      <trkpt lat="41.593142000" lon="1.912535000">
        <ele>350.90</ele>
        <time>2013-07-24T10:57:06Z</time>
      </trkpt>
      <trkpt lat="41.592959000" lon="1.912362000">
        <ele>349.80</ele>
        <time>2013-07-24T10:57:10Z</time>
      </trkpt>
      <trkpt lat="41.592759000" lon="1.912216000">
        <ele>349.80</ele>
        <time>2013-07-24T10:57:14Z</time>
      </trkpt>
      <trkpt lat="41.592588000" lon="1.912243000">
        <ele>349.90</ele>
        <time>2013-07-24T10:57:20Z</time>
      </trkpt>
      <trkpt lat="41.592458000" lon="1.912481000">
        <ele>349.30</ele>
        <time>2013-07-24T10:57:27Z</time>
      </trkpt>
      <trkpt lat="41.592350000" lon="1.912665000">
        <ele>348.70</ele>
        <time>2013-07-24T10:57:34Z</time>
      </trkpt>
      <trkpt lat="41.592160000" lon="1.912701000">
        <ele>347.50</ele>
        <time>2013-07-24T10:58:00Z</time>
      </trkpt>
      <trkpt lat="41.591984000" lon="1.912779000">
        <ele>348.40</ele>
        <time>2013-07-24T11:01:24Z</time>
      </trkpt>
      <trkpt lat="41.591804000" lon="1.912758000">
        <ele>348.50</ele>
        <time>2013-07-24T11:01:31Z</time>
      </trkpt>
      <trkpt lat="41.591622000" lon="1.912699000">
        <ele>348.80</ele>
        <time>2013-07-24T11:01:37Z</time>
      </trkpt>
      <trkpt lat="41.591425000" lon="1.912642000">
        <ele>349.90</ele>
        <time>2013-07-24T11:01:43Z</time>
      </trkpt>
      <trkpt lat="41.591223000" lon="1.912618000">
        <ele>350.60</ele>
        <time>2013-07-24T11:01:49Z</time>
      </trkpt>
      <trkpt lat="41.591027000" lon="1.912622000">
        <ele>351.90</ele>
        <time>2013-07-24T11:01:55Z</time>
      </trkpt>
      <trkpt lat="41.590831000" lon="1.912661000">
        <ele>352.30</ele>
        <time>2013-07-24T11:02:01Z</time>
      </trkpt>
      <trkpt lat="41.590631000" lon="1.912722000">
        <ele>352.40</ele>
        <time>2013-07-24T11:02:07Z</time>
      </trkpt>
      <trkpt lat="41.590435000" lon="1.912822000">
        <ele>352.40</ele>
        <time>2013-07-24T11:02:14Z</time>
      </trkpt>
      <trkpt lat="41.590269000" lon="1.912935000">
        <ele>351.80</ele>
        <time>2013-07-24T11:02:20Z</time>
      </trkpt>
      <trkpt lat="41.590093000" lon="1.913056000">
        <ele>351.60</ele>
        <time>2013-07-24T11:02:27Z</time>
      </trkpt>
      <trkpt lat="41.589973000" lon="1.913250000">
        <ele>350.00</ele>
        <time>2013-07-24T11:02:35Z</time>
      </trkpt>
      <trkpt lat="41.589823000" lon="1.913397000">
        <ele>348.70</ele>
        <time>2013-07-24T11:02:39Z</time>
      </trkpt>
      <trkpt lat="41.589611000" lon="1.913565000">
        <ele>346.10</ele>
        <time>2013-07-24T11:02:43Z</time>
      </trkpt>
      <trkpt lat="41.589422000" lon="1.913680000">
        <ele>344.80</ele>
        <time>2013-07-24T11:02:46Z</time>
      </trkpt>
      <trkpt lat="41.589221000" lon="1.913744000">
        <ele>343.60</ele>
        <time>2013-07-24T11:02:49Z</time>
      </trkpt>
      <trkpt lat="41.589000000" lon="1.913754000">
        <ele>342.80</ele>
        <time>2013-07-24T11:02:52Z</time>
      </trkpt>
      <trkpt lat="41.588796000" lon="1.913715000">
        <ele>342.90</ele>
        <time>2013-07-24T11:02:55Z</time>
      </trkpt>
      <trkpt lat="41.588618000" lon="1.913638000">
        <ele>343.20</ele>
        <time>2013-07-24T11:02:58Z</time>
      </trkpt>
      <trkpt lat="41.588408000" lon="1.913522000">
        <ele>343.40</ele>
        <time>2013-07-24T11:03:02Z</time>
      </trkpt>
      <trkpt lat="41.588209000" lon="1.913403000">
        <ele>343.90</ele>
        <time>2013-07-24T11:03:06Z</time>
      </trkpt>
      <trkpt lat="41.588012000" lon="1.913274000">
        <ele>344.20</ele>
        <time>2013-07-24T11:03:10Z</time>
      </trkpt>
      <trkpt lat="41.587848000" lon="1.913084000">
        <ele>344.30</ele>
        <time>2013-07-24T11:03:14Z</time>
      </trkpt>
      <trkpt lat="41.587747000" lon="1.912843000">
        <ele>344.40</ele>
        <time>2013-07-24T11:03:18Z</time>
      </trkpt>
      <trkpt lat="41.587644000" lon="1.912901000">
        <ele>343.10</ele>
        <time>2013-07-24T11:03:24Z</time>
      </trkpt>
      <trkpt lat="41.587669000" lon="1.913177000">
        <ele>342.10</ele>
        <time>2013-07-24T11:03:29Z</time>
      </trkpt>
      <trkpt lat="41.587484000" lon="1.913208000">
        <ele>344.50</ele>
        <time>2013-07-24T11:03:37Z</time>
      </trkpt>
      <trkpt lat="41.587313000" lon="1.913129000">
        <ele>347.40</ele>
        <time>2013-07-24T11:03:45Z</time>
      </trkpt>
      <trkpt lat="41.587140000" lon="1.913062000">
        <ele>349.00</ele>
        <time>2013-07-24T11:03:54Z</time>
      </trkpt>
      <trkpt lat="41.586971000" lon="1.912971000">
        <ele>350.10</ele>
        <time>2013-07-24T11:04:02Z</time>
      </trkpt>
      <trkpt lat="41.586781000" lon="1.912879000">
        <ele>351.70</ele>
        <time>2013-07-24T11:04:10Z</time>
      </trkpt>
      <trkpt lat="41.586592000" lon="1.912894000">
        <ele>353.20</ele>
        <time>2013-07-24T11:04:17Z</time>
      </trkpt>
      <trkpt lat="41.586398000" lon="1.912992000">
        <ele>354.90</ele>
        <time>2013-07-24T11:04:25Z</time>
      </trkpt>
      <trkpt lat="41.586222000" lon="1.913068000">
        <ele>355.80</ele>
        <time>2013-07-24T11:04:33Z</time>
      </trkpt>
      <trkpt lat="41.586024000" lon="1.913093000">
        <ele>356.40</ele>
        <time>2013-07-24T11:04:41Z</time>
      </trkpt>
      <trkpt lat="41.585839000" lon="1.913083000">
        <ele>356.40</ele>
        <time>2013-07-24T11:04:49Z</time>
      </trkpt>
      <trkpt lat="41.585657000" lon="1.913224000">
        <ele>354.40</ele>
        <time>2013-07-24T11:04:54Z</time>
      </trkpt>
      <trkpt lat="41.585552000" lon="1.913438000">
        <ele>353.30</ele>
        <time>2013-07-24T11:04:58Z</time>
      </trkpt>
      <trkpt lat="41.585376000" lon="1.913590000">
        <ele>351.00</ele>
        <time>2013-07-24T11:05:03Z</time>
      </trkpt>
      <trkpt lat="41.585192000" lon="1.913613000">
        <ele>347.70</ele>
        <time>2013-07-24T11:05:09Z</time>
      </trkpt>
      <trkpt lat="41.585012000" lon="1.913665000">
        <ele>344.60</ele>
        <time>2013-07-24T11:05:19Z</time>
      </trkpt>
      <trkpt lat="41.584850000" lon="1.913538000">
        <ele>341.10</ele>
        <time>2013-07-24T11:05:25Z</time>
      </trkpt>
      <trkpt lat="41.584716000" lon="1.913305000">
        <ele>340.70</ele>
        <time>2013-07-24T11:05:30Z</time>
      </trkpt>
      <trkpt lat="41.584526000" lon="1.913307000">
        <ele>337.70</ele>
        <time>2013-07-24T11:05:35Z</time>
      </trkpt>
      <trkpt lat="41.584344000" lon="1.913320000">
        <ele>334.10</ele>
        <time>2013-07-24T11:05:39Z</time>
      </trkpt>
      <trkpt lat="41.584149000" lon="1.913368000">
        <ele>332.60</ele>
        <time>2013-07-24T11:05:45Z</time>
      </trkpt>
      <trkpt lat="41.583941000" lon="1.913305000">
        <ele>332.40</ele>
        <time>2013-07-24T11:05:51Z</time>
      </trkpt>
      <trkpt lat="41.583752000" lon="1.913371000">
        <ele>332.10</ele>
        <time>2013-07-24T11:05:56Z</time>
      </trkpt>
      <trkpt lat="41.583553000" lon="1.913455000">
        <ele>333.40</ele>
        <time>2013-07-24T11:06:02Z</time>
      </trkpt>
      <trkpt lat="41.583511000" lon="1.913684000">
        <ele>334.00</ele>
        <time>2013-07-24T11:06:09Z</time>
      </trkpt>
      <trkpt lat="41.583486000" lon="1.913971000">
        <ele>333.10</ele>
        <time>2013-07-24T11:06:15Z</time>
      </trkpt>
      <trkpt lat="41.583515000" lon="1.914234000">
        <ele>333.60</ele>
        <time>2013-07-24T11:06:21Z</time>
      </trkpt>
      <trkpt lat="41.583554000" lon="1.914503000">
        <ele>332.50</ele>
        <time>2013-07-24T11:06:27Z</time>
      </trkpt>
      <trkpt lat="41.583530000" lon="1.914761000">
        <ele>331.80</ele>
        <time>2013-07-24T11:06:31Z</time>
      </trkpt>
      <trkpt lat="41.583625000" lon="1.915007000">
        <ele>332.90</ele>
        <time>2013-07-24T11:06:36Z</time>
      </trkpt>
      <trkpt lat="41.583692000" lon="1.915240000">
        <ele>334.40</ele>
        <time>2013-07-24T11:06:42Z</time>
      </trkpt>
      <trkpt lat="41.583693000" lon="1.915541000">
        <ele>333.00</ele>
        <time>2013-07-24T11:06:48Z</time>
      </trkpt>
      <trkpt lat="41.583746000" lon="1.915796000">
        <ele>333.80</ele>
        <time>2013-07-24T11:06:53Z</time>
      </trkpt>
      <trkpt lat="41.583780000" lon="1.916027000">
        <ele>334.40</ele>
        <time>2013-07-24T11:06:58Z</time>
      </trkpt>
      <trkpt lat="41.583785000" lon="1.916274000">
        <ele>334.00</ele>
        <time>2013-07-24T11:07:03Z</time>
      </trkpt>
      <trkpt lat="41.583782000" lon="1.916240000">
        <ele>333.70</ele>
        <time>2013-07-24T11:07:40Z</time>
      </trkpt>
      <trkpt lat="41.583775000" lon="1.915960000">
        <ele>334.30</ele>
        <time>2013-07-24T11:07:47Z</time>
      </trkpt>
      <trkpt lat="41.583771000" lon="1.915954000">
        <ele>334.60</ele>
        <time>2013-07-24T11:07:59Z</time>
      </trkpt>
      <trkpt lat="41.583782000" lon="1.916199000">
        <ele>334.20</ele>
        <time>2013-07-24T11:08:08Z</time>
      </trkpt>
      <trkpt lat="41.583737000" lon="1.916456000">
        <ele>332.80</ele>
        <time>2013-07-24T11:08:14Z</time>
      </trkpt>
      <trkpt lat="41.583856000" lon="1.916653000">
        <ele>333.90</ele>
        <time>2013-07-24T11:08:21Z</time>
      </trkpt>
      <trkpt lat="41.583962000" lon="1.916908000">
        <ele>331.80</ele>
        <time>2013-07-24T11:08:27Z</time>
      </trkpt>
      <trkpt lat="41.584017000" lon="1.917187000">
        <ele>330.40</ele>
        <time>2013-07-24T11:08:31Z</time>
      </trkpt>
      <trkpt lat="41.584069000" lon="1.917491000">
        <ele>330.00</ele>
        <time>2013-07-24T11:08:35Z</time>
      </trkpt>
      <trkpt lat="41.584097000" lon="1.917740000">
        <ele>330.70</ele>
        <time>2013-07-24T11:08:39Z</time>
      </trkpt>
      <trkpt lat="41.584094000" lon="1.918009000">
        <ele>330.90</ele>
        <time>2013-07-24T11:08:44Z</time>
      </trkpt>
      <trkpt lat="41.584098000" lon="1.918280000">
        <ele>329.70</ele>
        <time>2013-07-24T11:08:49Z</time>
      </trkpt>
      <trkpt lat="41.584187000" lon="1.918556000">
        <ele>327.70</ele>
        <time>2013-07-24T11:08:53Z</time>
      </trkpt>
      <trkpt lat="41.584306000" lon="1.918776000">
        <ele>327.30</ele>
        <time>2013-07-24T11:08:56Z</time>
      </trkpt>
      <trkpt lat="41.584358000" lon="1.919053000">
        <ele>327.40</ele>
        <time>2013-07-24T11:09:00Z</time>
      </trkpt>
      <trkpt lat="41.584338000" lon="1.919327000">
        <ele>327.40</ele>
        <time>2013-07-24T11:09:04Z</time>
      </trkpt>
      <trkpt lat="41.584306000" lon="1.919642000">
        <ele>328.10</ele>
        <time>2013-07-24T11:09:09Z</time>
      </trkpt>
      <trkpt lat="41.584321000" lon="1.919928000">
        <ele>327.90</ele>
        <time>2013-07-24T11:09:14Z</time>
      </trkpt>
      <trkpt lat="41.584371000" lon="1.920164000">
        <ele>327.50</ele>
        <time>2013-07-24T11:09:18Z</time>
      </trkpt>
      <trkpt lat="41.584406000" lon="1.920390000">
        <ele>327.70</ele>
        <time>2013-07-24T11:09:22Z</time>
      </trkpt>
      <trkpt lat="41.584419000" lon="1.920641000">
        <ele>327.70</ele>
        <time>2013-07-24T11:09:26Z</time>
      </trkpt>
      <trkpt lat="41.584427000" lon="1.920884000">
        <ele>328.20</ele>
        <time>2013-07-24T11:09:31Z</time>
      </trkpt>
      <trkpt lat="41.584585000" lon="1.921111000">
        <ele>325.30</ele>
        <time>2013-07-24T11:09:36Z</time>
      </trkpt>
      <trkpt lat="41.584788000" lon="1.921265000">
        <ele>321.00</ele>
        <time>2013-07-24T11:09:40Z</time>
      </trkpt>
      <trkpt lat="41.585001000" lon="1.921376000">
        <ele>315.90</ele>
        <time>2013-07-24T11:09:44Z</time>
      </trkpt>
      <trkpt lat="41.585155000" lon="1.921533000">
        <ele>312.50</ele>
        <time>2013-07-24T11:09:48Z</time>
      </trkpt>
      <trkpt lat="41.585145000" lon="1.921772000">
        <ele>311.70</ele>
        <time>2013-07-24T11:09:54Z</time>
      </trkpt>
      <trkpt lat="41.584971000" lon="1.921794000">
        <ele>312.10</ele>
        <time>2013-07-24T11:09:59Z</time>
      </trkpt>
      <trkpt lat="41.584766000" lon="1.921736000">
        <ele>312.80</ele>
        <time>2013-07-24T11:10:05Z</time>
      </trkpt>
      <trkpt lat="41.584542000" lon="1.921719000">
        <ele>313.50</ele>
        <time>2013-07-24T11:10:11Z</time>
      </trkpt>
      <trkpt lat="41.584357000" lon="1.921731000">
        <ele>314.00</ele>
        <time>2013-07-24T11:10:16Z</time>
      </trkpt>
      <trkpt lat="41.584163000" lon="1.921765000">
        <ele>314.90</ele>
        <time>2013-07-24T11:10:21Z</time>
      </trkpt>
      <trkpt lat="41.583980000" lon="1.921799000">
        <ele>315.80</ele>
        <time>2013-07-24T11:10:26Z</time>
      </trkpt>
      <trkpt lat="41.583799000" lon="1.921784000">
        <ele>316.90</ele>
        <time>2013-07-24T11:10:31Z</time>
      </trkpt>
      <trkpt lat="41.583639000" lon="1.921665000">
        <ele>317.50</ele>
        <time>2013-07-24T11:10:36Z</time>
      </trkpt>
      <trkpt lat="41.583487000" lon="1.921484000">
        <ele>317.70</ele>
        <time>2013-07-24T11:10:41Z</time>
      </trkpt>
      <trkpt lat="41.583318000" lon="1.921328000">
        <ele>316.30</ele>
        <time>2013-07-24T11:10:45Z</time>
      </trkpt>
      <trkpt lat="41.583092000" lon="1.921227000">
        <ele>315.00</ele>
        <time>2013-07-24T11:10:49Z</time>
      </trkpt>
      <trkpt lat="41.582904000" lon="1.921235000">
        <ele>313.50</ele>
        <time>2013-07-24T11:10:52Z</time>
      </trkpt>
      <trkpt lat="41.582704000" lon="1.921296000">
        <ele>312.40</ele>
        <time>2013-07-24T11:10:55Z</time>
      </trkpt>
      <trkpt lat="41.582498000" lon="1.921364000">
        <ele>311.90</ele>
        <time>2013-07-24T11:10:58Z</time>
      </trkpt>
      <trkpt lat="41.582278000" lon="1.921433000">
        <ele>312.00</ele>
        <time>2013-07-24T11:11:01Z</time>
      </trkpt>
      <trkpt lat="41.582046000" lon="1.921450000">
        <ele>310.40</ele>
        <time>2013-07-24T11:11:04Z</time>
      </trkpt>
      <trkpt lat="41.581812000" lon="1.921317000">
        <ele>306.90</ele>
        <time>2013-07-24T11:11:07Z</time>
      </trkpt>
      <trkpt lat="41.581591000" lon="1.921123000">
        <ele>305.30</ele>
        <time>2013-07-24T11:11:10Z</time>
      </trkpt>
      <trkpt lat="41.581374000" lon="1.920933000">
        <ele>304.30</ele>
        <time>2013-07-24T11:11:13Z</time>
      </trkpt>
      <trkpt lat="41.581155000" lon="1.920739000">
        <ele>303.40</ele>
        <time>2013-07-24T11:11:16Z</time>
      </trkpt>
      <trkpt lat="41.580925000" lon="1.920553000">
        <ele>301.60</ele>
        <time>2013-07-24T11:11:19Z</time>
      </trkpt>
      <trkpt lat="41.580770000" lon="1.920423000">
        <ele>301.10</ele>
        <time>2013-07-24T11:11:21Z</time>
      </trkpt>
      <trkpt lat="41.580608000" lon="1.920305000">
        <ele>299.90</ele>
        <time>2013-07-24T11:11:23Z</time>
      </trkpt>
      <trkpt lat="41.580434000" lon="1.920216000">
        <ele>298.80</ele>
        <time>2013-07-24T11:11:25Z</time>
      </trkpt>
      <trkpt lat="41.580260000" lon="1.920148000">
        <ele>298.60</ele>
        <time>2013-07-24T11:11:27Z</time>
      </trkpt>
      <trkpt lat="41.580002000" lon="1.920072000">
        <ele>298.40</ele>
        <time>2013-07-24T11:11:30Z</time>
      </trkpt>
      <trkpt lat="41.579763000" lon="1.920058000">
        <ele>298.70</ele>
        <time>2013-07-24T11:11:33Z</time>
      </trkpt>
      <trkpt lat="41.579530000" lon="1.920124000">
        <ele>298.20</ele>
        <time>2013-07-24T11:11:36Z</time>
      </trkpt>
      <trkpt lat="41.579301000" lon="1.920201000">
        <ele>298.40</ele>
        <time>2013-07-24T11:11:39Z</time>
      </trkpt>
      <trkpt lat="41.579071000" lon="1.920231000">
        <ele>298.70</ele>
        <time>2013-07-24T11:11:42Z</time>
      </trkpt>
      <trkpt lat="41.578837000" lon="1.920223000">
        <ele>297.90</ele>
        <time>2013-07-24T11:11:45Z</time>
      </trkpt>
      <trkpt lat="41.578605000" lon="1.920209000">
        <ele>297.90</ele>
        <time>2013-07-24T11:11:48Z</time>
      </trkpt>
      <trkpt lat="41.578369000" lon="1.920192000">
        <ele>297.20</ele>
        <time>2013-07-24T11:11:51Z</time>
      </trkpt>
      <trkpt lat="41.578145000" lon="1.920177000">
        <ele>297.30</ele>
        <time>2013-07-24T11:11:54Z</time>
      </trkpt>
      <trkpt lat="41.577930000" lon="1.920150000">
        <ele>297.80</ele>
        <time>2013-07-24T11:11:57Z</time>
      </trkpt>
      <trkpt lat="41.577713000" lon="1.920071000">
        <ele>297.20</ele>
        <time>2013-07-24T11:12:00Z</time>
      </trkpt>
      <trkpt lat="41.577510000" lon="1.919928000">
        <ele>296.60</ele>
        <time>2013-07-24T11:12:03Z</time>
      </trkpt>
      <trkpt lat="41.577289000" lon="1.919761000">
        <ele>295.00</ele>
        <time>2013-07-24T11:12:06Z</time>
      </trkpt>
      <trkpt lat="41.577050000" lon="1.919589000">
        <ele>293.40</ele>
        <time>2013-07-24T11:12:09Z</time>
      </trkpt>
      <trkpt lat="41.576868000" lon="1.919497000">
        <ele>292.40</ele>
        <time>2013-07-24T11:12:11Z</time>
      </trkpt>
      <trkpt lat="41.576673000" lon="1.919450000">
        <ele>291.50</ele>
        <time>2013-07-24T11:12:13Z</time>
      </trkpt>
      <trkpt lat="41.576473000" lon="1.919446000">
        <ele>290.10</ele>
        <time>2013-07-24T11:12:15Z</time>
      </trkpt>
      <trkpt lat="41.576282000" lon="1.919500000">
        <ele>290.20</ele>
        <time>2013-07-24T11:12:17Z</time>
      </trkpt>
      <trkpt lat="41.576113000" lon="1.919598000">
        <ele>290.30</ele>
        <time>2013-07-24T11:12:19Z</time>
      </trkpt>
      <trkpt lat="41.575949000" lon="1.919714000">
        <ele>290.40</ele>
        <time>2013-07-24T11:12:21Z</time>
      </trkpt>
      <trkpt lat="41.575701000" lon="1.919779000">
        <ele>290.30</ele>
        <time>2013-07-24T11:12:24Z</time>
      </trkpt>
      <trkpt lat="41.575468000" lon="1.919681000">
        <ele>291.00</ele>
        <time>2013-07-24T11:12:27Z</time>
      </trkpt>
      <trkpt lat="41.575256000" lon="1.919789000">
        <ele>291.00</ele>
        <time>2013-07-24T11:12:30Z</time>
      </trkpt>
      <trkpt lat="41.575107000" lon="1.920018000">
        <ele>291.60</ele>
        <time>2013-07-24T11:12:33Z</time>
      </trkpt>
      <trkpt lat="41.574968000" lon="1.920251000">
        <ele>291.10</ele>
        <time>2013-07-24T11:12:36Z</time>
      </trkpt>
      <trkpt lat="41.574770000" lon="1.920373000">
        <ele>290.80</ele>
        <time>2013-07-24T11:12:39Z</time>
      </trkpt>
      <trkpt lat="41.574558000" lon="1.920332000">
        <ele>290.10</ele>
        <time>2013-07-24T11:12:42Z</time>
      </trkpt>
      <trkpt lat="41.574414000" lon="1.920108000">
        <ele>290.10</ele>
        <time>2013-07-24T11:12:45Z</time>
      </trkpt>
      <trkpt lat="41.574310000" lon="1.919838000">
        <ele>289.20</ele>
        <time>2013-07-24T11:12:48Z</time>
      </trkpt>
      <trkpt lat="41.574147000" lon="1.919620000">
        <ele>289.00</ele>
        <time>2013-07-24T11:12:51Z</time>
      </trkpt>
      <trkpt lat="41.573923000" lon="1.919539000">
        <ele>288.10</ele>
        <time>2013-07-24T11:12:54Z</time>
      </trkpt>
      <trkpt lat="41.573677000" lon="1.919498000">
        <ele>287.00</ele>
        <time>2013-07-24T11:12:57Z</time>
      </trkpt>
      <trkpt lat="41.573434000" lon="1.919587000">
        <ele>285.90</ele>
        <time>2013-07-24T11:13:00Z</time>
      </trkpt>
      <trkpt lat="41.573236000" lon="1.919814000">
        <ele>285.60</ele>
        <time>2013-07-24T11:13:03Z</time>
      </trkpt>
      <trkpt lat="41.573110000" lon="1.919991000">
        <ele>284.00</ele>
        <time>2013-07-24T11:13:05Z</time>
      </trkpt>
      <trkpt lat="41.572916000" lon="1.920256000">
        <ele>284.00</ele>
        <time>2013-07-24T11:13:08Z</time>
      </trkpt>
      <trkpt lat="41.572720000" lon="1.920485000">
        <ele>284.80</ele>
        <time>2013-07-24T11:13:11Z</time>
      </trkpt>
      <trkpt lat="41.572519000" lon="1.920699000">
        <ele>285.20</ele>
        <time>2013-07-24T11:13:14Z</time>
      </trkpt>
      <trkpt lat="41.572310000" lon="1.920901000">
        <ele>284.80</ele>
        <time>2013-07-24T11:13:17Z</time>
      </trkpt>
      <trkpt lat="41.572073000" lon="1.921015000">
        <ele>284.50</ele>
        <time>2013-07-24T11:13:20Z</time>
      </trkpt>
      <trkpt lat="41.571827000" lon="1.921066000">
        <ele>284.50</ele>
        <time>2013-07-24T11:13:23Z</time>
      </trkpt>
      <trkpt lat="41.571583000" lon="1.921081000">
        <ele>283.40</ele>
        <time>2013-07-24T11:13:26Z</time>
      </trkpt>
      <trkpt lat="41.571348000" lon="1.920979000">
        <ele>283.90</ele>
        <time>2013-07-24T11:13:29Z</time>
      </trkpt>
      <trkpt lat="41.571085000" lon="1.920926000">
        <ele>283.40</ele>
        <time>2013-07-24T11:13:32Z</time>
      </trkpt>
      <trkpt lat="41.570914000" lon="1.920894000">
        <ele>282.50</ele>
        <time>2013-07-24T11:13:34Z</time>
      </trkpt>
      <trkpt lat="41.570728000" lon="1.920862000">
        <ele>281.30</ele>
        <time>2013-07-24T11:13:36Z</time>
      </trkpt>
      <trkpt lat="41.570527000" lon="1.920829000">
        <ele>279.40</ele>
        <time>2013-07-24T11:13:38Z</time>
      </trkpt>
      <trkpt lat="41.570312000" lon="1.920776000">
        <ele>277.40</ele>
        <time>2013-07-24T11:13:40Z</time>
      </trkpt>
      <trkpt lat="41.570099000" lon="1.920705000">
        <ele>275.90</ele>
        <time>2013-07-24T11:13:42Z</time>
      </trkpt>
      <trkpt lat="41.569902000" lon="1.920725000">
        <ele>274.30</ele>
        <time>2013-07-24T11:13:44Z</time>
      </trkpt>
      <trkpt lat="41.569750000" lon="1.920898000">
        <ele>272.80</ele>
        <time>2013-07-24T11:13:46Z</time>
      </trkpt>
      <trkpt lat="41.569612000" lon="1.921119000">
        <ele>270.70</ele>
        <time>2013-07-24T11:13:48Z</time>
      </trkpt>
      <trkpt lat="41.569448000" lon="1.921339000">
        <ele>268.10</ele>
        <time>2013-07-24T11:13:50Z</time>
      </trkpt>
      <trkpt lat="41.569261000" lon="1.921537000">
        <ele>266.30</ele>
        <time>2013-07-24T11:13:52Z</time>
      </trkpt>
      <trkpt lat="41.569049000" lon="1.921708000">
        <ele>264.50</ele>
        <time>2013-07-24T11:13:54Z</time>
      </trkpt>
      <trkpt lat="41.568859000" lon="1.921917000">
        <ele>262.60</ele>
        <time>2013-07-24T11:13:56Z</time>
      </trkpt>
      <trkpt lat="41.568745000" lon="1.922192000">
        <ele>262.40</ele>
        <time>2013-07-24T11:13:58Z</time>
      </trkpt>
      <trkpt lat="41.568733000" lon="1.922493000">
        <ele>262.10</ele>
        <time>2013-07-24T11:14:00Z</time>
      </trkpt>
      <trkpt lat="41.568677000" lon="1.922773000">
        <ele>261.70</ele>
        <time>2013-07-24T11:14:02Z</time>
      </trkpt>
      <trkpt lat="41.568583000" lon="1.923003000">
        <ele>262.70</ele>
        <time>2013-07-24T11:14:04Z</time>
      </trkpt>
      <trkpt lat="41.568448000" lon="1.923210000">
        <ele>262.10</ele>
        <time>2013-07-24T11:14:06Z</time>
      </trkpt>
      <trkpt lat="41.568286000" lon="1.923384000">
        <ele>261.90</ele>
        <time>2013-07-24T11:14:08Z</time>
      </trkpt>
      <trkpt lat="41.568113000" lon="1.923545000">
        <ele>261.20</ele>
        <time>2013-07-24T11:14:10Z</time>
      </trkpt>
      <trkpt lat="41.567921000" lon="1.923655000">
        <ele>260.40</ele>
        <time>2013-07-24T11:14:12Z</time>
      </trkpt>
      <trkpt lat="41.567708000" lon="1.923719000">
        <ele>259.50</ele>
        <time>2013-07-24T11:14:14Z</time>
      </trkpt>
      <trkpt lat="41.567483000" lon="1.923718000">
        <ele>258.40</ele>
        <time>2013-07-24T11:14:16Z</time>
      </trkpt>
      <trkpt lat="41.567264000" lon="1.923625000">
        <ele>258.60</ele>
        <time>2013-07-24T11:14:18Z</time>
      </trkpt>
      <trkpt lat="41.567073000" lon="1.923455000">
        <ele>257.30</ele>
        <time>2013-07-24T11:14:20Z</time>
      </trkpt>
      <trkpt lat="41.566945000" lon="1.923224000">
        <ele>257.20</ele>
        <time>2013-07-24T11:14:22Z</time>
      </trkpt>
      <trkpt lat="41.566905000" lon="1.922958000">
        <ele>257.20</ele>
        <time>2013-07-24T11:14:24Z</time>
      </trkpt>
      <trkpt lat="41.566856000" lon="1.922687000">
        <ele>258.30</ele>
        <time>2013-07-24T11:14:26Z</time>
      </trkpt>
      <trkpt lat="41.566783000" lon="1.922432000">
        <ele>258.60</ele>
        <time>2013-07-24T11:14:28Z</time>
      </trkpt>
      <trkpt lat="41.566681000" lon="1.922204000">
        <ele>258.00</ele>
        <time>2013-07-24T11:14:30Z</time>
      </trkpt>
      <trkpt lat="41.566525000" lon="1.922065000">
        <ele>258.10</ele>
        <time>2013-07-24T11:14:32Z</time>
      </trkpt>
      <trkpt lat="41.566342000" lon="1.922000000">
        <ele>258.00</ele>
        <time>2013-07-24T11:14:34Z</time>
      </trkpt>
      <trkpt lat="41.566166000" lon="1.921960000">
        <ele>259.10</ele>
        <time>2013-07-24T11:14:36Z</time>
      </trkpt>
      <trkpt lat="41.565936000" lon="1.921877000">
        <ele>260.50</ele>
        <time>2013-07-24T11:14:39Z</time>
      </trkpt>
      <trkpt lat="41.565732000" lon="1.921789000">
        <ele>262.00</ele>
        <time>2013-07-24T11:14:42Z</time>
      </trkpt>
      <trkpt lat="41.565523000" lon="1.921656000">
        <ele>262.30</ele>
        <time>2013-07-24T11:14:45Z</time>
      </trkpt>
      <trkpt lat="41.565318000" lon="1.921522000">
        <ele>262.20</ele>
        <time>2013-07-24T11:14:48Z</time>
      </trkpt>
      <trkpt lat="41.565116000" lon="1.921385000">
        <ele>262.50</ele>
        <time>2013-07-24T11:14:51Z</time>
      </trkpt>
      <trkpt lat="41.564936000" lon="1.921146000">
        <ele>260.30</ele>
        <time>2013-07-24T11:14:54Z</time>
      </trkpt>
      <trkpt lat="41.564775000" lon="1.920988000">
        <ele>257.60</ele>
        <time>2013-07-24T11:14:56Z</time>
      </trkpt>
      <trkpt lat="41.564585000" lon="1.920910000">
        <ele>255.20</ele>
        <time>2013-07-24T11:14:58Z</time>
      </trkpt>
      <trkpt lat="41.564382000" lon="1.920959000">
        <ele>254.30</ele>
        <time>2013-07-24T11:15:00Z</time>
      </trkpt>
      <trkpt lat="41.564219000" lon="1.921140000">
        <ele>253.90</ele>
        <time>2013-07-24T11:15:02Z</time>
      </trkpt>
      <trkpt lat="41.564063000" lon="1.921318000">
        <ele>253.60</ele>
        <time>2013-07-24T11:15:04Z</time>
      </trkpt>
      <trkpt lat="41.563881000" lon="1.921395000">
        <ele>254.80</ele>
        <time>2013-07-24T11:15:06Z</time>
      </trkpt>
      <trkpt lat="41.563711000" lon="1.921304000">
        <ele>256.10</ele>
        <time>2013-07-24T11:15:08Z</time>
      </trkpt>
      <trkpt lat="41.563511000" lon="1.921064000">
        <ele>256.50</ele>
        <time>2013-07-24T11:15:11Z</time>
      </trkpt>
      <trkpt lat="41.563304000" lon="1.920826000">
        <ele>257.40</ele>
        <time>2013-07-24T11:15:14Z</time>
      </trkpt>
      <trkpt lat="41.563100000" lon="1.920571000">
        <ele>257.60</ele>
        <time>2013-07-24T11:15:17Z</time>
      </trkpt>
      <trkpt lat="41.562966000" lon="1.920408000">
        <ele>257.20</ele>
        <time>2013-07-24T11:15:19Z</time>
      </trkpt>
      <trkpt lat="41.562817000" lon="1.920245000">
        <ele>255.90</ele>
        <time>2013-07-24T11:15:21Z</time>
      </trkpt>
      <trkpt lat="41.562669000" lon="1.920100000">
        <ele>256.20</ele>
        <time>2013-07-24T11:15:23Z</time>
      </trkpt>
      <trkpt lat="41.562517000" lon="1.919829000">
        <ele>257.10</ele>
        <time>2013-07-24T11:15:26Z</time>
      </trkpt>
      <trkpt lat="41.562368000" lon="1.919571000">
        <ele>258.40</ele>
        <time>2013-07-24T11:15:29Z</time>
      </trkpt>
      <trkpt lat="41.562139000" lon="1.919492000">
        <ele>258.40</ele>
        <time>2013-07-24T11:15:32Z</time>
      </trkpt>
      <trkpt lat="41.561893000" lon="1.919536000">
        <ele>257.90</ele>
        <time>2013-07-24T11:15:35Z</time>
      </trkpt>
      <trkpt lat="41.561637000" lon="1.919594000">
        <ele>257.60</ele>
        <time>2013-07-24T11:15:38Z</time>
      </trkpt>
      <trkpt lat="41.561462000" lon="1.919619000">
        <ele>256.80</ele>
        <time>2013-07-24T11:15:40Z</time>
      </trkpt>
      <trkpt lat="41.561283000" lon="1.919593000">
        <ele>255.50</ele>
        <time>2013-07-24T11:15:42Z</time>
      </trkpt>
      <trkpt lat="41.561038000" lon="1.919433000">
        <ele>255.50</ele>
        <time>2013-07-24T11:15:45Z</time>
      </trkpt>
      <trkpt lat="41.560781000" lon="1.919413000">
        <ele>255.40</ele>
        <time>2013-07-24T11:15:48Z</time>
      </trkpt>
      <trkpt lat="41.560595000" lon="1.919631000">
        <ele>256.00</ele>
        <time>2013-07-24T11:15:51Z</time>
      </trkpt>
      <trkpt lat="41.560412000" lon="1.919816000">
        <ele>257.40</ele>
        <time>2013-07-24T11:15:54Z</time>
      </trkpt>
      <trkpt lat="41.560190000" lon="1.919835000">
        <ele>257.60</ele>
        <time>2013-07-24T11:15:57Z</time>
      </trkpt>
      <trkpt lat="41.559974000" lon="1.919750000">
        <ele>256.70</ele>
        <time>2013-07-24T11:16:00Z</time>
      </trkpt>
      <trkpt lat="41.559748000" lon="1.919658000">
        <ele>256.40</ele>
        <time>2013-07-24T11:16:03Z</time>
      </trkpt>
      <trkpt lat="41.559526000" lon="1.919551000">
        <ele>255.60</ele>
        <time>2013-07-24T11:16:06Z</time>
      </trkpt>
      <trkpt lat="41.559307000" lon="1.919420000">
        <ele>256.40</ele>
        <time>2013-07-24T11:16:09Z</time>
      </trkpt>
      <trkpt lat="41.559122000" lon="1.919197000">
        <ele>254.90</ele>
        <time>2013-07-24T11:16:12Z</time>
      </trkpt>
      <trkpt lat="41.558999000" lon="1.918908000">
        <ele>254.90</ele>
        <time>2013-07-24T11:16:15Z</time>
      </trkpt>
      <trkpt lat="41.558890000" lon="1.918605000">
        <ele>254.70</ele>
        <time>2013-07-24T11:16:18Z</time>
      </trkpt>
      <trkpt lat="41.558790000" lon="1.918302000">
        <ele>253.80</ele>
        <time>2013-07-24T11:16:21Z</time>
      </trkpt>
      <trkpt lat="41.558677000" lon="1.918033000">
        <ele>254.40</ele>
        <time>2013-07-24T11:16:24Z</time>
      </trkpt>
      <trkpt lat="41.558554000" lon="1.917795000">
        <ele>255.60</ele>
        <time>2013-07-24T11:16:27Z</time>
      </trkpt>
      <trkpt lat="41.558419000" lon="1.917584000">
        <ele>256.60</ele>
        <time>2013-07-24T11:16:30Z</time>
      </trkpt>
      <trkpt lat="41.558268000" lon="1.917370000">
        <ele>255.60</ele>
        <time>2013-07-24T11:16:33Z</time>
      </trkpt>
      <trkpt lat="41.558155000" lon="1.917100000">
        <ele>254.60</ele>
        <time>2013-07-24T11:16:36Z</time>
      </trkpt>
      <trkpt lat="41.558128000" lon="1.916762000">
        <ele>254.60</ele>
        <time>2013-07-24T11:16:39Z</time>
      </trkpt>
      <trkpt lat="41.558085000" lon="1.916413000">
        <ele>253.60</ele>
        <time>2013-07-24T11:16:42Z</time>
      </trkpt>
      <trkpt lat="41.557897000" lon="1.916174000">
        <ele>253.50</ele>
        <time>2013-07-24T11:16:45Z</time>
      </trkpt>
      <trkpt lat="41.557685000" lon="1.916284000">
        <ele>252.90</ele>
        <time>2013-07-24T11:16:48Z</time>
      </trkpt>
      <trkpt lat="41.557596000" lon="1.916520000">
        <ele>255.10</ele>
        <time>2013-07-24T11:16:51Z</time>
      </trkpt>
      <trkpt lat="41.557511000" lon="1.916786000">
        <ele>256.10</ele>
        <time>2013-07-24T11:16:54Z</time>
      </trkpt>
      <trkpt lat="41.557432000" lon="1.917037000">
        <ele>257.00</ele>
        <time>2013-07-24T11:16:57Z</time>
      </trkpt>
      <trkpt lat="41.557326000" lon="1.917286000">
        <ele>257.70</ele>
        <time>2013-07-24T11:17:00Z</time>
      </trkpt>
      <trkpt lat="41.557139000" lon="1.917308000">
        <ele>258.10</ele>
        <time>2013-07-24T11:17:03Z</time>
      </trkpt>
      <trkpt lat="41.556954000" lon="1.917161000">
        <ele>258.20</ele>
        <time>2013-07-24T11:17:06Z</time>
      </trkpt>
      <trkpt lat="41.556856000" lon="1.916883000">
        <ele>255.50</ele>
        <time>2013-07-24T11:17:09Z</time>
      </trkpt>
      <trkpt lat="41.556943000" lon="1.916541000">
        <ele>252.90</ele>
        <time>2013-07-24T11:17:12Z</time>
      </trkpt>
      <trkpt lat="41.556995000" lon="1.916292000">
        <ele>252.50</ele>
        <time>2013-07-24T11:17:14Z</time>
      </trkpt>
      <trkpt lat="41.556986000" lon="1.916017000">
        <ele>251.70</ele>
        <time>2013-07-24T11:17:16Z</time>
      </trkpt>
      <trkpt lat="41.556920000" lon="1.915745000">
        <ele>249.90</ele>
        <time>2013-07-24T11:17:18Z</time>
      </trkpt>
      <trkpt lat="41.556830000" lon="1.915466000">
        <ele>247.90</ele>
        <time>2013-07-24T11:17:20Z</time>
      </trkpt>
      <trkpt lat="41.556730000" lon="1.915177000">
        <ele>245.10</ele>
        <time>2013-07-24T11:17:22Z</time>
      </trkpt>
      <trkpt lat="41.556631000" lon="1.914881000">
        <ele>243.80</ele>
        <time>2013-07-24T11:17:24Z</time>
      </trkpt>
      <trkpt lat="41.556547000" lon="1.914574000">
        <ele>242.00</ele>
        <time>2013-07-24T11:17:26Z</time>
      </trkpt>
      <trkpt lat="41.556468000" lon="1.914247000">
        <ele>240.10</ele>
        <time>2013-07-24T11:17:28Z</time>
      </trkpt>
      <trkpt lat="41.556342000" lon="1.913951000">
        <ele>238.30</ele>
        <time>2013-07-24T11:17:30Z</time>
      </trkpt>
      <trkpt lat="41.556222000" lon="1.913662000">
        <ele>235.10</ele>
        <time>2013-07-24T11:17:32Z</time>
      </trkpt>
      <trkpt lat="41.556160000" lon="1.913336000">
        <ele>232.80</ele>
        <time>2013-07-24T11:17:34Z</time>
      </trkpt>
      <trkpt lat="41.556135000" lon="1.913002000">
        <ele>231.40</ele>
        <time>2013-07-24T11:17:36Z</time>
      </trkpt>
      <trkpt lat="41.556107000" lon="1.912671000">
        <ele>231.00</ele>
        <time>2013-07-24T11:17:38Z</time>
      </trkpt>
      <trkpt lat="41.556005000" lon="1.912371000">
        <ele>228.20</ele>
        <time>2013-07-24T11:17:40Z</time>
      </trkpt>
      <trkpt lat="41.555835000" lon="1.912125000">
        <ele>226.50</ele>
        <time>2013-07-24T11:17:42Z</time>
      </trkpt>
      <trkpt lat="41.555657000" lon="1.911876000">
        <ele>224.30</ele>
        <time>2013-07-24T11:17:44Z</time>
      </trkpt>
      <trkpt lat="41.555507000" lon="1.911595000">
        <ele>221.20</ele>
        <time>2013-07-24T11:17:46Z</time>
      </trkpt>
      <trkpt lat="41.555402000" lon="1.911312000">
        <ele>219.80</ele>
        <time>2013-07-24T11:17:48Z</time>
      </trkpt>
      <trkpt lat="41.555411000" lon="1.911042000">
        <ele>219.30</ele>
        <time>2013-07-24T11:17:50Z</time>
      </trkpt>
      <trkpt lat="41.555537000" lon="1.910791000">
        <ele>217.90</ele>
        <time>2013-07-24T11:17:52Z</time>
      </trkpt>
      <trkpt lat="41.555714000" lon="1.910582000">
        <ele>216.80</ele>
        <time>2013-07-24T11:17:54Z</time>
      </trkpt>
      <trkpt lat="41.555899000" lon="1.910357000">
        <ele>214.90</ele>
        <time>2013-07-24T11:17:56Z</time>
      </trkpt>
      <trkpt lat="41.556020000" lon="1.910077000">
        <ele>212.90</ele>
        <time>2013-07-24T11:17:58Z</time>
      </trkpt>
      <trkpt lat="41.556008000" lon="1.909778000">
        <ele>211.50</ele>
        <time>2013-07-24T11:18:00Z</time>
      </trkpt>
      <trkpt lat="41.555867000" lon="1.909553000">
        <ele>211.10</ele>
        <time>2013-07-24T11:18:02Z</time>
      </trkpt>
      <trkpt lat="41.555656000" lon="1.909466000">
        <ele>211.50</ele>
        <time>2013-07-24T11:18:04Z</time>
      </trkpt>
      <trkpt lat="41.555425000" lon="1.909409000">
        <ele>210.80</ele>
        <time>2013-07-24T11:18:06Z</time>
      </trkpt>
      <trkpt lat="41.555199000" lon="1.909350000">
        <ele>210.50</ele>
        <time>2013-07-24T11:18:08Z</time>
      </trkpt>
      <trkpt lat="41.554972000" lon="1.909322000">
        <ele>209.30</ele>
        <time>2013-07-24T11:18:10Z</time>
      </trkpt>
      <trkpt lat="41.554765000" lon="1.909423000">
        <ele>208.60</ele>
        <time>2013-07-24T11:18:12Z</time>
      </trkpt>
      <trkpt lat="41.554629000" lon="1.909642000">
        <ele>208.60</ele>
        <time>2013-07-24T11:18:14Z</time>
      </trkpt>
      <trkpt lat="41.554517000" lon="1.909882000">
        <ele>208.00</ele>
        <time>2013-07-24T11:18:16Z</time>
      </trkpt>
      <trkpt lat="41.554403000" lon="1.910104000">
        <ele>208.50</ele>
        <time>2013-07-24T11:18:18Z</time>
      </trkpt>
      <trkpt lat="41.554166000" lon="1.910252000">
        <ele>208.50</ele>
        <time>2013-07-24T11:18:21Z</time>
      </trkpt>
      <trkpt lat="41.553935000" lon="1.910072000">
        <ele>208.90</ele>
        <time>2013-07-24T11:18:24Z</time>
      </trkpt>
      <trkpt lat="41.553752000" lon="1.909801000">
        <ele>209.40</ele>
        <time>2013-07-24T11:18:27Z</time>
      </trkpt>
      <trkpt lat="41.553566000" lon="1.909550000">
        <ele>209.30</ele>
        <time>2013-07-24T11:18:30Z</time>
      </trkpt>
      <trkpt lat="41.553326000" lon="1.909426000">
        <ele>209.40</ele>
        <time>2013-07-24T11:18:33Z</time>
      </trkpt>
      <trkpt lat="41.553071000" lon="1.909407000">
        <ele>208.60</ele>
        <time>2013-07-24T11:18:36Z</time>
      </trkpt>
      <trkpt lat="41.552814000" lon="1.909410000">
        <ele>209.40</ele>
        <time>2013-07-24T11:18:39Z</time>
      </trkpt>
      <trkpt lat="41.552557000" lon="1.909424000">
        <ele>208.90</ele>
        <time>2013-07-24T11:18:42Z</time>
      </trkpt>
      <trkpt lat="41.552288000" lon="1.909393000">
        <ele>207.20</ele>
        <time>2013-07-24T11:18:45Z</time>
      </trkpt>
      <trkpt lat="41.552101000" lon="1.909310000">
        <ele>205.80</ele>
        <time>2013-07-24T11:18:47Z</time>
      </trkpt>
      <trkpt lat="41.551924000" lon="1.909175000">
        <ele>204.30</ele>
        <time>2013-07-24T11:18:49Z</time>
      </trkpt>
      <trkpt lat="41.551738000" lon="1.909040000">
        <ele>203.10</ele>
        <time>2013-07-24T11:18:51Z</time>
      </trkpt>
      <trkpt lat="41.551526000" lon="1.908986000">
        <ele>200.80</ele>
        <time>2013-07-24T11:18:53Z</time>
      </trkpt>
      <trkpt lat="41.551306000" lon="1.908992000">
        <ele>200.60</ele>
        <time>2013-07-24T11:18:55Z</time>
      </trkpt>
      <trkpt lat="41.551087000" lon="1.908965000">
        <ele>199.50</ele>
        <time>2013-07-24T11:18:57Z</time>
      </trkpt>
      <trkpt lat="41.550894000" lon="1.908836000">
        <ele>197.80</ele>
        <time>2013-07-24T11:18:59Z</time>
      </trkpt>
      <trkpt lat="41.550760000" lon="1.908597000">
        <ele>197.20</ele>
        <time>2013-07-24T11:19:01Z</time>
      </trkpt>
      <trkpt lat="41.550635000" lon="1.908342000">
        <ele>195.50</ele>
        <time>2013-07-24T11:19:03Z</time>
      </trkpt>
      <trkpt lat="41.550468000" lon="1.908133000">
        <ele>194.70</ele>
        <time>2013-07-24T11:19:05Z</time>
      </trkpt>
      <trkpt lat="41.550275000" lon="1.907955000">
        <ele>193.40</ele>
        <time>2013-07-24T11:19:07Z</time>
      </trkpt>
      <trkpt lat="41.550071000" lon="1.907790000">
        <ele>192.40</ele>
        <time>2013-07-24T11:19:09Z</time>
      </trkpt>
      <trkpt lat="41.549878000" lon="1.907599000">
        <ele>189.60</ele>
        <time>2013-07-24T11:19:11Z</time>
      </trkpt>
      <trkpt lat="41.549739000" lon="1.907346000">
        <ele>187.70</ele>
        <time>2013-07-24T11:19:13Z</time>
      </trkpt>
      <trkpt lat="41.549643000" lon="1.907070000">
        <ele>188.30</ele>
        <time>2013-07-24T11:19:15Z</time>
      </trkpt>
      <trkpt lat="41.549478000" lon="1.906857000">
        <ele>186.80</ele>
        <time>2013-07-24T11:19:17Z</time>
      </trkpt>
      <trkpt lat="41.549276000" lon="1.906698000">
        <ele>184.80</ele>
        <time>2013-07-24T11:19:19Z</time>
      </trkpt>
      <trkpt lat="41.549097000" lon="1.906489000">
        <ele>182.80</ele>
        <time>2013-07-24T11:19:21Z</time>
      </trkpt>
      <trkpt lat="41.548946000" lon="1.906235000">
        <ele>181.50</ele>
        <time>2013-07-24T11:19:23Z</time>
      </trkpt>
      <trkpt lat="41.548799000" lon="1.905971000">
        <ele>180.30</ele>
        <time>2013-07-24T11:19:25Z</time>
      </trkpt>
      <trkpt lat="41.548653000" lon="1.905706000">
        <ele>179.40</ele>
        <time>2013-07-24T11:19:27Z</time>
      </trkpt>
      <trkpt lat="41.548507000" lon="1.905433000">
        <ele>177.90</ele>
        <time>2013-07-24T11:19:29Z</time>
      </trkpt>
      <trkpt lat="41.548361000" lon="1.905168000">
        <ele>176.40</ele>
        <time>2013-07-24T11:19:31Z</time>
      </trkpt>
      <trkpt lat="41.548191000" lon="1.904920000">
        <ele>175.50</ele>
        <time>2013-07-24T11:19:33Z</time>
      </trkpt>
      <trkpt lat="41.547969000" lon="1.904762000">
        <ele>173.90</ele>
        <time>2013-07-24T11:19:35Z</time>
      </trkpt>
      <trkpt lat="41.547734000" lon="1.904655000">
        <ele>172.10</ele>
        <time>2013-07-24T11:19:37Z</time>
      </trkpt>
      <trkpt lat="41.547493000" lon="1.904575000">
        <ele>170.50</ele>
        <time>2013-07-24T11:19:39Z</time>
      </trkpt>
      <trkpt lat="41.547252000" lon="1.904508000">
        <ele>167.70</ele>
        <time>2013-07-24T11:19:41Z</time>
      </trkpt>
      <trkpt lat="41.547014000" lon="1.904426000">
        <ele>167.10</ele>
        <time>2013-07-24T11:19:43Z</time>
      </trkpt>
      <trkpt lat="41.546792000" lon="1.904263000">
        <ele>165.60</ele>
        <time>2013-07-24T11:19:45Z</time>
      </trkpt>
      <trkpt lat="41.546615000" lon="1.904017000">
        <ele>164.10</ele>
        <time>2013-07-24T11:19:47Z</time>
      </trkpt>
      <trkpt lat="41.546422000" lon="1.903813000">
        <ele>163.30</ele>
        <time>2013-07-24T11:19:49Z</time>
      </trkpt>
      <trkpt lat="41.546203000" lon="1.903776000">
        <ele>161.70</ele>
        <time>2013-07-24T11:19:51Z</time>
      </trkpt>
      <trkpt lat="41.545967000" lon="1.903810000">
        <ele>160.20</ele>
        <time>2013-07-24T11:19:53Z</time>
      </trkpt>
      <trkpt lat="41.545727000" lon="1.903821000">
        <ele>158.30</ele>
        <time>2013-07-24T11:19:55Z</time>
      </trkpt>
      <trkpt lat="41.545482000" lon="1.903785000">
        <ele>156.40</ele>
        <time>2013-07-24T11:19:57Z</time>
      </trkpt>
      <trkpt lat="41.545240000" lon="1.903711000">
        <ele>154.60</ele>
        <time>2013-07-24T11:19:59Z</time>
      </trkpt>
      <trkpt lat="41.545007000" lon="1.903584000">
        <ele>153.20</ele>
        <time>2013-07-24T11:20:01Z</time>
      </trkpt>
      <trkpt lat="41.544782000" lon="1.903428000">
        <ele>150.60</ele>
        <time>2013-07-24T11:20:03Z</time>
      </trkpt>
      <trkpt lat="41.544610000" lon="1.903202000">
        <ele>148.90</ele>
        <time>2013-07-24T11:20:05Z</time>
      </trkpt>
      <trkpt lat="41.544540000" lon="1.902904000">
        <ele>147.10</ele>
        <time>2013-07-24T11:20:07Z</time>
      </trkpt>
      <trkpt lat="41.544444000" lon="1.902280000">
        <ele>145.90</ele>
        <time>2013-07-24T11:20:11Z</time>
      </trkpt>
      <trkpt lat="41.543869000" lon="1.901166000">
        <ele>140.30</ele>
        <time>2013-07-24T11:20:20Z</time>
      </trkpt>
      <trkpt lat="41.543922000" lon="1.900894000">
        <ele>137.00</ele>
        <time>2013-07-24T11:20:22Z</time>
      </trkpt>
      <trkpt lat="41.544002000" lon="1.900604000">
        <ele>133.50</ele>
        <time>2013-07-24T11:20:24Z</time>
      </trkpt>
      <trkpt lat="41.544066000" lon="1.900305000">
        <ele>132.50</ele>
        <time>2013-07-24T11:20:26Z</time>
      </trkpt>
      <trkpt lat="41.544092000" lon="1.900009000">
        <ele>131.60</ele>
        <time>2013-07-24T11:20:28Z</time>
      </trkpt>
      <trkpt lat="41.544087000" lon="1.899707000">
        <ele>130.50</ele>
        <time>2013-07-24T11:20:30Z</time>
      </trkpt>
      <trkpt lat="41.544068000" lon="1.899397000">
        <ele>128.60</ele>
        <time>2013-07-24T11:20:32Z</time>
      </trkpt>
      <trkpt lat="41.544043000" lon="1.899078000">
        <ele>127.60</ele>
        <time>2013-07-24T11:20:34Z</time>
      </trkpt>
      <trkpt lat="41.544019000" lon="1.898765000">
        <ele>126.50</ele>
        <time>2013-07-24T11:20:36Z</time>
      </trkpt>
      <trkpt lat="41.543992000" lon="1.898455000">
        <ele>124.90</ele>
        <time>2013-07-24T11:20:38Z</time>
      </trkpt>
      <trkpt lat="41.543973000" lon="1.898134000">
        <ele>123.40</ele>
        <time>2013-07-24T11:20:40Z</time>
      </trkpt>
      <trkpt lat="41.543908000" lon="1.897853000">
        <ele>121.80</ele>
        <time>2013-07-24T11:20:42Z</time>
      </trkpt>
      <trkpt lat="41.543785000" lon="1.897610000">
        <ele>119.70</ele>
        <time>2013-07-24T11:20:44Z</time>
      </trkpt>
      <trkpt lat="41.543616000" lon="1.897421000">
        <ele>118.70</ele>
        <time>2013-07-24T11:20:46Z</time>
      </trkpt>
      <trkpt lat="41.543433000" lon="1.897274000">
        <ele>118.60</ele>
        <time>2013-07-24T11:20:48Z</time>
      </trkpt>
      <trkpt lat="41.543267000" lon="1.897147000">
        <ele>117.90</ele>
        <time>2013-07-24T11:20:50Z</time>
      </trkpt>
      <trkpt lat="41.543048000" lon="1.896981000">
        <ele>117.40</ele>
        <time>2013-07-24T11:20:53Z</time>
      </trkpt>
      <trkpt lat="41.542874000" lon="1.896831000">
        <ele>116.30</ele>
        <time>2013-07-24T11:20:56Z</time>
      </trkpt>
      <trkpt lat="41.542720000" lon="1.896693000">
        <ele>115.70</ele>
        <time>2013-07-24T11:20:59Z</time>
      </trkpt>
      <trkpt lat="41.542565000" lon="1.896567000">
        <ele>115.60</ele>
        <time>2013-07-24T11:21:02Z</time>
      </trkpt>
      <trkpt lat="41.542370000" lon="1.896405000">
        <ele>115.20</ele>
        <time>2013-07-24T11:21:06Z</time>
      </trkpt>
      <trkpt lat="41.542179000" lon="1.896300000">
        <ele>115.60</ele>
        <time>2013-07-24T11:21:10Z</time>
      </trkpt>
      <trkpt lat="41.542001000" lon="1.896225000">
        <ele>115.00</ele>
        <time>2013-07-24T11:21:19Z</time>
      </trkpt>
      <trkpt lat="41.541836000" lon="1.896226000">
        <ele>113.90</ele>
        <time>2013-07-24T11:21:27Z</time>
      </trkpt>
      <trkpt lat="41.541816000" lon="1.895942000">
        <ele>112.80</ele>
        <time>2013-07-24T11:21:33Z</time>
      </trkpt>
      <trkpt lat="41.541867000" lon="1.895669000">
        <ele>112.20</ele>
        <time>2013-07-24T11:21:37Z</time>
      </trkpt>
      <trkpt lat="41.541905000" lon="1.895417000">
        <ele>112.90</ele>
        <time>2013-07-24T11:21:41Z</time>
      </trkpt>
      <trkpt lat="41.541948000" lon="1.895184000">
        <ele>112.40</ele>
        <time>2013-07-24T11:21:45Z</time>
      </trkpt>
      <trkpt lat="41.541965000" lon="1.894943000">
        <ele>112.80</ele>
        <time>2013-07-24T11:21:50Z</time>
      </trkpt>
      <trkpt lat="41.541783000" lon="1.894905000">
        <ele>112.10</ele>
        <time>2013-07-24T11:22:00Z</time>
      </trkpt>
      <trkpt lat="41.541603000" lon="1.894825000">
        <ele>111.50</ele>
        <time>2013-07-24T11:22:07Z</time>
      </trkpt>
      <trkpt lat="41.541395000" lon="1.894768000">
        <ele>110.60</ele>
        <time>2013-07-24T11:22:14Z</time>
      </trkpt>
      <trkpt lat="41.541200000" lon="1.894712000">
        <ele>110.20</ele>
        <time>2013-07-24T11:22:20Z</time>
      </trkpt>
      <trkpt lat="41.541017000" lon="1.894641000">
        <ele>109.60</ele>
        <time>2013-07-24T11:22:30Z</time>
      </trkpt>
      <trkpt lat="41.541085000" lon="1.894401000">
        <ele>110.60</ele>
        <time>2013-07-24T12:15:40Z</time>
      </trkpt>
      <trkpt lat="41.541194000" lon="1.894159000">
        <ele>111.10</ele>
        <time>2013-07-24T12:15:50Z</time>
      </trkpt>
      <trkpt lat="41.541311000" lon="1.893943000">
        <ele>111.20</ele>
        <time>2013-07-24T12:15:58Z</time>
      </trkpt>
      <trkpt lat="41.541440000" lon="1.893728000">
        <ele>112.00</ele>
        <time>2013-07-24T12:16:06Z</time>
      </trkpt>
      <trkpt lat="41.541580000" lon="1.893517000">
        <ele>112.90</ele>
        <time>2013-07-24T12:16:16Z</time>
      </trkpt>
      <trkpt lat="41.541591000" lon="1.893348000">
        <ele>115.90</ele>
        <time>2013-07-24T12:16:25Z</time>
      </trkpt>
      <trkpt lat="41.541567000" lon="1.893108000">
        <ele>117.90</ele>
        <time>2013-07-24T12:16:32Z</time>
      </trkpt>
      <trkpt lat="41.541609000" lon="1.892896000">
        <ele>120.20</ele>
        <time>2013-07-24T12:16:38Z</time>
      </trkpt>
      <trkpt lat="41.541636000" lon="1.892634000">
        <ele>122.40</ele>
        <time>2013-07-24T12:16:45Z</time>
      </trkpt>
      <trkpt lat="41.541642000" lon="1.892399000">
        <ele>124.00</ele>
        <time>2013-07-24T12:16:53Z</time>
      </trkpt>
      <trkpt lat="41.541707000" lon="1.892117000">
        <ele>123.60</ele>
        <time>2013-07-24T12:16:59Z</time>
      </trkpt>
      <trkpt lat="41.541783000" lon="1.891867000">
        <ele>123.60</ele>
        <time>2013-07-24T12:17:04Z</time>
      </trkpt>
      <trkpt lat="41.541871000" lon="1.891598000">
        <ele>125.10</ele>
        <time>2013-07-24T12:17:10Z</time>
      </trkpt>
      <trkpt lat="41.542045000" lon="1.891596000">
        <ele>126.40</ele>
        <time>2013-07-24T12:17:18Z</time>
      </trkpt>
      <trkpt lat="41.542285000" lon="1.891643000">
        <ele>127.70</ele>
        <time>2013-07-24T12:17:28Z</time>
      </trkpt>
      <trkpt lat="41.542494000" lon="1.891658000">
        <ele>128.30</ele>
        <time>2013-07-24T12:17:34Z</time>
      </trkpt>
      <trkpt lat="41.542621000" lon="1.891434000">
        <ele>128.50</ele>
        <time>2013-07-24T12:17:40Z</time>
      </trkpt>
      <trkpt lat="41.542742000" lon="1.891245000">
        <ele>128.50</ele>
        <time>2013-07-24T12:17:45Z</time>
      </trkpt>
      <trkpt lat="41.542801000" lon="1.891013000">
        <ele>129.20</ele>
        <time>2013-07-24T12:17:50Z</time>
      </trkpt>
      <trkpt lat="41.542867000" lon="1.890777000">
        <ele>128.90</ele>
        <time>2013-07-24T12:17:55Z</time>
      </trkpt>
      <trkpt lat="41.542929000" lon="1.890497000">
        <ele>128.40</ele>
        <time>2013-07-24T12:18:00Z</time>
      </trkpt>
      <trkpt lat="41.542966000" lon="1.890259000">
        <ele>128.00</ele>
        <time>2013-07-24T12:18:04Z</time>
      </trkpt>
      <trkpt lat="41.543020000" lon="1.890014000">
        <ele>127.20</ele>
        <time>2013-07-24T12:18:08Z</time>
      </trkpt>
      <trkpt lat="41.543062000" lon="1.889770000">
        <ele>127.30</ele>
        <time>2013-07-24T12:18:12Z</time>
      </trkpt>
      <trkpt lat="41.543113000" lon="1.889512000">
        <ele>126.80</ele>
        <time>2013-07-24T12:18:16Z</time>
      </trkpt>
      <trkpt lat="41.543164000" lon="1.889230000">
        <ele>125.70</ele>
        <time>2013-07-24T12:18:20Z</time>
      </trkpt>
      <trkpt lat="41.543215000" lon="1.888929000">
        <ele>126.30</ele>
        <time>2013-07-24T12:18:24Z</time>
      </trkpt>
      <trkpt lat="41.543266000" lon="1.888618000">
        <ele>125.00</ele>
        <time>2013-07-24T12:18:28Z</time>
      </trkpt>
      <trkpt lat="41.543311000" lon="1.888382000">
        <ele>124.60</ele>
        <time>2013-07-24T12:18:31Z</time>
      </trkpt>
      <trkpt lat="41.543379000" lon="1.888077000">
        <ele>123.80</ele>
        <time>2013-07-24T12:18:35Z</time>
      </trkpt>
      <trkpt lat="41.543463000" lon="1.887778000">
        <ele>122.70</ele>
        <time>2013-07-24T12:18:39Z</time>
      </trkpt>
      <trkpt lat="41.543581000" lon="1.887504000">
        <ele>123.30</ele>
        <time>2013-07-24T12:18:43Z</time>
      </trkpt>
      <trkpt lat="41.543700000" lon="1.887325000">
        <ele>123.70</ele>
        <time>2013-07-24T12:18:47Z</time>
      </trkpt>
      <trkpt lat="41.543867000" lon="1.887172000">
        <ele>124.20</ele>
        <time>2013-07-24T12:18:51Z</time>
      </trkpt>
      <trkpt lat="41.543897000" lon="1.886918000">
        <ele>124.10</ele>
        <time>2013-07-24T12:18:55Z</time>
      </trkpt>
      <trkpt lat="41.543897000" lon="1.886676000">
        <ele>125.40</ele>
        <time>2013-07-24T12:19:00Z</time>
      </trkpt>
      <trkpt lat="41.543990000" lon="1.886489000">
        <ele>125.30</ele>
        <time>2013-07-24T12:19:09Z</time>
      </trkpt>
      <trkpt lat="41.544102000" lon="1.886284000">
        <ele>124.70</ele>
        <time>2013-07-24T12:19:18Z</time>
      </trkpt>
      <trkpt lat="41.544256000" lon="1.886135000">
        <ele>124.50</ele>
        <time>2013-07-24T12:19:28Z</time>
      </trkpt>
      <trkpt lat="41.544477000" lon="1.886166000">
        <ele>121.40</ele>
        <time>2013-07-24T12:23:58Z</time>
      </trkpt>
      <trkpt lat="41.544663000" lon="1.886213000">
        <ele>121.60</ele>
        <time>2013-07-24T12:24:06Z</time>
      </trkpt>
    </trkseg>
  </trk>
</gpx>
